[[{"header":{"parameterUnit":"m.s-1","parameterCategory":1,"la1":31.0,"la2":29.5877,"lo1":-88.7671,"lo2":-86.6584,"dy":0.0162,"dx":0.0185,"nx":115,"ny":88,"refTime":"2023-04-17T06:00:00:Z","depth":0,"parameterNumber":2,"parameterNumberName":"U-component_of_WINDS"},"data":[0.0,0.0,0.0,0.0,0.0,0.0,0.0,0.0,0.0,0.0,0.0,0.0,0.0,0.0,0.0,0.0,0.0,0.0,0.0,0.0,0.0,0.0,0.0,0.0,0.0,0.0,0.0,0.0,0.0,0.0,0.0,0.0,0.0,0.0,0.0,0.0,0.0,0.0,0.0,0.0,0.0,0.0,0.0,0.0,0.0,0.0,0.0,0.0,0.0,0.0,0.0,0.0,0.0,0.0,0.0,0.0,0.0,0.0,0.0,0.0,0.0,0.0,0.0,0.0,0.0,0.0,0.0,0.0,0.0,0.0,0.0,0.0,0.0,0.0,0.0,0.0,0.0,0.0,0.0,0.0,0.0,0.0,0.0,0.0,0.0,0.0,0.0,0.0,0.0,0.0,0.0,0.0,0.0,0.0,0.0,0.0,0.0,0.0,0.0,0.0,0.0,0.0,0.0,0.0,0.0,0.0,0.0,0.0,0.0,0.0,0.0,0.0,0.0,0.0,0.0,0.0,0.0,0.0,0.0,0.0,0.0,0.0,0.0,0.0,0.0,0.0,0.0,0.0,0.0,0.0,0.0,0.0,0.0,0.0,0.0,0.0,0.0,0.0,0.0,0.0,0.0,0.0,0.0,0.0,0.0,0.0,0.0,0.0,0.0,0.0,0.0,0.0,0.0,0.0,0.0,0.0,0.0,0.0,0.0,0.0,0.0,0.0,0.0,0.0,0.0,0.0,0.0,0.0,0.0,0.0,0.0,0.0,0.0,0.0,0.0,0.0,0.0,0.0,0.0,0.0,0.0,0.0,0.0,0.0,0.0,0.0,0.0,0.0,0.0,0.0,0.0,0.0,0.0,0.0,0.0,0.0,0.0,0.0,0.0,0.0,0.0,0.0,0.0,0.0,0.0,0.0,0.0,0.0,0.0,0.0,0.0,0.0,0.0,0.0,0.0,0.0,0.0,0.0,0.0,0.0,0.0,0.0,0.0,0.0,0.0,0.0,0.0,0.0,0.0,0.0,0.0,0.0,0.0,0.0,0.0,0.0,0.0,0.0,0.0,0.0,0.0,0.0,0.0,0.0,0.0,0.0,0.0,0.0,0.0,0.0,0.0,0.0,0.0,0.0,0.0,0.0,0.0,0.0,0.0,0.0,0.0,0.0,0.0,0.0,0.0,0.0,0.0,0.0,0.0,0.0,0.0,0.0,0.0,0.0,0.0,0.0,0.0,0.0,0.0,0.0,0.0,0.0,0.0,0.0,0.0,0.0,0.0,0.0,0.0,0.0,0.0,0.0,0.0,0.0,0.0,0.0,0.0,0.0,0.0,0.0,0.0,0.0,0.0,0.0,0.0,0.0,0.0,0.0,0.0,0.0,0.0,0.0,0.0,0.0,0.0,0.0,0.0,0.0,0.0,0.0,0.0,0.0,0.0,0.0,0.0,0.0,0.0,0.0,0.0,0.0,0.0,0.0,0.0,0.0,0.0,0.0,0.0,0.0,0.0,0.0,0.0,0.0,0.0,0.0,0.0,0.0,0.0,0.0,0.0,0.0,0.0,0.0,0.0,0.0,0.0,0.0,0.0,0.0,0.0,0.0,0.0,0.0,0.0,0.0,0.0,0.0,0.0,0.0,0.0,0.0,0.0,0.0,0.0,0.0,0.0,0.0,0.0,0.0,0.0,0.0,0.0,0.0,0.0,0.0,0.0,0.0,0.0,0.0,0.0,0.0,0.0,0.0,0.0,0.0,0.0,0.0,0.0,0.0,0.0,0.0,0.0,0.0,0.0,0.0,0.0,0.0,0.0,0.0,0.0,0.0,0.0,0.0,0.0,0.0,0.0,0.0,0.0,0.0,0.0,0.0,0.0,0.0,0.0,0.0,0.0,0.0,0.0,0.0,0.0,0.0,0.0,0.0,0.0,0.0,0.0,0.0,0.0,0.0,0.0,0.0,0.0,0.0,0.0,0.0,0.0,0.0,0.0,0.0,0.0,0.0,0.0,0.0,0.0,0.0,0.0,0.0,0.0,0.0,0.0,0.0,0.0,0.0,0.0,0.0,0.0,0.0,0.0,0.0,0.0,0.0,0.0,0.0,0.0,0.0,0.0,0.0,0.0,0.0,0.0,0.0,0.0,0.0,0.0,0.0,0.0,0.0,0.0,0.0,0.0,0.0,0.0,0.0,0.0,0.0,0.0,0.0,0.0,0.0,0.0,0.0,0.0,0.0,0.0,0.0,0.0,0.0,0.0,0.0,0.0,0.0,0.0,0.0,0.0,0.0,0.0,0.0,0.0,0.0,0.0,0.0,0.0,0.0,0.0,0.0,0.0,0.0,0.0,0.0,0.0,0.0,0.0,0.0,0.0,0.0,0.0,0.0,0.0,0.0,0.0,0.0,0.0,0.0,0.0,0.0,0.0,0.0,0.0,0.0,0.0,0.0,0.0,0.0,0.0,0.0,0.0,0.0,0.0,0.0,0.0,0.0,0.0,0.0,0.0,0.0,0.0,0.0,0.0,0.0,0.0,0.0,0.0,0.0,0.0,0.0,0.0,0.0,0.0,0.0,0.0,0.0,0.0,0.0,0.0,0.0,0.0,0.0,0.0,0.0,0.0,0.0,0.0,0.0,0.0,0.0,0.0,0.0,0.0,0.0,0.0,0.0,0.0,0.0,0.0,0.0,0.0,0.0,0.0,0.0,0.0,0.0,0.0,0.0,0.0,0.0,0.0,0.0,0.0,0.0,0.0,0.0,0.0,0.0,0.0,0.0,0.0,0.0,0.0,0.0,0.0,0.0,0.0,0.0,0.0,0.0,0.0,0.0,0.0,0.0,0.0,0.0,0.0,0.0,0.0,0.0,0.0,0.0,0.0,0.0,0.0,0.0,0.0,0.0,0.0,0.0,0.0,0.0,0.0,0.0,0.0,0.0,0.0,0.0,0.0,0.0,0.0,0.0,0.0,0.0,0.0,0.0,0.0,0.0,0.0,0.0,0.0,0.0,0.0,0.0,0.0,0.0,0.0,0.0,0.0,0.0,0.0,0.0,0.0,0.0,0.0,0.0,0.0,0.0,0.0,0.0,0.0,0.0,0.0,0.0,0.0,0.0,0.0,0.0,0.0,0.0,0.0,0.0,0.0,0.0,0.0,0.0,0.0,0.0,0.0,0.0,0.0,0.0,0.0,0.0,0.0,0.0,0.0,0.0,0.0,0.0,0.0,0.0,0.0,0.0,0.0,0.0,0.0,0.0,0.0,0.0,0.0,0.0,0.0,0.0,0.0,0.0,0.0,0.0,0.0,0.0,0.0,0.0,0.0,0.0,0.0,0.0,0.0,0.0,0.0,0.0,0.0,0.0,0.0,0.0,0.0,0.0,0.0,0.0,0.0,0.0,0.0,0.0,0.0,0.0,0.0,0.0,0.0,0.0,0.0,0.0,0.0,0.0,0.0,0.0,0.0,0.0,0.0,0.0,0.0,0.0,0.0,0.0,0.0,0.0,0.0,0.0,0.0,0.0,0.0,0.0,0.0,0.0,0.0,0.0,0.0,0.0,0.0,0.0,0.0,0.0,0.0,0.0,0.0,0.0,0.0,0.0,0.0,0.0,0.0,0.0,0.0,0.0,0.0,0.0,0.0,0.0,0.0,0.0,0.0,0.0,0.0,0.0,0.0,0.0,0.0,0.0,0.0,0.0,0.0,0.0,0.0,0.0,0.0,0.0,0.0,0.0,0.0,0.0,0.0,0.0,0.0,0.0,0.0,0.0,0.0,0.0,0.0,0.0,0.0,0.0,0.0,0.0,0.0,0.0,0.0,0.0,0.0,0.0,0.0,0.0,0.0,0.0,0.0,0.0,0.0,0.0,0.0,0.0,0.0,0.0,0.0,0.0,0.0,0.0,0.0,0.0,0.0,0.0,0.0,0.0,0.0,0.0,0.0,0.0,0.0,0.0,0.0,0.0,0.0,0.0,0.0,0.0,0.0,0.0,0.0,0.0,0.0,0.0,0.0,0.0,0.0,0.0,0.0,0.0,0.0,0.0,0.0,0.0,0.0,0.0,0.0,0.0,0.0,0.0,0.0,0.0,0.0,0.0,0.0,0.0,0.0,0.0,0.0,0.0,0.0,0.0,0.0,0.0,0.0,0.0,0.0,0.0,0.0,0.0,0.0,0.0,0.0,0.0,0.0,0.0,0.0,0.0,0.0,0.0,0.0,0.0,0.0,0.0,0.0,0.0,0.0,0.0,0.0,0.0,0.0,0.0,0.0,0.0,0.0,0.0,0.0,0.0,-4.6405,0.0,0.0,0.0,0.0,0.0,0.0,0.0,0.0,0.0,0.0,0.0,0.0,0.0,0.0,0.0,0.0,0.0,0.0,0.0,0.0,0.0,0.0,0.0,0.0,0.0,0.0,0.0,0.0,0.0,0.0,0.0,0.0,0.0,0.0,0.0,0.0,0.0,0.0,0.0,0.0,0.0,0.0,0.0,0.0,0.0,0.0,0.0,0.0,0.0,0.0,0.0,0.0,0.0,0.0,0.0,0.0,0.0,0.0,0.0,0.0,0.0,0.0,0.0,0.0,0.0,0.0,0.0,0.0,0.0,0.0,0.0,0.0,0.0,0.0,0.0,0.0,0.0,0.0,0.0,0.0,0.0,0.0,0.0,0.0,0.0,0.0,0.0,0.0,0.0,0.0,0.0,0.0,0.0,0.0,0.0,0.0,0.0,0.0,0.0,0.0,0.0,0.0,0.0,0.0,0.0,0.0,0.0,0.0,0.0,0.0,-5.0069,-4.8858,-4.8958,-4.8262,-4.6579,0.0,0.0,0.0,0.0,0.0,0.0,0.0,0.0,0.0,0.0,0.0,0.0,0.0,0.0,0.0,0.0,0.0,0.0,0.0,0.0,0.0,0.0,0.0,0.0,0.0,0.0,0.0,0.0,0.0,0.0,0.0,0.0,0.0,0.0,0.0,0.0,0.0,0.0,0.0,0.0,0.0,0.0,0.0,0.0,0.0,0.0,0.0,0.0,0.0,0.0,0.0,0.0,0.0,0.0,0.0,0.0,0.0,0.0,0.0,0.0,0.0,0.0,0.0,0.0,0.0,0.0,0.0,0.0,0.0,0.0,0.0,0.0,0.0,0.0,0.0,0.0,0.0,0.0,0.0,0.0,0.0,0.0,0.0,0.0,0.0,0.0,0.0,0.0,0.0,0.0,0.0,0.0,0.0,0.0,0.0,0.0,0.0,0.0,0.0,0.0,0.0,0.0,0.0,0.0,0.0,0.0,0.0,0.0,0.0,0.0,0.0,0.0,-4.9765,-4.8986,-4.6796,0.0,0.0,0.0,0.0,0.0,0.0,0.0,0.0,0.0,0.0,0.0,0.0,0.0,0.0,0.0,0.0,0.0,0.0,0.0,0.0,0.0,0.0,0.0,0.0,0.0,0.0,0.0,0.0,0.0,0.0,0.0,0.0,0.0,0.0,0.0,0.0,0.0,0.0,0.0,0.0,0.0,0.0,0.0,0.0,0.0,0.0,0.0,0.0,0.0,0.0,0.0,0.0,0.0,0.0,0.0,0.0,0.0,0.0,0.0,0.0,0.0,0.0,0.0,0.0,0.0,0.0,0.0,0.0,0.0,0.0,0.0,0.0,0.0,0.0,0.0,0.0,0.0,0.0,0.0,0.0,0.0,0.0,0.0,0.0,0.0,0.0,0.0,0.0,0.0,0.0,0.0,0.0,0.0,0.0,0.0,0.0,0.0,0.0,0.0,0.0,0.0,0.0,0.0,0.0,0.0,0.0,0.0,0.0,0.0,0.0,-5.0099,-5.0684,-5.017,0.0,-4.7337,0.0,0.0,0.0,0.0,0.0,0.0,0.0,0.0,0.0,0.0,0.0,0.0,0.0,0.0,0.0,0.0,0.0,0.0,0.0,0.0,0.0,0.0,0.0,0.0,0.0,0.0,0.0,0.0,0.0,0.0,0.0,0.0,0.0,0.0,0.0,0.0,0.0,0.0,0.0,0.0,0.0,0.0,0.0,0.0,0.0,0.0,0.0,0.0,0.0,0.0,0.0,0.0,0.0,0.0,0.0,0.0,0.0,0.0,0.0,0.0,0.0,0.0,0.0,0.0,0.0,0.0,0.0,0.0,0.0,0.0,0.0,0.0,0.0,0.0,0.0,0.0,0.0,0.0,0.0,0.0,0.0,0.0,0.0,0.0,0.0,0.0,0.0,0.0,0.0,0.0,0.0,0.0,0.0,0.0,0.0,0.0,0.0,0.0,0.0,0.0,0.0,0.0,0.0,0.0,0.0,0.0,0.0,0.0,0.0,0.0,-4.9905,-5.0809,-4.9665,-4.8229,0.0,0.0,0.0,0.0,0.0,0.0,0.0,0.0,0.0,0.0,0.0,0.0,0.0,0.0,0.0,0.0,0.0,0.0,0.0,0.0,0.0,0.0,0.0,0.0,0.0,0.0,0.0,0.0,0.0,0.0,0.0,0.0,0.0,0.0,0.0,0.0,0.0,0.0,0.0,0.0,0.0,0.0,0.0,0.0,0.0,0.0,0.0,0.0,0.0,0.0,0.0,0.0,0.0,0.0,0.0,0.0,0.0,0.0,0.0,0.0,0.0,0.0,0.0,0.0,0.0,0.0,0.0,0.0,0.0,0.0,0.0,0.0,0.0,0.0,0.0,0.0,0.0,0.0,0.0,0.0,0.0,0.0,0.0,0.0,0.0,0.0,0.0,0.0,0.0,0.0,0.0,0.0,0.0,0.0,0.0,0.0,0.0,0.0,0.0,0.0,0.0,0.0,0.0,0.0,0.0,0.0,0.0,0.0,0.0,0.0,-4.9725,-5.0071,-5.0895,-4.9262,-4.7758,-4.6609,0.0,0.0,0.0,0.0,0.0,0.0,0.0,0.0,0.0,0.0,0.0,0.0,0.0,0.0,0.0,0.0,0.0,0.0,0.0,0.0,0.0,0.0,0.0,0.0,0.0,0.0,0.0,0.0,0.0,0.0,0.0,0.0,0.0,0.0,0.0,0.0,0.0,0.0,0.0,0.0,0.0,0.0,0.0,0.0,0.0,0.0,0.0,0.0,0.0,0.0,0.0,0.0,0.0,0.0,0.0,0.0,0.0,0.0,0.0,0.0,0.0,0.0,0.0,0.0,0.0,0.0,0.0,0.0,0.0,0.0,0.0,0.0,0.0,0.0,0.0,0.0,0.0,0.0,0.0,0.0,0.0,0.0,0.0,0.0,0.0,0.0,0.0,0.0,0.0,0.0,0.0,0.0,0.0,0.0,0.0,0.0,0.0,0.0,0.0,0.0,0.0,0.0,0.0,0.0,0.0,0.0,0.0,0.0,-5.1345,-5.0673,-5.071,-5.1437,-4.9316,-4.8072,0.0,0.0,0.0,0.0,0.0,0.0,0.0,0.0,0.0,0.0,0.0,0.0,0.0,0.0,0.0,0.0,0.0,0.0,0.0,0.0,0.0,0.0,0.0,0.0,0.0,0.0,0.0,0.0,0.0,0.0,0.0,0.0,0.0,0.0,0.0,0.0,0.0,0.0,0.0,0.0,0.0,0.0,0.0,0.0,0.0,0.0,0.0,0.0,0.0,0.0,0.0,0.0,0.0,0.0,0.0,0.0,0.0,0.0,0.0,0.0,0.0,0.0,0.0,0.0,0.0,0.0,0.0,0.0,0.0,0.0,0.0,0.0,0.0,0.0,0.0,0.0,0.0,0.0,0.0,0.0,0.0,0.0,0.0,0.0,0.0,0.0,0.0,0.0,0.0,0.0,0.0,0.0,0.0,0.0,0.0,0.0,0.0,0.0,0.0,0.0,0.0,0.0,0.0,0.0,0.0,0.0,0.0,0.0,0.0,-4.836,-4.8578,-4.915,-4.9963,-4.8173,-4.7426,0.0,0.0,0.0,0.0,0.0,0.0,0.0,0.0,0.0,0.0,0.0,0.0,0.0,0.0,0.0,0.0,0.0,0.0,0.0,0.0,0.0,0.0,0.0,0.0,0.0,0.0,0.0,0.0,0.0,0.0,0.0,0.0,0.0,0.0,0.0,0.0,0.0,0.0,0.0,0.0,0.0,0.0,0.0,0.0,0.0,0.0,0.0,0.0,0.0,0.0,0.0,0.0,0.0,0.0,0.0,0.0,0.0,0.0,0.0,0.0,0.0,0.0,0.0,0.0,0.0,0.0,0.0,0.0,0.0,0.0,0.0,0.0,0.0,0.0,0.0,0.0,0.0,0.0,0.0,0.0,0.0,0.0,0.0,0.0,0.0,0.0,0.0,0.0,0.0,0.0,0.0,0.0,0.0,0.0,0.0,0.0,0.0,0.0,0.0,0.0,0.0,0.0,0.0,0.0,0.0,0.0,0.0,0.0,0.0,-4.7227,0.0,-4.8663,-4.9006,-4.7446,-4.6754,0.0,0.0,0.0,0.0,0.0,0.0,0.0,0.0,0.0,0.0,0.0,0.0,0.0,0.0,0.0,0.0,0.0,0.0,0.0,0.0,0.0,0.0,0.0,0.0,0.0,0.0,0.0,0.0,0.0,0.0,0.0,0.0,0.0,0.0,0.0,0.0,0.0,0.0,0.0,0.0,0.0,0.0,0.0,0.0,0.0,0.0,0.0,0.0,0.0,0.0,0.0,0.0,0.0,0.0,0.0,0.0,0.0,0.0,0.0,0.0,0.0,0.0,0.0,0.0,0.0,0.0,0.0,0.0,0.0,0.0,0.0,0.0,0.0,0.0,0.0,0.0,0.0,0.0,0.0,0.0,0.0,0.0,0.0,0.0,0.0,0.0,0.0,0.0,0.0,0.0,0.0,0.0,0.0,0.0,0.0,0.0,0.0,0.0,0.0,0.0,0.0,0.0,0.0,0.0,0.0,0.0,0.0,0.0,-4.6943,-4.8476,-4.9307,-4.9325,-4.8768,-4.7242,-4.6155,0.0,0.0,0.0,0.0,0.0,0.0,0.0,0.0,0.0,0.0,0.0,0.0,0.0,0.0,0.0,0.0,0.0,0.0,0.0,0.0,0.0,0.0,0.0,0.0,0.0,0.0,0.0,0.0,0.0,0.0,0.0,0.0,0.0,0.0,0.0,0.0,0.0,0.0,0.0,0.0,0.0,0.0,0.0,0.0,0.0,0.0,0.0,0.0,0.0,0.0,0.0,0.0,0.0,0.0,0.0,0.0,0.0,0.0,0.0,0.0,0.0,0.0,0.0,0.0,0.0,0.0,0.0,0.0,0.0,0.0,0.0,0.0,0.0,0.0,0.0,0.0,0.0,0.0,0.0,0.0,0.0,0.0,0.0,0.0,0.0,0.0,0.0,0.0,0.0,0.0,0.0,0.0,0.0,0.0,0.0,0.0,0.0,0.0,0.0,0.0,0.0,0.0,0.0,0.0,0.0,0.0,0.0,0.0,0.0,-4.6131,-4.6925,-4.7497,-4.7773,-4.6292,-4.5882,0.0,0.0,0.0,0.0,0.0,0.0,0.0,0.0,0.0,0.0,0.0,0.0,0.0,0.0,0.0,0.0,0.0,0.0,0.0,0.0,0.0,0.0,0.0,0.0,0.0,0.0,0.0,0.0,0.0,0.0,0.0,0.0,0.0,0.0,0.0,0.0,0.0,0.0,0.0,0.0,0.0,0.0,0.0,0.0,0.0,0.0,0.0,0.0,0.0,0.0,0.0,0.0,0.0,0.0,0.0,0.0,0.0,0.0,0.0,0.0,0.0,0.0,0.0,0.0,0.0,0.0,0.0,0.0,0.0,0.0,0.0,0.0,0.0,0.0,0.0,0.0,0.0,0.0,0.0,0.0,0.0,0.0,0.0,0.0,0.0,0.0,0.0,0.0,0.0,0.0,0.0,0.0,0.0,0.0,0.0,0.0,0.0,0.0,0.0,0.0,0.0,0.0,0.0,0.0,0.0,0.0,0.0,0.0,0.0,-4.5455,-4.7021,-4.8016,-4.8255,-4.6983,-4.6373,-4.6463,0.0,0.0,0.0,0.0,0.0,0.0,0.0,0.0,0.0,0.0,0.0,0.0,0.0,0.0,0.0,0.0,0.0,0.0,0.0,0.0,0.0,0.0,0.0,0.0,0.0,0.0,0.0,0.0,0.0,0.0,0.0,0.0,0.0,0.0,0.0,0.0,0.0,0.0,0.0,0.0,0.0,0.0,0.0,0.0,0.0,0.0,0.0,0.0,0.0,0.0,0.0,0.0,0.0,0.0,0.0,0.0,0.0,0.0,0.0,0.0,0.0,0.0,0.0,0.0,0.0,0.0,0.0,0.0,0.0,0.0,0.0,0.0,0.0,0.0,0.0,0.0,0.0,0.0,0.0,0.0,0.0,0.0,0.0,0.0,0.0,0.0,0.0,0.0,0.0,0.0,0.0,0.0,0.0,0.0,0.0,0.0,0.0,0.0,0.0,0.0,0.0,0.0,0.0,0.0,0.0,0.0,0.0,0.0,-4.6214,-4.9334,-5.0585,-4.9763,-4.8899,-4.7445,0.0,0.0,0.0,0.0,0.0,0.0,0.0,0.0,0.0,0.0,0.0,0.0,0.0,0.0,0.0,0.0,0.0,0.0,0.0,0.0,0.0,0.0,0.0,0.0,0.0,0.0,0.0,0.0,0.0,0.0,0.0,0.0,0.0,0.0,0.0,0.0,0.0,0.0,0.0,0.0,0.0,0.0,0.0,0.0,0.0,0.0,0.0,0.0,0.0,0.0,0.0,0.0,0.0,0.0,0.0,0.0,0.0,0.0,0.0,0.0,0.0,0.0,0.0,0.0,0.0,0.0,0.0,0.0,0.0,0.0,0.0,0.0,0.0,0.0,0.0,0.0,0.0,0.0,0.0,0.0,0.0,0.0,0.0,0.0,0.0,0.0,0.0,0.0,0.0,0.0,0.0,0.0,0.0,0.0,0.0,0.0,0.0,0.0,0.0,0.0,0.0,0.0,0.0,0.0,0.0,0.0,0.0,0.0,0.0,-4.9417,-5.2045,-5.2527,-5.0585,-4.9116,-4.805,0.0,0.0,0.0,0.0,0.0,0.0,0.0,0.0,0.0,0.0,0.0,0.0,0.0,0.0,0.0,0.0,0.0,0.0,0.0,0.0,0.0,0.0,0.0,0.0,0.0,0.0,0.0,0.0,0.0,0.0,0.0,0.0,0.0,0.0,0.0,0.0,0.0,0.0,0.0,0.0,0.0,0.0,0.0,0.0,0.0,0.0,0.0,0.0,0.0,0.0,0.0,0.0,0.0,0.0,0.0,0.0,0.0,0.0,0.0,0.0,0.0,0.0,0.0,0.0,0.0,0.0,0.0,0.0,0.0,0.0,0.0,0.0,0.0,0.0,0.0,0.0,0.0,0.0,0.0,0.0,0.0,0.0,0.0,0.0,0.0,0.0,0.0,0.0,0.0,0.0,0.0,0.0,0.0,0.0,0.0,0.0,0.0,0.0,0.0,0.0,0.0,0.0,0.0,0.0,0.0,0.0,0.0,0.0,-4.9815,-5.0145,-5.3564,-5.4418,-5.2362,-5.0398,-4.9003,0.0,0.0,0.0,0.0,0.0,0.0,0.0,0.0,0.0,0.0,0.0,0.0,0.0,0.0,0.0,0.0,0.0,0.0,0.0,0.0,0.0,0.0,0.0,0.0,0.0,0.0,0.0,0.0,0.0,0.0,0.0,0.0,0.0,0.0,0.0,0.0,0.0,0.0,0.0,0.0,0.0,0.0,0.0,0.0,0.0,0.0,0.0,0.0,0.0,0.0,0.0,0.0,0.0,0.0,0.0,0.0,0.0,0.0,0.0,0.0,0.0,0.0,0.0,0.0,0.0,0.0,0.0,0.0,0.0,0.0,0.0,0.0,0.0,0.0,0.0,0.0,0.0,0.0,0.0,0.0,0.0,0.0,0.0,0.0,0.0,0.0,0.0,0.0,0.0,0.0,0.0,0.0,0.0,0.0,0.0,0.0,0.0,0.0,0.0,0.0,0.0,0.0,0.0,0.0,0.0,0.0,0.0,0.0,-5.0754,-4.9453,-5.4009,-5.5782,-5.4334,-5.2009,-5.003,0.0,0.0,0.0,0.0,0.0,0.0,0.0,0.0,0.0,0.0,0.0,0.0,0.0,0.0,0.0,0.0,0.0,0.0,0.0,0.0,0.0,0.0,0.0,0.0,0.0,0.0,0.0,0.0,0.0,0.0,0.0,0.0,0.0,0.0,0.0,0.0,0.0,0.0,0.0,0.0,0.0,0.0,0.0,0.0,0.0,0.0,0.0,0.0,0.0,0.0,0.0,0.0,0.0,0.0,0.0,0.0,0.0,0.0,0.0,0.0,0.0,0.0,0.0,0.0,0.0,0.0,0.0,0.0,0.0,0.0,0.0,0.0,0.0,0.0,0.0,0.0,0.0,0.0,0.0,0.0,0.0,0.0,0.0,0.0,0.0,0.0,0.0,0.0,0.0,0.0,0.0,0.0,0.0,0.0,0.0,0.0,0.0,0.0,0.0,0.0,0.0,0.0,0.0,0.0,0.0,0.0,0.0,0.0,-4.8985,-4.9215,-5.2519,-5.4112,-5.3766,-5.1721,-5.0186,0.0,0.0,0.0,0.0,0.0,0.0,0.0,0.0,0.0,0.0,0.0,0.0,0.0,0.0,0.0,0.0,0.0,0.0,0.0,0.0,0.0,0.0,0.0,0.0,0.0,0.0,0.0,0.0,0.0,0.0,0.0,0.0,0.0,0.0,0.0,0.0,0.0,0.0,0.0,0.0,0.0,0.0,0.0,0.0,0.0,0.0,0.0,0.0,-4.5835,0.0,0.0,0.0,0.0,0.0,0.0,0.0,0.0,0.0,0.0,0.0,0.0,0.0,0.0,0.0,0.0,0.0,0.0,0.0,0.0,0.0,0.0,0.0,0.0,0.0,0.0,0.0,0.0,0.0,0.0,0.0,0.0,0.0,0.0,0.0,0.0,0.0,0.0,0.0,0.0,0.0,0.0,0.0,0.0,0.0,0.0,0.0,0.0,0.0,0.0,0.0,0.0,0.0,0.0,0.0,0.0,0.0,0.0,0.0,-4.8508,-4.9628,-5.1992,-5.305,-5.2636,-5.1205,-5.0083,0.0,0.0,0.0,0.0,0.0,0.0,0.0,0.0,0.0,0.0,0.0,0.0,0.0,0.0,0.0,0.0,0.0,0.0,0.0,0.0,0.0,0.0,0.0,0.0,0.0,0.0,0.0,0.0,0.0,0.0,0.0,0.0,0.0,0.0,0.0,0.0,0.0,0.0,0.0,0.0,0.0,0.0,0.0,0.0,0.0,0.0,0.0,0.0,0.0,0.0,0.0,0.0,0.0,0.0,0.0,0.0,0.0,0.0,0.0,0.0,0.0,0.0,0.0,0.0,0.0,0.0,0.0,0.0,0.0,0.0,0.0,0.0,0.0,0.0,0.0,0.0,0.0,0.0,0.0,0.0,0.0,0.0,0.0,0.0,0.0,0.0,0.0,0.0,0.0,0.0,0.0,0.0,0.0,0.0,0.0,0.0,0.0,0.0,0.0,0.0,0.0,0.0,0.0,0.0,0.0,0.0,0.0,-4.6676,-4.8265,-4.9894,-5.156,-5.2108,-5.1398,-5.0723,-4.9972,-4.917,0.0,0.0,0.0,0.0,0.0,0.0,0.0,0.0,0.0,0.0,0.0,0.0,0.0,0.0,0.0,0.0,0.0,0.0,0.0,0.0,0.0,0.0,0.0,0.0,0.0,0.0,0.0,0.0,0.0,0.0,0.0,0.0,0.0,0.0,0.0,0.0,0.0,0.0,-4.5569,-4.6215,0.0,0.0,0.0,0.0,0.0,0.0,0.0,0.0,-4.5812,0.0,0.0,0.0,0.0,0.0,0.0,0.0,0.0,0.0,0.0,0.0,0.0,0.0,0.0,0.0,0.0,0.0,0.0,0.0,0.0,0.0,0.0,0.0,0.0,0.0,0.0,0.0,0.0,0.0,0.0,0.0,0.0,0.0,0.0,0.0,0.0,0.0,0.0,0.0,0.0,0.0,0.0,0.0,0.0,0.0,0.0,0.0,0.0,0.0,0.0,0.0,0.0,0.0,0.0,0.0,0.0,-4.5007,-4.5432,-4.6631,-4.8649,-5.0022,-5.0637,-5.0542,-5.0919,-5.0158,-4.8145,0.0,0.0,0.0,0.0,0.0,0.0,0.0,0.0,0.0,0.0,0.0,0.0,0.0,0.0,0.0,0.0,0.0,0.0,0.0,0.0,0.0,0.0,0.0,0.0,0.0,0.0,0.0,0.0,0.0,0.0,0.0,0.0,0.0,0.0,0.0,0.0,0.0,0.0,0.0,-4.6824,-4.7009,0.0,0.0,0.0,0.0,0.0,0.0,0.0,0.0,-4.5181,0.0,0.0,0.0,0.0,0.0,0.0,0.0,0.0,0.0,0.0,0.0,0.0,0.0,0.0,0.0,0.0,0.0,0.0,0.0,0.0,0.0,0.0,0.0,0.0,0.0,0.0,0.0,0.0,0.0,0.0,0.0,0.0,0.0,0.0,0.0,0.0,0.0,0.0,0.0,0.0,0.0,0.0,0.0,0.0,0.0,0.0,0.0,0.0,0.0,0.0,0.0,0.0,0.0,0.0,0.0,-4.4834,-4.5059,-4.636,-4.8885,-4.959,-4.989,-4.9873,-4.9462,-4.861,0.0,0.0,0.0,0.0,0.0,0.0,0.0,0.0,0.0,0.0,0.0,0.0,0.0,0.0,0.0,0.0,0.0,0.0,0.0,0.0,0.0,0.0,0.0,0.0,0.0,0.0,0.0,0.0,0.0,0.0,0.0,0.0,0.0,0.0,0.0,0.0,0.0,0.0,0.0,0.0,-4.7152,-4.729,-4.75,0.0,0.0,0.0,0.0,0.0,0.0,-4.5096,-4.4793,0.0,0.0,0.0,0.0,0.0,0.0,0.0,0.0,0.0,0.0,0.0,0.0,0.0,0.0,0.0,0.0,0.0,0.0,0.0,0.0,0.0,0.0,0.0,0.0,0.0,0.0,0.0,0.0,0.0,0.0,0.0,0.0,0.0,0.0,0.0,0.0,0.0,0.0,0.0,0.0,0.0,0.0,0.0,0.0,0.0,0.0,0.0,0.0,0.0,0.0,0.0,0.0,0.0,0.0,0.0,-4.4572,-4.4981,-4.6448,-4.904,-4.9312,-4.9398,-4.9381,-4.8143,-4.7208,0.0,0.0,0.0,0.0,0.0,0.0,0.0,0.0,0.0,0.0,0.0,0.0,0.0,0.0,0.0,0.0,0.0,0.0,0.0,0.0,0.0,0.0,0.0,0.0,0.0,0.0,0.0,0.0,0.0,0.0,0.0,0.0,0.0,0.0,0.0,0.0,0.0,0.0,0.0,0.0,0.0,-4.751,-4.8012,-4.7125,0.0,0.0,0.0,0.0,-4.5558,-4.5216,0.0,0.0,0.0,0.0,0.0,0.0,0.0,0.0,0.0,0.0,0.0,0.0,0.0,0.0,0.0,0.0,0.0,0.0,0.0,0.0,0.0,0.0,0.0,0.0,0.0,0.0,0.0,0.0,0.0,0.0,0.0,0.0,0.0,0.0,0.0,0.0,0.0,0.0,0.0,0.0,0.0,0.0,0.0,0.0,0.0,0.0,0.0,0.0,0.0,0.0,0.0,0.0,0.0,0.0,0.0,0.0,-4.3565,-4.4931,-4.6438,-4.803,-4.8724,-4.9063,-4.9063,-4.8384,-4.7425,0.0,0.0,0.0,0.0,0.0,0.0,0.0,0.0,0.0,0.0,0.0,0.0,0.0,0.0,0.0,0.0,0.0,0.0,0.0,0.0,0.0,0.0,0.0,0.0,0.0,0.0,0.0,0.0,0.0,0.0,0.0,0.0,0.0,0.0,0.0,0.0,0.0,0.0,0.0,0.0,0.0,-4.7453,-4.7194,-4.6864,-4.6445,0.0,0.0,-4.6749,-4.611,-4.6632,0.0,0.0,0.0,0.0,0.0,0.0,0.0,0.0,0.0,0.0,0.0,0.0,0.0,0.0,0.0,0.0,0.0,0.0,0.0,0.0,0.0,0.0,0.0,0.0,0.0,0.0,0.0,0.0,0.0,0.0,0.0,0.0,0.0,0.0,0.0,0.0,0.0,0.0,0.0,0.0,0.0,0.0,0.0,0.0,0.0,0.0,0.0,0.0,0.0,0.0,0.0,0.0,0.0,0.0,0.0,-4.1491,-4.3325,-4.4062,-4.5302,-4.7192,-4.7597,-4.7953,-4.8376,-4.6895,-4.6062,0.0,0.0,0.0,0.0,0.0,0.0,0.0,0.0,0.0,0.0,0.0,0.0,0.0,0.0,0.0,0.0,0.0,0.0,0.0,0.0,0.0,0.0,0.0,0.0,0.0,0.0,0.0,0.0,0.0,0.0,0.0,0.0,0.0,0.0,0.0,0.0,0.0,0.0,0.0,0.0,0.0,0.0,-4.7063,-4.6887,0.0,0.0,0.0,-4.6759,-4.584,0.0,0.0,0.0,0.0,0.0,0.0,0.0,0.0,0.0,0.0,0.0,0.0,0.0,0.0,0.0,0.0,0.0,0.0,0.0,0.0,0.0,0.0,0.0,0.0,0.0,0.0,0.0,0.0,0.0,0.0,0.0,0.0,0.0,0.0,0.0,0.0,0.0,0.0,0.0,0.0,0.0,0.0,0.0,0.0,0.0,0.0,0.0,0.0,0.0,0.0,0.0,0.0,0.0,0.0,0.0,0.0,0.0,-4.2774,-4.3365,-4.4463,-4.6177,-4.6599,-4.7073,-4.7581,-4.5635,0.0,0.0,0.0,0.0,0.0,0.0,0.0,0.0,0.0,0.0,0.0,0.0,0.0,0.0,0.0,0.0,0.0,0.0,0.0,0.0,0.0,0.0,0.0,0.0,0.0,0.0,0.0,-3.8906,0.0,0.0,0.0,0.0,0.0,0.0,0.0,0.0,0.0,0.0,0.0,0.0,0.0,0.0,-4.5671,-4.6636,-4.6469,-4.6337,0.0,0.0,-4.638,-4.548,-4.5782,-4.5368,0.0,0.0,0.0,0.0,0.0,0.0,0.0,0.0,0.0,0.0,0.0,0.0,0.0,0.0,0.0,0.0,0.0,0.0,0.0,0.0,0.0,0.0,0.0,0.0,0.0,0.0,0.0,0.0,0.0,0.0,0.0,0.0,0.0,0.0,0.0,0.0,0.0,0.0,0.0,0.0,0.0,0.0,0.0,0.0,0.0,0.0,0.0,0.0,0.0,0.0,0.0,0.0,0.0,0.0,0.0,-4.1223,-4.3193,-4.4361,-4.4784,-4.6092,-4.6819,-4.6836,-4.5382,-4.422,0.0,0.0,0.0,0.0,0.0,0.0,0.0,0.0,0.0,0.0,0.0,0.0,0.0,0.0,0.0,0.0,0.0,0.0,0.0,0.0,0.0,0.0,0.0,0.0,0.0,0.0,0.0,0.0,0.0,0.0,0.0,0.0,0.0,0.0,0.0,0.0,0.0,0.0,0.0,0.0,0.0,-4.4409,-4.5464,-4.5307,-4.5569,0.0,0.0,-4.5735,-4.5306,-4.6458,-4.6232,-4.2585,0.0,0.0,0.0,0.0,0.0,0.0,0.0,0.0,0.0,0.0,0.0,0.0,0.0,0.0,0.0,0.0,0.0,0.0,0.0,0.0,0.0,0.0,0.0,0.0,0.0,0.0,0.0,0.0,0.0,0.0,0.0,0.0,0.0,0.0,0.0,0.0,0.0,0.0,0.0,0.0,0.0,0.0,0.0,0.0,0.0,0.0,0.0,0.0,0.0,0.0,0.0,0.0,0.0,-4.0224,-4.0756,-4.1674,-4.2629,-4.3592,-4.418,-4.4714,-4.5238,-4.4277,-4.3339,0.0,0.0,0.0,0.0,0.0,0.0,0.0,0.0,0.0,0.0,0.0,0.0,0.0,0.0,0.0,0.0,0.0,0.0,0.0,0.0,0.0,0.0,0.0,0.0,0.0,0.0,0.0,0.0,-3.9202,-3.8903,-3.8323,0.0,0.0,0.0,0.0,0.0,0.0,0.0,0.0,0.0,0.0,-4.3489,-4.4411,-4.493,0.0,0.0,-4.5765,-4.5473,-4.4707,-4.4915,-4.4366,-4.1969,-4.1259,0.0,0.0,0.0,0.0,0.0,0.0,0.0,0.0,0.0,0.0,0.0,0.0,0.0,0.0,0.0,0.0,0.0,0.0,0.0,0.0,0.0,0.0,0.0,0.0,0.0,0.0,0.0,0.0,0.0,0.0,0.0,0.0,0.0,0.0,0.0,0.0,0.0,0.0,0.0,0.0,0.0,0.0,0.0,0.0,0.0,0.0,0.0,0.0,0.0,0.0,0.0,0.0,-3.9183,-3.9732,-4.0045,-4.0695,-4.1744,-4.1993,-4.2381,-4.2949,-4.2302,-4.1659,0.0,0.0,0.0,0.0,0.0,0.0,0.0,0.0,0.0,0.0,0.0,0.0,0.0,0.0,0.0,0.0,0.0,0.0,0.0,0.0,0.0,0.0,0.0,0.0,0.0,0.0,0.0,0.0,-3.8967,-3.8607,-3.8013,0.0,0.0,0.0,0.0,0.0,0.0,0.0,0.0,0.0,0.0,-4.255,-4.3387,-4.4031,-4.4498,-4.4753,-4.4799,-4.45,-4.3743,-4.3572,-4.2944,-4.1209,0.0,0.0,0.0,0.0,0.0,0.0,0.0,0.0,0.0,0.0,0.0,0.0,0.0,0.0,0.0,0.0,0.0,0.0,0.0,0.0,0.0,0.0,0.0,0.0,0.0,0.0,0.0,0.0,0.0,0.0,-4.1084,0.0,0.0,0.0,0.0,0.0,0.0,0.0,0.0,0.0,0.0,0.0,0.0,0.0,0.0,0.0,0.0,0.0,0.0,0.0,0.0,0.0,0.0,-3.7751,-3.7883,-3.8494,-3.8846,-3.9044,-3.9684,-4.0098,-4.0114,-3.9395,-3.8937,-3.8818,0.0,0.0,0.0,0.0,0.0,0.0,0.0,0.0,0.0,0.0,0.0,0.0,0.0,0.0,0.0,0.0,0.0,0.0,0.0,0.0,0.0,0.0,0.0,0.0,0.0,0.0,-3.6815,-3.7327,-3.784,0.0,0.0,0.0,0.0,0.0,0.0,0.0,0.0,0.0,0.0,-4.0244,-4.1502,-4.2568,-4.2406,-4.2739,-4.4074,-4.3458,-4.2674,-4.2349,-4.2783,-4.2446,0.0,0.0,0.0,0.0,0.0,0.0,0.0,0.0,0.0,0.0,0.0,0.0,0.0,0.0,0.0,0.0,0.0,0.0,0.0,0.0,0.0,0.0,0.0,0.0,0.0,0.0,0.0,-4.1982,-4.154,0.0,0.0,0.0,0.0,0.0,0.0,0.0,0.0,0.0,0.0,0.0,-3.9971,-3.9324,0.0,0.0,0.0,0.0,0.0,0.0,0.0,0.0,0.0,0.0,0.0,0.0,-3.7294,-3.734,-3.768,-3.8102,-3.8623,-3.8876,-3.9033,-3.9154,-3.89,-3.8535,-3.7984,0.0,0.0,0.0,0.0,0.0,0.0,0.0,0.0,0.0,0.0,0.0,0.0,0.0,0.0,0.0,0.0,0.0,0.0,0.0,0.0,0.0,0.0,0.0,0.0,0.0,-3.8056,0.0,0.0,0.0,0.0,0.0,0.0,0.0,0.0,0.0,0.0,0.0,-3.8218,-3.8907,-3.978,-4.0662,-4.1447,-4.1832,-4.2258,0.0,0.0,0.0,0.0,0.0,0.0,0.0,0.0,0.0,0.0,0.0,0.0,0.0,0.0,-4.193,-4.067,-4.0612,-4.0645,-4.0086,0.0,0.0,0.0,0.0,0.0,0.0,0.0,0.0,0.0,0.0,0.0,0.0,0.0,0.0,-4.1584,0.0,-4.057,0.0,0.0,0.0,0.0,0.0,0.0,0.0,0.0,-3.9159,-3.9138,-3.9478,-3.8862,-3.8547,0.0,-3.7631,-3.6977,0.0,0.0,0.0,0.0,0.0,0.0,0.0,0.0,-3.6615,-3.6615,-3.6692,-3.6971,-3.7437,-3.7468,-3.7499,-3.7576,-3.7607,-3.7374,-3.6875,-3.689,-3.6829,0.0,0.0,0.0,0.0,0.0,0.0,0.0,0.0,0.0,0.0,0.0,0.0,0.0,0.0,0.0,0.0,0.0,0.0,0.0,0.0,0.0,0.0,0.0,-3.7813,0.0,0.0,0.0,0.0,0.0,0.0,0.0,0.0,0.0,-3.7073,-3.7798,-3.8459,-3.8948,-3.9586,-4.0127,-4.0516,0.0,0.0,0.0,0.0,0.0,0.0,0.0,-4.0954,-4.0275,-4.0231,-4.0324,-4.0577,-4.1538,-4.2237,-4.2108,0.0,0.0,-4.115,-4.1072,-4.0992,-4.0245,-4.0066,-4.0012,-4.0012,-4.0212,-4.0349,0.0,0.0,0.0,0.0,0.0,0.0,0.0,0.0,-4.1346,-4.0988,0.0,-3.9657,0.0,0.0,0.0,0.0,0.0,-3.7873,0.0,0.0,-3.8863,-3.8767,-3.8774,-3.8119,-3.7824,-3.7735,-3.6591,-3.5956,-3.5946,-3.6628,0.0,0.0,0.0,0.0,0.0,0.0,-3.5688,-3.572,-3.5604,-3.5504,-3.5537,-3.5537,-3.5519,-3.5537,-3.5537,-3.5537,-3.5537,-3.5829,-3.591,-3.572,-3.6022,0.0,0.0,0.0,0.0,0.0,0.0,0.0,0.0,0.0,0.0,0.0,0.0,0.0,0.0,0.0,0.0,0.0,0.0,0.0,0.0,-3.6988,0.0,0.0,0.0,0.0,0.0,0.0,0.0,0.0,0.0,0.0,-3.6869,-3.8088,-3.8925,-3.8895,0.0,0.0,0.0,0.0,-3.9935,-3.9792,-3.9914,-3.9894,-3.9432,-4.0445,-4.1143,-4.0608,0.0,0.0,-4.1941,-4.2278,-4.2541,-4.2245,-4.2963,-4.3272,-4.2217,-4.1674,-4.1162,-4.0474,-4.0056,-3.9801,-3.9769,-4.0036,-4.016,-4.2053,0.0,0.0,0.0,0.0,-4.122,-4.1421,-4.1772,-4.1787,-4.143,-4.0753,-3.9987,0.0,0.0,0.0,0.0,0.0,0.0,-3.7792,-3.8811,-3.831,-3.834,-3.8752,-3.8148,-3.7868,-3.7824,-3.7033,-3.6384,-3.5908,-3.6096,-3.5919,-3.5344,0.0,0.0,0.0,0.0,-3.5409,-3.5539,-3.5522,-3.5489,-3.5489,-3.5489,-3.5489,-3.5489,-3.5489,-3.5489,-3.5489,-3.5602,-3.5619,-3.5572,-3.5636,0.0,0.0,0.0,0.0,0.0,0.0,0.0,0.0,0.0,0.0,0.0,0.0,0.0,0.0,0.0,0.0,0.0,0.0,0.0,-3.6443,-3.6933,-3.6952,0.0,0.0,0.0,0.0,0.0,0.0,0.0,0.0,0.0,-3.6476,-3.7252,-3.7662,0.0,0.0,-3.8598,-3.8265,-3.915,-3.9891,-3.9987,0.0,0.0,0.0,-4.1334,-4.1401,-4.1056,-4.1495,-4.216,-4.2973,-4.3229,-4.3306,-4.3148,-4.3405,-4.3229,-4.2052,-4.21,-4.1895,-4.0984,-4.0667,-4.0692,-4.0725,-4.0906,-4.1133,-4.2335,-4.1573,-4.1225,-4.1175,-4.1335,-4.135,-4.1602,-4.2033,-4.2033,-4.1518,-4.0626,-4.0138,-3.914,-3.7781,-3.7395,0.0,0.0,0.0,-3.744,-3.8194,-3.7791,-3.766,-3.7784,-3.7432,-3.7271,-3.7227,-3.6632,-3.6084,-3.5703,-3.5439,-3.5198,-3.5012,0.0,0.0,-3.5246,-3.5148,-3.5148,-3.5261,-3.5246,-3.5261,-3.5261,-3.5326,-3.5359,-3.5407,-3.5472,-3.5489,-3.5489,-3.5489,-3.5489,-3.5489,-3.5489,-3.5424,0.0,0.0,0.0,0.0,0.0,0.0,0.0,0.0,0.0,0.0,0.0,-3.5915,-3.521,0.0,0.0,0.0,-3.659,-3.6674,-3.6535,-3.6858,0.0,0.0,0.0,0.0,0.0,0.0,0.0,-3.5289,-3.5381,-3.5441,-3.5455,-3.5957,-3.6522,-3.7165,-3.7783,-3.8109,-3.7768,0.0,-3.9176,-3.9237,-3.9597,-4.0037,-4.0487,-4.0659,-4.0801,-4.1001,-4.1237,-4.1656,-4.2438,-4.2748,-4.2731,-4.248,-4.2441,-4.205,-4.0629,-4.0796,-4.1076,-4.0751,-4.0848,-4.0984,-4.1,-4.1205,-4.1406,-4.2644,-4.2032,-4.114,-4.1033,-4.146,-4.1474,-4.166,-4.2005,-4.2005,-4.1294,-4.0118,-4.0046,-3.9044,-3.7346,-3.6736,0.0,-3.7375,-3.7375,-3.7375,-3.736,-3.7331,-3.6968,-3.6315,-3.6257,-3.6199,-3.6141,-3.5561,-3.5319,-3.529,-3.4704,-3.4481,-3.4631,-3.4769,-3.4835,-3.4902,-3.4868,-3.4868,-3.4902,-3.4902,-3.4902,-3.4902,-3.5082,-3.518,-3.518,-3.5374,-3.5424,-3.5424,-3.5472,-3.5472,-3.5439,-3.5439,-3.5424,-3.5439,0.0,0.0,0.0,0.0,0.0,0.0,0.0,0.0,0.0,0.0,0.0,0.0,0.0,0.0,0.0,-3.6611,0.0,-3.6913,-3.6676,0.0,0.0,0.0,-3.5119,-3.4869,-3.4775,-3.4705,-3.4626,0.0,0.0,-3.4083,-3.443,-3.5443,-3.758,-3.7913,-3.7823,-3.7667,-3.778,-3.7942,-3.7825,-3.802,-3.8318,-3.8835,-3.927,-3.9885,-4.0586,-4.0795,-4.0784,-4.0911,-4.1145,-4.1069,-4.0499,-4.0504,-4.0215,-3.8757,-3.8607,-3.8792,-4.0067,-4.047,-4.0638,-4.0734,-4.095,-4.1117,-4.2644,-4.2034,-4.1328,-4.1386,-4.1957,-4.1942,-4.1698,-4.1337,-4.1337,-4.0873,-4.0075,-3.961,-3.8884,-3.797,-3.7825,-3.7839,-3.7999,-3.7999,-3.7984,-3.7955,-3.752,-3.6954,-3.6286,-3.5807,-3.5343,-3.4864,-3.4719,-3.4632,-3.4632,-3.4486,-3.4346,-3.423,-3.4264,-3.4448,-3.4716,-3.4582,-3.4582,-3.4765,-3.4765,-3.4783,-3.4902,-3.4935,-3.4968,-3.4968,-3.5001,-3.5049,-3.5049,-3.5049,-3.5049,-3.5034,-3.5034,-3.4983,-3.4898,-3.4831,0.0,0.0,0.0,0.0,0.0,0.0,0.0,0.0,0.0,-3.4735,-3.3925,0.0,-3.4994,0.0,-3.5911,-3.6438,-3.6061,-3.5947,0.0,0.0,-3.4695,-3.4537,-3.431,-3.4698,-3.4783,-3.4164,-3.3995,-3.3968,-3.393,-3.3699,-3.3854,-3.4886,-3.5408,-3.5518,-3.5176,-3.5763,-3.6364,-3.6721,-3.743,-3.835,-3.895,-3.9373,-3.9557,-4.0037,-3.9276,-3.8796,-3.9321,-3.9162,-3.8949,-3.8764,-3.8906,-3.8827,-3.8427,-3.8072,-3.8017,-3.8747,-3.9191,-3.9684,-4.0401,-4.073,-4.0851,-4.2644,-4.2063,-4.17,-4.157,-4.1628,-4.1337,-4.0989,-4.067,-4.0655,-4.0292,-3.9654,-3.903,-3.8565,-3.8217,-3.8202,-3.8043,-3.781,-3.7796,-3.7491,-3.6939,-3.6591,-3.6098,-3.5459,-3.5111,-3.4762,-3.4414,-3.438,-3.438,-3.438,-3.438,-3.4346,-3.423,-3.423,-3.4312,-3.4414,-3.4259,-3.4225,-3.4327,-3.4414,-3.4501,-3.4683,-3.4769,-3.4783,-3.4668,-3.4769,-3.4769,-3.4668,-3.4668,-3.4668,-3.4668,-3.4668,-3.4601,-3.4433,-3.4249,-3.4079,0.0,0.0,0.0,0.0,0.0,0.0,0.0,0.0,0.0,0.0,0.0,-3.4677,-3.4385,-3.5161,-3.5512,-3.5192,-3.5347,-3.5217,-3.4628,-3.4588,-3.447,-3.4259,-3.4567,-3.4513,-3.3846,-3.3753,-3.3672,-3.3405,-3.3111,-3.3031,-3.3352,-3.3445,-3.3666,-3.4088,-3.4588,-3.4994,-3.5324,-3.5811,-3.6378,-3.7001,-3.7275,-3.749,-3.761,-3.7218,-3.7022,-3.7399,-3.7361,-3.708,-3.6574,-3.6814,-3.6886,-3.6397,-3.6143,-3.6251,-3.6991,-3.7371,-3.7936,-3.8933,-3.9378,-3.9548,-4.2571,-4.2092,-4.2005,-4.1584,-4.0916,-4.0263,-3.9987,-3.9973,-3.9973,-3.9639,-3.903,-3.8362,-3.813,-3.8188,-3.8115,-3.7796,-3.7317,-3.7302,-3.6649,-3.5552,-3.5436,-3.5116,-3.4545,-3.4457,-3.438,-3.4312,-3.438,-3.438,-3.4264,-3.4278,-3.4278,-3.423,-3.423,-3.4162,-3.3991,-3.3868,-3.3862,-3.3896,-3.404,-3.4162,-3.4346,-3.453,-3.453,-3.4346,-3.4496,-3.453,-3.4361,-3.4278,-3.4264,-3.423,-3.4196,-3.4079,-3.3914,-3.3541,-3.3311,0.0,-3.2723,0.0,0.0,0.0,0.0,0.0,0.0,0.0,0.0,-3.4519,-3.4341,-3.3968,-3.4328,-3.455,-3.45,-3.482,-3.4962,-3.4756,-3.4756,-3.4634,-3.4347,-3.4293,-3.4084,-3.3535,-3.3417,-3.3156,-3.2686,-3.2542,-3.245,-3.2463,-3.2109,-3.2249,-3.3261,-3.3547,-3.3587,-3.3682,-3.3829,-3.4254,-3.4344,-3.463,-3.4901,-3.4833,-3.5096,-3.5339,-3.5211,-3.5444,-3.5239,-3.4383,-3.4626,-3.4764,-3.3782,-3.3919,-3.4373,-3.5369,-3.553,-3.5952,-3.7231,-3.7831,-3.7928,-4.2194,-4.2049,-4.1512,-4.0902,-4.0249,-3.9625,-3.9378,-3.9378,-3.9378,-3.9,-3.8347,-3.7752,-3.7752,-3.8144,-3.7694,-3.7418,-3.7302,-3.7302,-3.6881,-3.6112,-3.5639,-3.5334,-3.5189,-3.4646,-3.423,-3.3942,-3.423,-3.4079,-3.3514,-3.377,-3.3701,-3.3269,-3.3269,-3.3318,-3.3452,0.0,0.0,0.0,-3.404,-3.4128,-3.4128,-3.4088,-3.402,-3.3985,-3.4034,0.0,-3.4,-3.3681,-3.3514,-3.3493,-3.3199,0.0,0.0,0.0,0.0,0.0,0.0,0.0,0.0,0.0,0.0,0.0,-3.3001,-3.296,-3.3713,-3.3205,-3.2948,-3.3169,-3.3276,-3.3622,-3.4355,-3.4498,-3.4535,-3.4494,-3.4494,-3.4269,-3.3822,-3.3744,-3.3509,-3.2934,-3.2424,-3.2111,-3.198,-3.1614,-3.1339,-3.1365,-3.1222,-3.1271,-3.1578,-3.1668,-3.1775,-3.2146,-3.2864,-3.3545,-3.3946,-3.4052,-3.3921,-3.3628,-3.3503,-3.3428,-3.3032,-3.3033,-3.3149,-3.2789,-3.3012,-3.3429,-3.3709,-3.3514,-3.3487,-3.432,-3.4228,-3.4661,-3.6759,-3.7389,-3.759,-4.2368,0.0,-4.1744,-4.1018,0.0,-3.977,-3.9291,-3.871,-3.8696,-3.8362,-3.7738,-3.7447,-3.7302,-3.7244,-3.6954,-3.6649,-3.6359,-3.638,-3.5996,-3.5323,-3.4816,-3.4568,-3.4485,-3.4051,-3.3701,-3.3444,-3.3701,-3.3667,-3.3339,-3.3479,-3.3409,-3.3164,-3.3164,-3.3199,-3.3297,-3.3297,-3.3452,-3.3744,-3.3612,-3.3632,-3.3701,-3.3646,-3.3556,-3.3452,0.0,0.0,0.0,0.0,0.0,0.0,0.0,0.0,0.0,0.0,0.0,-3.1431,-3.1749,-3.1861,-3.1784,-3.2215,-3.2564,-3.2647,-3.2349,-3.2394,-3.283,-3.2202,-3.2137,-3.2879,-3.2815,-3.3116,-3.4129,-3.4356,-3.4397,-3.4384,-3.4149,-3.3875,-3.3613,-3.3326,-3.2921,-3.2372,-3.1993,-3.1706,-3.1457,-3.1196,-3.1037,-3.1024,-3.1024,-3.1024,-3.1024,-3.1024,-3.1117,-3.1392,-3.1767,-3.2206,-3.2488,-3.2779,-3.2859,-3.2553,-3.2624,-3.2616,-3.2297,-3.2258,-3.22,-3.2055,-3.2273,-3.2648,-3.2782,-3.2753,-3.2836,-3.3193,-3.3225,-3.3522,-3.492,-3.557,-3.5976,-4.2542,-4.2092,-4.2092,-4.1323,-4.0104,-4.0104,-3.9378,-3.8188,0.0,0.0,0.0,-3.7172,-3.6823,-3.6301,-3.6286,-3.5952,-3.5421,-3.5357,-3.4975,-3.4312,-3.3991,-3.3701,-3.3563,-3.3374,-3.3115,-3.2846,-3.3094,-3.3143,-3.2988,-3.3058,-3.3094,-3.3072,-3.3037,-3.3037,-3.3129,-3.3164,-3.3248,-3.3312,-3.3143,-3.3058,-3.3234,-3.3129,-3.3023,-3.2846,-3.2761,-3.2654,-3.2475,-3.2453,-3.2417,-3.2381,-3.2005,-3.1726,-3.1519,-3.1086,-3.0761,-3.0572,-3.0725,-3.0899,-3.1109,-3.15,-3.1805,-3.1966,-3.1864,-3.1866,-3.1932,-3.1483,-3.1586,-3.2549,-3.2336,-3.2612,-3.362,-3.3931,-3.4056,-3.4056,-3.3692,-3.3404,-3.326,-3.2868,-3.2333,-3.1771,-3.1641,-3.1522,-3.1078,-3.1037,-3.1024,-3.1024,-3.1024,-3.1024,-3.1024,-3.1024,-3.0999,-3.1076,-3.1192,-3.1076,-3.1102,-3.1416,-3.1628,-3.1716,-3.1959,-3.2124,-3.2133,-3.2024,-3.1817,-3.1556,-3.1873,-3.1996,-3.1813,-3.2009,-3.22,-3.2237,-3.2453,-3.2682,-3.2895,-3.3528,-3.4185,-4.2179,-4.2092,-4.2092,-4.1323,-4.0104,-4.0104,-3.9378,-3.8173,-3.7651,-3.7389,-3.7273,-3.6693,-3.6402,-3.6286,-3.6286,-3.5952,-3.5407,-3.5218,-3.4767,0.0,-3.3971,-3.3681,-3.3339,-3.3304,-3.2917,-3.2309,-3.2632,-3.2467,-3.195,-3.2141,-3.2214,-3.2096,-3.1927,-3.2082,-3.2503,-3.2704,-3.2632,-3.2359,-3.2775,-3.3023,-3.3023,-3.2525,-3.2273,-3.2187,-3.1896,-3.17,-3.1663,-3.1394,-3.1235,-3.1235,-3.0848,-3.0558,-3.033,-3.0267,-3.0126,-2.9972,-3.0385,-3.066,-3.0687,-3.1178,-3.148,-3.1483,-3.1065,-3.0947,-3.129,-3.124,-3.1278,-3.1432,-3.1393,-3.1665,-3.2322,-3.2612,-3.2771,-3.2733,-3.2762,-3.2633,-3.2176,-3.2006,-3.1719,-3.1235,-3.1104,-3.1117,-3.1026,-3.1024,-3.1024,-3.1024,-3.1024,-3.1024,-3.1024,-3.1024,-3.1024,-3.1024,-3.1024,-3.1024,-3.0999,-3.1026,-3.1156,-3.1091,-3.1219,-3.132,-3.132,-3.129,-3.1235,-3.1136,-3.1235,-3.1272,-3.1347,-3.1384,-3.1569,-3.1693,-3.1986,-3.2277,-3.235,-3.2753,-3.3213,-4.2092,-4.2092,-4.2092,-4.1323,-4.0046,-3.9363,-3.8739,-3.8159,-3.7564,-3.7302,-3.7273,-3.6983,-3.6635,-3.628,-3.6086,-3.5892,-3.5689,-3.5124,-3.4604,-3.4122,-3.3633,-3.3093,-3.2503,-3.2395,-3.2046,-3.1421,-3.1629,-3.1593,-3.1362,-3.1713,-3.1872,-3.1772,-3.1494,-3.1374,-3.1431,-3.1502,-3.1553,-3.1519,-3.1982,-3.2128,-3.1909,-3.1629,-3.1482,-3.1482,-3.1334,-3.1259,-3.1209,-3.1086,-3.1024,-3.1024,-3.0634,-3.0368,-3.0267,-3.0049,-2.9895,-2.9804,-3.0306,-3.0482,-3.0181,-3.0382,-3.052,-3.052,-3.0306,-3.0234,-3.0417,-3.0417,-3.0556,-3.0835,-3.0939,-3.1286,-3.1862,-3.2127,-3.2247,-3.2247,-3.2029,-3.185,-3.1656,-3.1344,-3.1122,-3.1039,-3.1024,-3.1024,-3.1024,-3.1024,-3.1024,-3.1024,-3.1024,-3.1024,-3.1024,-3.1024,-3.1024,-3.1024,-3.1024,-3.1024,-3.1024,-3.1024,-3.1024,-3.1024,-3.1024,-3.1024,-3.1024,-3.1024,-3.1024,-3.1024,-3.1024,-3.1024,-3.1123,-3.1161,-3.1174,-3.1248,-3.1495,-3.1716,-3.1986,-3.2467,-3.2952,-4.2092,-4.2092,-4.2092,-4.1337,-4.0002,-3.8739,-3.8202,-3.8159,-3.7709,-3.7506,-3.7491,-3.7324,-3.6867,-3.6237,-3.5999,-3.589,-3.5688,-3.5036,-3.4511,-3.413,-3.3526,-3.282,-3.2182,-3.2019,-3.1695,-3.1226,-3.1302,-3.134,-3.1265,-3.1629,-3.1759,-3.1603,-3.1394,-3.1124,-3.0817,-3.0881,-3.0906,-3.0904,-3.1232,-3.1292,-3.1024,-3.0898,-3.0861,-3.0861,-3.0761,-3.0723,-3.0723,-3.0723,-3.0723,-3.0723,-3.0444,-3.0254,-3.0267,-2.9972,-2.9779,-2.9829,-3.0193,-3.0244,-2.9842,-2.9779,-2.9779,-2.9779,-2.9779,-2.9779,-2.9779,-2.9779,-2.9955,-3.0357,-3.0552,-3.0847,-3.1229,-3.1518,-3.1662,-3.1677,-3.1317,-3.1177,-3.1306,-3.0982,-3.0773,-3.0949,-3.1024,-3.1024,-3.1024,-3.1024,-3.1024,-3.1024,-3.1024,-3.1024,-3.1024,-3.1024,-3.1024,-3.1024,-3.1024,-3.1024,-3.1024,-3.1024,-3.1024,-3.1024,-3.1024,-3.1024,-3.1024,-3.1024,-3.1024,-3.1024,-3.1024,-3.1024,-3.1024,-3.1024,-3.1024,-3.1061,-3.1222,-3.1471,-3.1853,-3.2336,-3.2846,-4.2092,-4.2092,-4.2092,-4.1323,-4.0002,-3.8754,-3.8217,-3.8202,-3.813,-3.8115,-3.8028,-3.7364,-3.6699,-3.6144,-3.6413,-3.6088,-3.5259,-3.4929,-3.4564,-3.4128,-3.3927,-3.3569,-3.3089,-3.3102,-3.2908,-3.2463,-3.2398,-3.2096,-3.1791,-3.1919,-3.1756,-3.1433,-3.1663,-3.168,-3.1521,-3.1656,-3.1334,-3.0588,-3.0746,-3.0894,-3.0975,-3.0634,-3.0444,-3.0444,-3.0088,-2.9908,-2.9985,-2.9908,-2.9895,-2.9908,-2.9895,-2.9869,-2.9869,-2.983,-2.9779,-2.9792,-2.9854,-2.9842,-2.9792,-2.9779,-2.9779,-2.9779,-2.9779,-2.9779,-2.9779,-2.9779,-2.9817,-2.9892,-2.9931,-2.9981,-3.002,-3.0213,-3.0457,-3.065,-3.0573,-3.0636,-3.094,-3.0837,-3.0773,-3.0949,-3.0986,-3.1024,-3.0986,-3.1024,-3.1024,-3.1024,-3.1024,-3.1024,-3.1024,-3.1024,-3.1024,-3.1024,-3.1024,-3.1024,-3.1024,-3.1024,-3.1024,-3.1024,-3.1024,-3.1024,-3.1024,-3.1024,-3.1024,-3.1024,-3.1024,-3.1024,-3.1024,-3.1024,-3.1024,-3.1024,-3.1161,-3.1421,-3.1817,-3.2109,-3.2444,-4.2092,-4.2092,-4.2092,-4.1323,-4.0046,-3.916,-3.8565,-3.8217,-3.8202,-3.8202,-3.815,-3.7731,-3.7247,-3.6755,-3.6462,-3.6034,-3.5579,-3.5083,-3.4564,-3.4123,-3.3847,-3.3317,-3.2592,-3.2527,-3.2167,-3.1549,-3.1508,-3.1427,-3.1326,-3.156,-3.1626,-3.1459,-3.1363,-3.1173,-3.0902,-3.0989,-3.0704,-3.0183,-3.0238,-3.0136,-2.9933,-2.9998,-3.0049,-3.0049,-2.9895,-2.9779,-2.9779,-2.9779,-2.9779,-2.9779,-2.9779,-2.9779,-2.9779,-2.9779,-2.9779,-2.9779,-2.9779,-2.9779,-2.9779,-2.9779,-2.9779,-2.9779,-2.9779,-2.9779,-2.9779,-2.9779,-2.9779,-2.9779,-2.9779,-2.9779,-2.9792,-2.9856,-2.9972,-3.0049,-3.0037,-3.0152,-3.0406,-3.0432,-3.047,-3.0773,-3.0811,-3.0874,-3.0986,-3.1024,-3.1024,-3.1024,-3.1024,-3.1024,-3.1024,-3.1024,-3.1024,-3.1024,-3.1024,-3.1024,-3.1024,-3.1024,-3.1024,-3.1024,-3.1024,-3.1024,-3.1024,-3.1024,-3.1024,-3.1024,-3.1024,-3.1024,-3.1024,-3.1024,-3.1024,-3.1024,-3.1161,-3.1384,-3.1532,-3.1803,-3.2132,-4.2092,-4.2063,-4.1903,-4.1265,-4.0321,-3.9523,-3.889,-3.8402,-3.8214,-3.8104,-3.8014,-3.7763,-3.7457,-3.707,-3.6468,-3.6151,-3.5871,-3.5113,-3.4449,-3.4054,-3.3632,-3.3042,-3.2316,-3.225,-3.1962,-3.1422,-3.1418,-3.1321,-3.119,-3.1394,-3.159,-3.1547,-3.13,-3.1002,-3.0792,-3.0743,-3.0561,-3.0228,-3.0098,-2.9784,-2.9374,-2.9504,-2.9624,-2.9624,-2.9663,-2.9702,-2.9689,-2.974,-2.9779,-2.9702,-2.9689,-2.9663,-2.9624,-2.9636,-2.9624,-2.9702,-2.9702,-2.974,-2.9779,-2.9779,-2.9779,-2.9779,-2.9779,-2.9779,-2.9779,-2.9779,-2.9779,-2.9779,-2.9779,-2.9779,-2.9779,-2.9779,-2.9818,-2.9869,-2.983,-2.9895,-3.0152,-3.0139,-3.0228,-3.0546,-3.0609,-3.0698,-3.0874,-3.0949,-3.1024,-3.1024,-3.1024,-3.1024,-3.1024,-3.1024,-3.1024,-3.1024,-3.1024,-3.1024,-3.1024,-3.1024,-3.1024,-3.1024,-3.1024,-3.1024,-3.1024,-3.1024,-3.1024,-3.1024,-3.1024,-3.1024,-3.1024,-3.1024,-3.1024,-3.1024,-3.1136,-3.1235,-3.1347,-3.1582,-3.184,-4.2092,-4.199,-4.141,-4.1105,-4.0945,-3.9726,-3.9045,-3.8727,-3.8212,-3.7815,-3.761,-3.7264,-3.6954,-3.6783,-3.6626,-3.6389,-3.5871,-3.4895,-3.4204,-3.3749,-3.331,-3.3011,-3.2968,-3.2955,-3.2887,-3.2561,-3.2548,-3.2469,-3.2197,-3.1865,-3.1713,-3.1701,-3.1621,-3.1645,-3.1548,-3.1532,-3.1332,-3.0736,-3.0434,-3.0068,-2.9573,-2.9233,-2.9143,-2.9131,-2.9314,-2.9419,-2.9431,-2.9663,-2.9702,-2.9419,-2.9419,-2.9353,-2.917,-2.9143,-2.9248,-2.9392,-2.9419,-2.9509,-2.974,-2.9779,-2.9779,-2.9779,-2.9779,-2.9779,-2.9779,-2.9779,-2.9779,-2.9779,-2.9779,-2.9779,-2.9779,-2.9779,-2.9856,-3.0011,-2.9908,-2.9972,-3.0305,-3.019,-3.0177,-3.0368,-3.0482,-3.0609,-3.0736,-3.0874,-3.0986,-3.1024,-3.1024,-3.1024,-3.1024,-3.1024,-3.1024,-3.1024,-3.1024,-3.1024,-3.1024,-3.1024,-3.1024,-3.1024,-3.1024,-3.1024,-3.1024,-3.1024,-3.1024,-3.1024,-3.1024,-3.1024,-3.1024,-3.1024,-3.1024,-3.1024,-3.1024,-3.1099,-3.1198,-3.1272,-3.1495,-4.2092,-4.2034,-4.1366,-4.0858,-4.0365,-3.9552,-3.8933,-3.8437,-3.8205,-3.7991,-3.7777,-3.761,-3.738,-3.7017,-3.6175,-3.5669,-3.5399,-3.4701,-3.4314,-3.4092,-3.367,-3.3288,-3.2988,-3.2754,-3.245,-3.2176,-3.2176,-3.2089,-3.1981,-3.1761,-3.1705,-3.1705,-3.1705,-3.1705,-3.1657,-3.1368,-3.0903,-3.0417,-2.994,-2.9451,-2.898,-2.8754,-2.8709,-2.8749,-2.904,-2.9197,-2.9197,-2.9287,-2.93,-2.9236,-2.9197,-2.9157,-2.9091,-2.9104,-2.9131,-2.9197,-2.9341,-2.9419,-2.956,-2.9702,-2.9779,-2.9779,-2.9779,-2.9779,-2.9779,-2.9779,-2.9779,-2.9779,-2.9779,-2.9779,-2.9779,-2.9779,-2.9818,-2.9869,-2.9856,-2.9869,-2.9972,-3.0088,-3.019,-3.0368,-3.0596,-3.0836,-3.0836,-3.0949,-3.1024,-3.1024,-3.1024,-3.1024,-3.1024,-3.1024,-3.1024,-3.1024,-3.1024,-3.1024,-3.1024,-3.1024,-3.1024,-3.1024,-3.1024,-3.1024,-3.1024,-3.1024,-3.1024,-3.1024,-3.1024,-3.1024,-3.1024,-3.1024,-3.1024,-3.1024,-3.1024,-3.1024,-3.1099,-3.1123,-3.131,-4.2092,-4.202,-4.1599,-4.1033,-4.0379,-3.9755,-3.9093,-3.8446,-3.8191,-3.7967,-3.7739,-3.7649,-3.7419,-3.6954,-3.591,-3.5223,-3.4895,-3.4147,-3.3768,-3.3725,-3.3245,-3.2859,-3.2568,-3.2288,-3.2025,-3.1761,-3.1705,-3.1705,-3.1705,-3.1705,-3.1705,-3.1705,-3.1705,-3.1705,-3.1645,-3.1344,-3.0922,-3.035,-2.9821,-2.9304,-2.8823,-2.8595,-2.851,-2.855,-2.8788,-2.8922,-2.9,-2.9052,-2.9052,-2.9,-2.9013,-2.8973,-2.8934,-2.8895,-2.8934,-2.9,-2.9118,-2.9223,-2.9314,-2.9521,-2.965,-2.965,-2.9753,-2.9779,-2.9779,-2.9779,-2.9779,-2.9779,-2.9779,-2.9779,-2.9779,-2.9779,-2.9779,-2.9779,-2.9779,-2.9779,-2.9779,-2.9946,-3.0088,-3.0305,-3.0571,-3.0798,-3.0898,-3.0949,-3.0986,-3.1024,-3.1024,-3.1024,-3.1024,-3.1024,-3.1024,-3.1024,-3.1024,-3.1024,-3.1024,-3.1024,-3.1024,-3.1024,-3.1024,-3.1024,-3.1024,-3.1024,-3.1024,-3.1024,-3.1024,-3.1024,-3.1024,-3.1024,-3.1024,-3.1024,-3.1024,-3.1024,-3.1024,-3.1024,-3.1174,-4.2092,-4.2078,-4.2078,-4.1599,-4.096,-4.0292,-3.9609,-3.8875,-3.8246,-3.7801,-3.7508,-3.7123,-3.6875,-3.6536,-3.579,-3.5209,-3.4413,-3.3185,-3.2605,-3.2593,-3.2145,-3.1925,-3.1893,-3.1837,-3.1749,-3.1705,-3.1705,-3.1705,-3.1705,-3.1705,-3.1705,-3.1705,-3.1705,-3.1705,-3.1705,-3.1585,-3.1356,-3.079,-3.0194,-2.9713,-2.9292,-2.8751,-2.851,-2.851,-2.855,-2.8618,-2.8803,-2.8961,-2.8961,-2.8843,-2.8803,-2.8685,-2.859,-2.855,-2.8618,-2.8764,-2.8831,-2.8922,-2.9091,-2.9275,-2.9419,-2.9431,-2.965,-2.974,-2.974,-2.9779,-2.9779,-2.9779,-2.9779,-2.9779,-2.9779,-2.9779,-2.9779,-2.9779,-2.9779,-2.9779,-2.9792,-2.983,-2.9908,-3.0126,-3.0343,-3.0482,-3.0685,-3.0836,-3.0911,-3.0949,-3.0949,-3.0986,-3.0986,-3.1024,-3.1024,-3.1024,-3.1024,-3.1024,-3.1024,-3.1024,-3.1024,-3.1024,-3.1024,-3.1024,-3.1024,-3.1024,-3.1024,-3.1024,-3.1024,-3.1024,-3.1024,-3.1024,-3.1024,-3.1024,-3.1024,-3.1024,-3.1024,-3.1024,-3.1099,-4.2092,-4.2034,-4.1599,-4.1294,-4.1018,-4.0379,-3.9869,-3.947,-3.8681,-3.8228,-3.7777,-3.6937,-3.6336,-3.579,-3.484,-3.405,-3.3445,-3.245,-3.2232,-3.2624,-3.2376,-3.2169,-3.2113,-3.1837,-3.1705,-3.1705,-3.1705,-3.1705,-3.1705,-3.1705,-3.1705,-3.1705,-3.1705,-3.1705,-3.1681,-3.1344,-3.091,-3.0338,-2.9809,-2.9292,-2.8799,-2.8607,-2.851,-2.851,-2.851,-2.855,-2.8618,-2.8657,-2.8657,-2.8618,-2.8578,-2.859,-2.851,-2.851,-2.855,-2.8578,-2.8724,-2.8803,-2.8895,-2.9079,-2.9197,-2.9236,-2.9392,-2.9521,-2.956,-2.9702,-2.9779,-2.9779,-2.9779,-2.9779,-2.9779,-2.9779,-2.9779,-2.9779,-2.9779,-2.9779,-2.9779,-2.9908,-3.0075,-3.0267,-3.0368,-3.0444,-3.0482,-3.0596,-3.0672,-3.0811,-3.0811,-3.0849,-3.0949,-3.0986,-3.1024,-3.1024,-3.1024,-3.0986,-3.1024,-3.1024,-3.1024,-3.1024,-3.1024,-3.1024,-3.1024,-3.1024,-3.1024,-3.1024,-3.1024,-3.1024,-3.1024,-3.1024,-3.1024,-3.1024,-3.1024,-3.1024,-3.1024,-3.1024,-3.1099,-4.2092,-4.2049,-4.1642,-4.1308,-4.1076,-4.0626,-4.0257,-3.9852,-3.9319,-3.8742,-3.8102,-3.7167,-3.6303,-3.5575,-3.4551,-3.3755,-3.3129,-3.2438,-3.2307,-3.2494,-3.2276,-3.2113,-3.2113,-3.1849,-3.1705,-3.1705,-3.1705,-3.1705,-3.1705,-3.1705,-3.1705,-3.1705,-3.1705,-3.1705,-3.1693,-3.138,-3.0903,-3.0386,-2.9923,-2.9328,-2.8871,-2.8607,-2.851,-2.851,-2.851,-2.851,-2.851,-2.851,-2.851,-2.851,-2.851,-2.851,-2.851,-2.851,-2.851,-2.851,-2.8605,-2.8685,-2.8736,-2.8882,-2.9013,-2.9013,-2.9157,-2.9341,-2.9419,-2.9573,-2.965,-2.9792,-2.9779,-2.9779,-2.9779,-2.9779,-2.9779,-2.9779,-2.9779,-2.9779,-2.9818,-2.9895,-3.0049,-3.0228,-3.033,-3.0368,-3.0406,-3.0482,-3.052,-3.0698,-3.066,-3.066,-3.0836,-3.0874,-3.0911,-3.0911,-3.0986,-3.0986,-3.0986,-3.1024,-3.1024,-3.1024,-3.1024,-3.1024,-3.1024,-3.1024,-3.1024,-3.1024,-3.1024,-3.1024,-3.1024,-3.1024,-3.1024,-3.1024,-3.1024,-3.1024,-3.1024,-3.1024,-3.1024,-4.2092,-4.2092,-4.2078,-4.1715,-4.1236,-4.1163,-4.0818,-4.0242,-3.9833,-3.9145,-3.8277,-3.7274,-3.647,-3.5615,-3.4778,-3.4023,-3.3406,-3.3027,-3.2456,-3.1981,-3.1793,-3.1805,-3.1749,-3.1705,-3.1705,-3.1705,-3.1705,-3.1705,-3.1705,-3.1705,-3.1705,-3.1705,-3.1705,-3.1705,-3.1705,-3.1693,-3.138,-3.0795,-3.0302,-2.9773,-2.9244,-2.8763,-2.851,-2.851,-2.851,-2.851,-2.851,-2.851,-2.851,-2.851,-2.851,-2.851,-2.851,-2.851,-2.851,-2.851,-2.851,-2.851,-2.855,-2.8685,-2.8803,-2.8803,-2.9013,-2.9197,-2.9341,-2.947,-2.9599,-2.9792,-2.9779,-2.9779,-2.9779,-2.9779,-2.9779,-2.9779,-2.9779,-2.9779,-2.9779,-2.9792,-2.9895,-3.0075,-3.0216,-3.033,-3.0305,-3.0457,-3.0546,-3.0622,-3.0533,-3.0571,-3.0698,-3.0773,-3.0736,-3.0773,-3.0874,-3.0949,-3.0949,-3.1024,-3.1024,-3.1024,-3.1024,-3.1024,-3.1024,-3.1024,-3.1024,-3.1024,-3.1024,-3.1024,-3.1024,-3.1024,-3.1024,-3.1024,-3.1024,-3.1024,-3.1024,-3.0999,-3.1063,-4.2092,-4.2092,-4.2092,-4.199,-4.1845,-4.1831,-4.1633,-4.1126,-3.9995,-3.9115,-3.8062,-3.6503,-3.5701,-3.5093,-3.4439,-3.3802,-3.3364,-3.303,-3.2519,-3.1974,-3.1761,-3.1717,-3.1705,-3.1705,-3.1705,-3.1705,-3.1705,-3.1705,-3.1705,-3.1705,-3.1705,-3.1705,-3.1705,-3.1705,-3.1705,-3.1705,-3.144,-3.0879,-3.0362,-2.9869,-2.9352,-2.8835,-2.8522,-2.851,-2.8534,-2.8522,-2.851,-2.851,-2.851,-2.851,-2.851,-2.851,-2.851,-2.851,-2.851,-2.851,-2.851,-2.851,-2.851,-2.8538,-2.8578,-2.8618,-2.8895,-2.9131,-2.9197,-2.9495,-2.9702,-2.9779,-2.9779,-2.9779,-2.9779,-2.9779,-2.9779,-2.9779,-2.9779,-2.9779,-2.9779,-2.9779,-2.9818,-2.9869,-2.9934,-3.0011,-3.0011,-3.0088,-3.0203,-3.0381,-3.0406,-3.0406,-3.0546,-3.066,-3.066,-3.0698,-3.0773,-3.0874,-3.0949,-3.0986,-3.1024,-3.1024,-3.1024,-3.1024,-3.1024,-3.1024,-3.1024,-3.1024,-3.1024,-3.1024,-3.1024,-3.1024,-3.1024,-3.1024,-3.1078,-3.1117,-3.1039,-3.1026,-3.1078,-4.2092,-4.2092,-4.2092,-4.2092,-4.2092,-4.2092,-4.1995,-4.1645,-4.052,-3.9438,-3.8377,-3.6874,-3.5805,-3.5218,-3.4692,-3.4204,-3.3846,-3.3461,-3.3044,-3.2523,-3.2059,-3.1817,-3.1705,-3.1705,-3.1705,-3.1705,-3.1705,-3.1705,-3.1705,-3.1705,-3.1705,-3.1705,-3.1705,-3.1705,-3.1705,-3.1705,-3.1573,-3.1211,-3.0687,-3.0242,-2.9941,-2.9448,-2.922,-2.9112,-2.8979,-2.8775,-2.857,-2.851,-2.851,-2.851,-2.851,-2.851,-2.851,-2.851,-2.851,-2.851,-2.851,-2.851,-2.851,-2.851,-2.851,-2.855,-2.8803,-2.8961,-2.9131,-2.9456,-2.965,-2.9792,-2.9792,-2.9779,-2.9779,-2.9779,-2.9779,-2.9779,-2.9779,-2.9779,-2.9779,-2.9779,-2.9779,-2.9818,-2.9856,-2.9869,-2.983,-2.9869,-3.0011,-3.019,-3.0152,-3.0267,-3.0394,-3.0508,-3.0571,-3.0609,-3.0736,-3.0849,-3.0911,-3.0949,-3.0949,-3.0949,-3.1024,-3.1024,-3.1052,-3.1039,-3.1024,-3.1024,-3.1024,-3.1024,-3.1024,-3.1024,-3.1024,-3.1026,-3.1156,-3.1274,-3.1261,-3.1196,-3.1235,-4.2092,-4.2092,-4.2092,-4.2092,-4.2092,-4.2092,-4.2092,-4.1912,-4.1001,-3.9982,-3.887,-3.7748,-3.6478,-3.5684,-3.5206,-3.4949,-3.471,-3.4301,-3.374,-3.3138,-3.2564,-3.2095,-3.1886,-3.1741,-3.1717,-3.1705,-3.1705,-3.1705,-3.1705,-3.1705,-3.1705,-3.1705,-3.1705,-3.1705,-3.1705,-3.1705,-3.1705,-3.156,-3.1048,-3.0814,-3.0633,-3.0182,-2.9893,-2.9833,-2.9569,-2.922,-2.8895,-2.8703,-2.8643,-2.8607,-2.8507,-2.851,-2.851,-2.851,-2.851,-2.851,-2.851,-2.851,-2.851,-2.851,-2.851,-2.855,-2.8736,-2.8882,-2.9091,-2.9365,-2.9599,-2.9792,-2.9779,-2.9779,-2.9779,-2.9779,-2.9779,-2.9779,-2.9779,-2.9779,-2.9779,-2.9779,-2.9779,-2.9779,-2.9972,-2.9934,-2.9895,-2.9946,-3.01,-3.0393,-3.0278,-3.0228,-3.033,-3.0407,-3.0432,-3.0444,-3.0609,-3.0849,-3.0874,-3.0874,-3.0874,-3.0874,-3.0986,-3.1013,-3.1182,-3.1169,-3.1039,-3.1024,-3.1024,-3.1024,-3.1024,-3.1024,-3.1076,-3.1039,-3.1143,-3.1418,-3.1588,-3.1522,-3.1509,-4.2092,-4.2092,-4.2092,-4.2092,-4.2092,-4.2092,-4.2092,-4.1995,-4.0887,-3.9809,-3.8737,-3.7431,-3.6528,-3.5844,-3.5595,-3.5274,-3.5157,-3.4935,-3.4456,-3.3527,-3.3138,-3.2694,-3.2304,-3.1958,-3.1729,-3.1717,-3.1705,-3.1705,-3.1705,-3.1705,-3.1705,-3.1705,-3.1705,-3.1705,-3.1705,-3.1705,-3.1705,-3.1621,-3.1199,-3.0939,-3.0886,-3.047,-3.0182,-3.0134,-2.9989,-2.9881,-2.9689,-2.934,-2.9136,-2.9039,-2.8763,-2.857,-2.8522,-2.851,-2.851,-2.851,-2.851,-2.851,-2.851,-2.851,-2.851,-2.855,-2.8816,-2.9052,-2.9091,-2.9456,-2.9702,-2.9779,-2.9779,-2.9779,-2.9779,-2.9779,-2.9779,-2.9779,-2.9779,-2.9779,-2.9779,-2.9779,-2.9779,-2.9779,-2.9818,-2.9882,-2.9817,-2.9893,-3.0136,-3.0518,-3.0493,-3.0328,-3.0316,-3.0329,-3.0318,-3.0343,-3.0688,-3.093,-3.1007,-3.1123,-3.1316,-3.1303,-3.1327,-3.1352,-3.1509,-3.147,-3.1418,-3.1209,-3.1024,-3.1089,-3.1339,-3.1182,-3.1274,-3.1209,-3.1248,-3.1601,-3.1862,-3.1797,-3.198,-4.2092,-4.2092,-4.2092,-4.2092,-4.2092,-4.2092,-4.2092,-4.1829,-4.073,-3.9788,-3.8962,-3.7706,-3.6765,-3.6278,-3.6105,-3.5965,-3.5703,-3.5444,-3.4882,-3.4096,-3.3689,-3.3186,-3.2569,-3.2202,-3.1949,-3.1789,-3.1705,-3.1705,-3.1705,-3.1729,-3.1705,-3.1705,-3.1717,-3.1705,-3.1705,-3.1705,-3.1705,-3.1681,-3.1452,-3.1296,-3.118,-3.1043,-3.0651,-3.0506,-3.0477,-3.0405,-3.005,-2.9833,-2.9689,-2.9544,-2.9172,-2.8751,-2.8546,-2.851,-2.851,-2.851,-2.851,-2.851,-2.851,-2.851,-2.851,-2.8522,-2.8867,-2.9064,-2.9221,-2.9546,-2.9753,-2.9779,-2.9779,-2.9779,-2.9779,-2.9779,-2.9779,-2.9779,-2.9779,-2.9779,-2.9779,-2.9779,-2.9779,-2.9779,-2.9779,-2.9967,-3.0043,-3.0118,-3.0446,-3.0943,-3.0651,-3.0475,-3.0402,-3.0378,-3.0228,-3.033,-3.0753,-3.1048,-3.1164,-3.141,-3.1824,-3.1954,-3.2071,-3.2084,-3.2176,-3.2045,-3.1875,-3.1718,-3.1614,-3.181,-3.2006,-3.1784,-3.1705,-3.1967,-3.211,-3.2123,-3.2333,-3.2777,-3.2894,-4.2092,-4.2092,-4.2092,-4.2092,-4.2092,-4.2092,-4.2092,-4.187,-4.073,-4.0041,-3.9428,-3.8213,-3.7356,-3.6837,-3.6684,-3.6568,-3.6267,-3.5909,-3.5273,-3.4764,-3.4367,-3.379,-3.3116,-3.2653,-3.2355,-3.1958,-3.1934,-3.1922,-3.2018,-3.1862,-3.1946,-3.1849,-3.1717,-3.1717,-3.1705,-3.1705,-3.1705,-3.1693,-3.1657,-3.1633,-3.1645,-3.1597,-3.1368,-3.1084,-3.1031,-3.0874,-3.0573,-3.0314,-3.0206,-3.0182,-2.9701,-2.9184,-2.8763,-2.8522,-2.8582,-2.8607,-2.8595,-2.8595,-2.8667,-2.8634,-2.8602,-2.865,-2.8946,-2.9131,-2.9248,-2.9534,-2.974,-2.9779,-2.9779,-2.9779,-2.9779,-2.9779,-2.9779,-2.9779,-2.9779,-2.9779,-2.9779,-2.9792,-2.9817,-2.998,-3.0055,-3.0218,-3.0457,-3.0608,-3.0972,-3.121,-3.0934,-3.0746,-3.066,-3.0576,-3.0529,-3.0634,-3.1084,-3.1356,-3.1499,-3.1641,-3.2057,-3.2345,-3.2528,-3.2672,-3.2737,-3.2738,-3.2607,-3.2489,-3.2463,-3.2568,-3.2529,-3.2346,-3.2424,-3.2777,-3.2764,-3.2568,-3.3051,-3.3783,-3.3666,-4.2092,-4.2092,-4.2092,-4.2092,-4.2092,-4.2092,-4.2092,-4.1953,-4.1156,-4.0502,-3.9807,-3.8845,-3.7815,-3.7201,-3.6769,-3.6581,-3.6402,-3.6169,-3.5981,-3.5575,-3.5142,-3.4573,-3.3876,-3.3235,-3.2901,-3.2873,-3.2659,-3.2599,-3.2683,-3.2623,-3.2178,-3.2202,-3.1922,-3.1717,-3.1705,-3.1705,-3.1705,-3.1705,-3.1705,-3.1705,-3.1705,-3.1705,-3.1681,-3.15,-3.1476,-3.1428,-3.132,-3.0995,-3.079,-3.0687,-3.023,-2.9725,-2.9304,-2.8895,-2.8823,-2.8943,-2.8835,-2.8835,-2.9063,-2.8935,-2.904,-2.9269,-2.9462,-2.9413,-2.9466,-2.9674,-2.9955,-2.9842,-2.9817,-2.9779,-2.9779,-2.9779,-2.9804,-2.9792,-2.9842,-2.9867,-2.988,-2.9942,-3.0156,-3.052,-3.0545,-3.0507,-3.0771,-3.1085,-3.1461,-3.1625,-3.1461,-3.1461,-3.1512,-3.1339,-3.1168,-3.1299,-3.1559,-3.1745,-3.1879,-3.197,-3.2232,-3.2508,-3.2745,-3.3061,-3.3193,-3.3404,-3.3365,-3.3195,-3.2999,-3.2894,-3.2855,-3.2868,-3.2921,-3.3143,-3.3051,-3.2947,-3.3365,-3.3796,-3.3705,-4.2092,-4.2092,-4.2092,-4.2092,-4.2092,-4.2092,-4.2092,-4.1912,-4.0986,-4.0286,-3.9733,-3.8782,-3.792,-3.7353,-3.7015,-3.6734,-3.6452,-3.6417,-3.6241,-3.5963,-3.573,-3.5125,-3.4529,-3.3825,-3.3803,-3.3748,-3.3463,-3.3056,-3.2839,-3.2298,-3.2178,-3.1997,-3.1813,-3.1717,-3.1705,-3.1705,-3.1705,-3.1705,-3.1705,-3.1705,-3.1705,-3.1705,-3.1705,-3.1705,-3.1705,-3.1705,-3.1657,-3.1512,-3.1332,-3.1223,-3.0814,-3.0597,-3.0308,-2.9821,-2.9316,-2.9328,-2.9292,-2.9388,-2.9682,-2.9629,-2.98,-2.9963,-3.0133,-3.026,-3.0328,-3.0473,-3.0444,-3.0218,-2.988,-2.9779,-2.9779,-2.9829,-2.993,-3.0156,-3.0218,-3.0331,-3.0507,-3.057,-3.0846,-3.1122,-3.0884,-3.0859,-3.111,-3.1474,-3.1913,-3.2001,-3.1926,-3.2064,-3.2265,-3.1976,-3.1678,-3.1773,-3.1943,-3.2311,-3.2447,-3.2526,-3.2554,-3.277,-3.2998,-3.3273,-3.3539,-3.3697,-3.3847,-3.3809,-3.36,-3.3338,-3.3587,-3.3731,-3.3626,-3.3522,-3.3626,-3.3679,-3.3639,-3.3679,-3.3692,-4.2092,-4.2092,-4.2092,-4.2092,-4.2092,-4.2092,-4.2051,-4.1704,-4.073,-4.0083,-3.9703,-3.8679,-3.7933,-3.7505,-3.7108,-3.6769,-3.6417,-3.6417,-3.6275,-3.6133,-3.6061,-3.554,-3.4938,-3.4623,-3.4574,-3.4565,-3.3929,-3.3632,-3.3317,-3.2572,-3.2151,-3.2102,-3.197,-3.1705,-3.1705,-3.1705,-3.1705,-3.1705,-3.1705,-3.1705,-3.1705,-3.1705,-3.1705,-3.1705,-3.1705,-3.1705,-3.1693,-3.1669,-3.1645,-3.1548,-3.1344,-3.1187,-3.1344,-3.0838,-3.0182,-2.9785,-2.9983,-3.0074,-3.029,-3.0259,-3.0365,-3.0655,-3.0914,-3.1071,-3.1082,-3.0979,-3.0947,-3.0633,-3.0294,-3.0105,-3.0231,-3.0168,-3.0369,-3.0608,-3.0783,-3.0884,-3.111,-3.1248,-3.1311,-3.1361,-3.1148,-3.1273,-3.1574,-3.1951,-3.2403,-3.2328,-3.2252,-3.2441,-3.2566,-3.234,-3.2131,-3.2147,-3.2369,-3.2849,-3.3047,-3.3085,-3.3131,-3.3164,-3.3315,-3.3489,-3.3772,-3.4014,-3.4046,-3.4038,-3.4105,-3.3921,-3.4249,-3.4397,-3.4136,-3.4058,-3.4293,-3.4306,-3.4084,-3.4058,-3.411,-4.2092,-4.2092,-4.2092,-4.2092,-4.2092,-4.2092,-4.1885,-4.148,-4.1015,-4.0286,-3.9469,-3.8908,-3.8213,-3.7539,-3.6956,-3.6628,-3.6452,-3.6417,-3.6358,-3.6323,-3.6275,-3.6096,-3.5709,-3.531,-3.5236,-3.5192,-3.4285,-3.4276,-3.4193,-3.3508,-3.302,-3.2851,-3.2175,-3.1741,-3.1825,-3.1741,-3.1705,-3.1705,-3.1705,-3.1705,-3.1705,-3.1705,-3.1705,-3.1705,-3.1705,-3.1705,-3.1705,-3.1705,-3.1705,-3.1693,-3.1657,-3.1404,-3.1163,-3.1404,-3.1187,-3.0778,-3.041,-3.0278,-3.0669,-3.0707,-3.0857,-3.1179,-3.1302,-3.124,-3.1364,-3.1157,-3.0934,-3.067,-3.0532,-3.067,-3.0922,-3.111,-3.1223,-3.126,-3.1311,-3.1348,-3.1512,-3.1863,-3.1938,-3.1938,-3.1813,-3.1926,-3.2152,-3.2516,-3.2842,-3.2704,-3.2641,-3.2805,-3.2855,-3.2629,-3.2571,-3.2558,-3.2588,-3.2988,-3.3186,-3.3288,-3.3356,-3.3428,-3.3513,-3.3598,-3.3725,-3.3852,-3.3949,-3.3982,-3.4118,-3.4202,-3.4285,-3.4356,-3.4356,-3.4397,-3.4397,-3.4397,-3.4371,-3.4397,-3.4397,-4.2092,-4.2092,-4.2092,-4.2092,-4.2092,-4.2092,-4.2009,-4.1647,-4.0916,-4.0272,-3.9601,-3.8787,-3.8018,-3.7353,-3.7002,-3.6734,-3.6465,-3.6417,-3.6417,-3.6417,-3.637,-3.6241,-3.6001,-3.5779,-3.5746,-3.559,-3.518,-3.4988,-3.4942,-3.4146,-3.3296,-3.3188,-3.2575,-3.2166,-3.207,-3.1849,-3.1741,-3.1705,-3.1705,-3.1705,-3.1705,-3.1705,-3.1705,-3.1705,-3.1705,-3.1705,-3.1705,-3.1705,-3.1705,-3.1705,-3.1705,-3.1621,-3.1464,-3.156,-3.156,-3.1404,-3.1175,-3.1163,-3.1308,-3.1288,-3.1552,-3.1853,-3.1999,-3.2162,-3.2185,-3.1813,-3.1474,-3.1537,-3.1223,-3.1235,-3.1361,-3.1373,-3.1599,-3.1725,-3.1851,-3.2064,-3.2164,-3.2328,-3.2516,-3.2503,-3.2491,-3.2528,-3.2579,-3.2767,-3.298,-3.2918,-3.2842,-3.293,-3.3048,-3.2986,-3.2948,-3.2998,-3.2998,-3.3116,-3.3129,-3.3154,-3.3197,-3.3283,-3.3398,-3.3484,-3.3513,-3.3641,-3.3738,-3.3865,-3.3992,-3.4118,-3.4202,-3.4314,-3.4397,-3.4397,-3.4397,-3.4397,-3.4397,-3.4397,-3.4397,-4.2092,-4.2092,-4.2092,-4.2092,-4.2092,-4.2092,-4.2009,-4.1787,-4.0845,-4.0199,-3.9601,-3.8666,-3.7756,-3.7294,-3.7108,-3.6875,-3.6499,-3.6417,-3.6417,-3.6417,-3.637,-3.6275,-3.6181,-3.6073,-3.6061,-3.6111,-3.5726,-3.5595,-3.5182,-3.453,-3.3811,-3.3464,-3.2984,-3.2731,-3.2551,-3.2214,-3.1934,-3.1705,-3.1705,-3.1705,-3.1705,-3.1705,-3.1705,-3.1705,-3.1705,-3.1705,-3.1705,-3.1705,-3.1705,-3.1705,-3.1705,-3.1681,-3.1657,-3.1669,-3.1705,-3.1621,-3.1592,-3.1672,-3.1765,-3.1816,-3.2113,-3.2388,-3.2612,-3.2671,-3.2624,-3.2416,-3.219,-3.2077,-3.1825,-3.17,-3.1788,-3.1876,-3.2089,-3.2328,-3.2441,-3.2742,-3.293,-3.2898,-3.286,-3.2847,-3.286,-3.2948,-3.2998,-3.3048,-3.3111,-3.3124,-3.3124,-3.3124,-3.3124,-3.3124,-3.3124,-3.3124,-3.3124,-3.3124,-3.3124,-3.3124,-3.3124,-3.3124,-3.3283,-3.3326,-3.3356,-3.3398,-3.3484,-3.3654,-3.3823,-3.3894,-3.3937,-3.4189,-3.4397,-3.4397,-3.4397,-3.4397,-3.4397,-3.4397,-3.4397,-4.2092,-4.2092,-4.2092,-4.2092,-4.2092,-4.2092,-4.1885,-4.1522,-4.0915,-4.0126,-3.9261,-3.8421,-3.7782,-3.7459,-3.7168,-3.6968,-3.6675,-3.6487,-3.6405,-3.6417,-3.6417,-3.637,-3.6323,-3.6323,-3.631,-3.6275,-3.6098,-3.586,-3.5596,-3.5257,-3.4545,-3.3982,-3.3477,-3.3296,-3.3032,-3.2623,-3.213,-3.1898,-3.1765,-3.1705,-3.1705,-3.1705,-3.1705,-3.1705,-3.1705,-3.1705,-3.1705,-3.1705,-3.1705,-3.1705,-3.1705,-3.1705,-3.1705,-3.1705,-3.1705,-3.1705,-3.1849,-3.1906,-3.195,-3.1994,-3.2169,-3.2431,-3.2698,-3.2875,-3.2629,-3.2378,-3.224,-3.2303,-3.2215,-3.239,-3.2667,-3.2998,-3.2767,-3.2767,-3.2792,-3.288,-3.3074,-3.3074,-3.3048,-3.3099,-3.3124,-3.3124,-3.3124,-3.3124,-3.3124,-3.3124,-3.3124,-3.3124,-3.3124,-3.3124,-3.3124,-3.3124,-3.3124,-3.3124,-3.3124,-3.3124,-3.3124,-3.3124,-3.3167,-3.321,-3.3167,-3.324,-3.3326,-3.3411,-3.3569,-3.3598,-3.3725,-3.3979,-3.4189,-3.4314,-3.4397,-3.4356,-3.4356,-3.4356,-3.4356,-4.2092,-4.2092,-4.2092,-4.2092,-4.2092,-4.2092,-4.2009,-4.1704,-4.1001,-4.0009,-3.8872,-3.8317,-3.7861,-3.7492,-3.7214,-3.6956,-3.6722,-3.6499,-3.6417,-3.6417,-3.6417,-3.6417,-3.6417,-3.6417,-3.6417,-3.637,-3.6275,-3.5991,-3.562,-3.562,-3.5198,-3.4546,-3.3982,-3.3766,-3.349,-3.302,-3.2466,-3.2154,-3.1853,-3.1717,-3.1705,-3.1705,-3.1705,-3.1705,-3.1705,-3.1705,-3.1705,-3.1705,-3.1705,-3.1705,-3.1705,-3.1705,-3.1705,-3.1705,-3.1705,-3.1749,-3.1893,-3.1994,-3.2081,-3.2169,-3.2344,-3.255,-3.2896,-3.3011,-3.2692,-3.2729,-3.2742,-3.2797,-3.2704,-3.2855,-3.3011,-3.3099,-3.3061,-3.3111,-3.3124,-3.3124,-3.3124,-3.3124,-3.3124,-3.3124,-3.3124,-3.3124,-3.3124,-3.3124,-3.3124,-3.3124,-3.3124,-3.3124,-3.3124,-3.3124,-3.3124,-3.3124,-3.3124,-3.3124,-3.3124,-3.3124,-3.3124,-3.3124,-3.3124,-3.3124,-3.3124,-3.3124,-3.321,-3.324,-3.3326,-3.3441,-3.3611,-3.381,-3.3937,-3.4063,-3.4189,-3.4285,-3.4285,-3.4272,-3.4272,-4.2092,-4.2092,-4.2092,-4.2092,-4.2092,-4.2092,-4.2092,-4.1912,-4.11,-3.9908,-3.8602,-3.8304,-3.7998,-3.7598,-3.7248,-3.7015,-3.6781,-3.6559,-3.6465,-3.6417,-3.6417,-3.6417,-3.6417,-3.6417,-3.6417,-3.6417,-3.637,-3.6133,-3.5764,-3.5908,-3.5488,-3.4981,-3.4595,-3.4366,-3.403,-3.3418,-3.2827,-3.2454,-3.2178,-3.1825,-3.1777,-3.1705,-3.1705,-3.1705,-3.1705,-3.1705,-3.1705,-3.1705,-3.1705,-3.1705,-3.1705,-3.1705,-3.1705,-3.1705,-3.1705,-3.1793,-3.1937,-3.2081,-3.2169,-3.2344,-3.2605,-3.281,-3.2939,-3.3068,-3.3124,-3.3124,-3.3036,-3.3061,-3.3086,-3.3149,-3.3162,-3.3124,-3.3124,-3.3124,-3.3124,-3.3124,-3.3124,-3.3124,-3.3124,-3.3124,-3.3124,-3.3124,-3.3136,-3.3149,-3.3199,-3.3174,-3.3124,-3.3124,-3.3124,-3.3124,-3.3124,-3.3124,-3.3124,-3.3124,-3.3124,-3.3124,-3.3124,-3.3124,-3.3124,-3.3124,-3.3124,-3.3124,-3.3124,-3.3167,-3.324,-3.3283,-3.3411,-3.3484,-3.3611,-3.3725,-3.3894,-3.4021,-3.4021,-3.3979,-3.4021,-4.2092,-4.2092,-4.2092,-4.2092,-4.2092,-4.2092,-4.2092,-4.1953,-4.1086,-3.9908,-3.8679,-3.8349,-3.8089,-3.7795,-3.74,-3.7108,-3.6968,-3.664,-3.6405,-3.6405,-3.6417,-3.6417,-3.6417,-3.6417,-3.6417,-3.6417,-3.637,-3.6228,-3.5968,-3.6051,-3.5716,-3.5332,-3.5017,-3.4897,-3.4727,-3.421,-3.3454,-3.2683,-3.2575,-3.2214,-3.1922,-3.1837,-3.1837,-3.1705,-3.1705,-3.1705,-3.1705,-3.1705,-3.1705,-3.1705,-3.1705,-3.1705,-3.1705,-3.1705,-3.1705,-3.1749,-3.2125,-3.2356,-3.2444,-3.2605,-3.2822,-3.2995,-3.3081,-3.3124,-3.3124,-3.3149,-3.3237,-3.3294,-3.3294,-3.3287,-3.3224,-3.3224,-3.3312,-3.3275,-3.33,-3.325,-3.3262,-3.3312,-3.335,-3.3174,-3.3124,-3.3124,-3.3149,-3.3144,-3.3206,-3.3194,-3.3149,-3.3149,-3.3212,-3.3124,-3.3136,-3.3124,-3.3124,-3.3124,-3.3124,-3.3124,-3.3124,-3.3124,-3.3124,-3.3124,-3.3124,-3.3124,-3.3124,-3.3124,-3.3167,-3.3197,-3.3167,-3.3167,-3.3326,-3.3484,-3.3641,-3.3725,-3.3725,-3.3768,-3.381,-4.2092,-4.2092,-4.2092,-4.2092,-4.2092,-4.2092,-4.2092,-4.1926,-4.11,-3.9982,-3.8935,-3.8589,-3.8317,-3.7998,-3.7598,-3.7261,-3.7062,-3.6815,-3.6581,-3.6405,-3.6417,-3.6417,-3.6417,-3.6417,-3.6417,-3.6417,-3.6358,-3.6275,-3.6015,-3.6146,-3.5943,-3.556,-3.5223,-3.503,-3.4727,-3.4282,-3.373,-3.3466,-3.32,-3.2767,-3.2298,-3.2202,-3.2058,-3.1789,-3.1753,-3.1753,-3.1717,-3.1705,-3.1705,-3.1705,-3.1705,-3.1705,-3.1705,-3.1705,-3.1805,-3.1893,-3.2269,-3.2574,-3.2748,-3.2952,-3.2995,-3.3106,-3.3174,-3.3187,-3.3093,-3.3445,-3.3558,-3.3709,-3.3884,-3.3985,-3.4198,-3.4198,-3.4173,-3.3859,-3.3759,-3.3583,-3.3545,-3.3621,-3.3621,-3.33,-3.3124,-3.3345,-3.3458,-3.3646,-3.3721,-3.3696,-3.3671,-3.3533,-3.3545,-3.3287,-3.3149,-3.3136,-3.3124,-3.3124,-3.3124,-3.3162,-3.3136,-3.3124,-3.3124,-3.3124,-3.3124,-3.3124,-3.3124,-3.3124,-3.3124,-3.3124,-3.3124,-3.3124,-3.3167,-3.3283,-3.3398,-3.3569,-3.3598,-3.3598,-3.3598,-4.2092,-4.2092,-4.2092,-4.2092,-4.2092,-4.2092,-4.1968,-4.1536,-4.0787,-3.9851,-3.8997,-3.8679,-3.8453,-3.8135,-3.7736,-3.7459,-3.7201,-3.6968,-3.6722,-3.6534,-3.6499,-3.6452,-3.6417,-3.6417,-3.6417,-3.6417,-3.6417,-3.6275,-3.6193,-3.631,-3.6073,-3.5608,-3.5284,-3.4981,-3.4715,-3.445,-3.4162,-3.391,-3.3597,-3.3296,-3.2923,-3.2707,-3.2548,-3.2154,-3.1961,-3.1889,-3.1777,-3.1717,-3.1705,-3.1705,-3.1705,-3.1761,-3.1761,-3.1849,-3.1937,-3.2125,-3.2388,-3.2692,-3.2952,-3.3081,-3.3169,-3.3407,-3.3357,-3.337,-3.3458,-3.3884,-3.4098,-3.4311,-3.453,-3.4618,-3.468,-3.4718,-3.4593,-3.4311,-3.4248,-3.4073,-3.3985,-3.4073,-3.3872,-3.3495,-3.3257,-3.3533,-3.3884,-3.4148,-3.4349,-3.4311,-3.4261,-3.411,-3.3972,-3.3696,-3.3476,-3.3426,-3.3382,-3.3445,-3.3357,-3.3181,-3.3156,-3.3136,-3.3162,-3.3199,-3.3124,-3.3124,-3.3124,-3.3124,-3.3124,-3.3124,-3.3124,-3.3124,-3.3124,-3.3167,-3.3197,-3.3368,-3.3484,-3.3484,-3.3398,-4.2092,-4.2092,-4.2092,-4.2092,-4.2092,-4.2009,-4.148,-4.0688,-4.0227,-3.9631,-3.8908,-3.8724,-3.8498,-3.8181,-3.7736,-3.7505,-3.7413,-3.7214,-3.6922,-3.6769,-3.6675,-3.6546,-3.6452,-3.6417,-3.6417,-3.6417,-3.6417,-3.6417,-3.637,-3.6417,-3.6121,-3.5608,-3.5223,-3.4981,-3.4848,-3.4715,-3.4438,-3.4198,-3.4066,-3.3777,-3.3416,-3.3284,-3.2996,-3.2659,-3.2418,-3.2166,-3.1982,-3.1777,-3.1729,-3.1749,-3.1749,-3.1874,-3.1974,-3.2062,-3.2206,-3.2486,-3.2742,-3.2965,-3.3138,-3.3219,-3.34,-3.3658,-3.3872,-3.3897,-3.4073,-3.4387,-3.46,-3.4726,-3.4889,-3.4806,-3.4793,-3.4806,-3.4806,-3.4718,-3.4718,-3.4605,-3.4537,-3.4412,-3.4161,-3.3859,-3.3558,-3.3721,-3.4223,-3.4517,-3.4926,-3.5152,-3.5064,-3.4738,-3.4587,-3.4424,-3.4161,-3.3922,-3.3935,-3.3935,-3.3796,-3.3646,-3.3445,-3.347,-3.3319,-3.3307,-3.325,-3.3149,-3.3124,-3.3124,-3.3124,-3.3124,-3.3124,-3.3124,-3.3124,-3.3124,-3.3179,-3.3167,-3.3326,-3.324,-3.3222,-4.2092,-4.2092,-4.2092,-4.2092,-4.1995,-4.1396,-4.0915,-4.0645,-4.0227,-3.9689,-3.9158,-3.8769,-3.8557,-3.8466,-3.7979,-3.7703,-3.7551,-3.7366,-3.7062,-3.6909,-3.6769,-3.6581,-3.6439,-3.6405,-3.6417,-3.6417,-3.6417,-3.6417,-3.6417,-3.6417,-3.6133,-3.5608,-3.5368,-3.5126,-3.4872,-3.4775,-3.4643,-3.4546,-3.4486,-3.4198,-3.3958,-3.3825,-3.3501,-3.3176,-3.2719,-3.2442,-3.2226,-3.1862,-3.1809,-3.193,-3.1906,-3.2147,-3.2832,-3.2901,-3.3052,-3.3727,-3.3707,-3.3627,-3.3596,-3.3307,-3.3395,-3.3985,-3.4274,-3.4462,-3.4625,-3.4914,-3.5094,-3.519,-3.5391,-3.5479,-3.5378,-3.5303,-3.5303,-3.5303,-3.5278,-3.519,-3.509,-3.4893,-3.4675,-3.4336,-3.4035,-3.4267,-3.4731,-3.509,-3.5479,-3.5855,-3.5881,-3.5491,-3.5215,-3.5064,-3.4813,-3.4562,-3.4487,-3.4487,-3.4462,-3.4336,-3.4048,-3.3822,-3.3721,-3.3558,-3.3382,-3.3282,-3.3187,-3.3149,-3.3187,-3.3162,-3.3124,-3.3124,-3.3136,-3.3149,-3.3149,-3.3136,-3.3124,-3.3174,-3.3224,-4.2092,-4.2092,-4.2092,-4.2092,-4.1912,-4.11,-4.0702,-4.0573,-3.9996,-3.9526,-3.9261,-3.8814,-3.8615,-3.8512,-3.8116,-3.7795,-3.769,-3.7657,-3.7459,-3.7155,-3.6862,-3.6722,-3.6581,-3.6452,-3.6417,-3.6417,-3.6417,-3.6417,-3.637,-3.6228,-3.5991,-3.5608,-3.5524,-3.5175,-3.492,-3.4775,-3.4775,-3.4739,-3.4703,-3.457,-3.4414,-3.4258,-3.403,-3.3597,-3.308,-3.2779,-3.2466,-3.203,-3.1938,-3.2224,-3.2329,-3.2775,-3.3486,-3.3756,-3.3883,-3.4362,-3.4302,-3.4191,-3.4173,-3.3985,-3.411,-3.4437,-3.4781,-3.5127,-3.5403,-3.5692,-3.5667,-3.5655,-3.6053,-3.6267,-3.6019,-3.5855,-3.5868,-3.5868,-3.5793,-3.5717,-3.5617,-3.547,-3.5169,-3.4806,-3.4831,-3.5082,-3.5382,-3.5646,-3.5918,-3.6132,-3.6267,-3.6056,-3.5843,-3.573,-3.5429,-3.5069,-3.5019,-3.5006,-3.5027,-3.4926,-3.4587,-3.4336,-3.4274,-3.4073,-3.3746,-3.3696,-3.3771,-3.3533,-3.3232,-3.3232,-3.33,-3.3174,-3.3149,-3.3262,-3.3458,-3.3596,-3.3533,-3.335,-3.337,-4.2092,-4.2092,-4.2092,-4.2092,-4.1953,-4.1185,-4.0759,-4.0616,-3.9821,-3.9336,-3.9203,-3.8814,-3.8647,-3.8512,-3.8161,-3.7946,-3.7841,-3.7808,-3.7657,-3.7459,-3.7155,-3.6922,-3.6675,-3.6499,-3.6417,-3.6417,-3.6417,-3.6417,-3.6323,-3.6228,-3.5991,-3.562,-3.5416,-3.5126,-3.4872,-3.4823,-3.4775,-3.4775,-3.4775,-3.4703,-3.4727,-3.4715,-3.4595,-3.4066,-3.3609,-3.314,-3.2644,-3.2292,-3.2091,-3.256,-3.2951,-3.3371,-3.4136,-3.4744,-3.4861,-3.4831,-3.4843,-3.4768,-3.4726,-3.4562,-3.4818,-3.5132,-3.5495,-3.5717,-3.5918,-3.6141,-3.6078,-3.5868,-3.6094,-3.6132,-3.5968,-3.5881,-3.5881,-3.5943,-3.5943,-3.5968,-3.6006,-3.5881,-3.5667,-3.5416,-3.5479,-3.5705,-3.5768,-3.6006,-3.6094,-3.6367,-3.6405,-3.6367,-3.627,-3.6182,-3.5968,-3.5629,-3.5629,-3.5592,-3.5554,-3.5403,-3.5052,-3.4851,-3.4756,-3.4555,-3.4286,-3.4336,-3.4487,-3.4161,-3.3796,-3.3545,-3.3458,-3.3508,-3.3658,-3.3822,-3.4048,-3.4223,-3.4085,-3.3709,-3.3715,-4.2092,-4.2092,-4.2092,-4.2092,-4.2009,-4.148,-4.1001,-4.0645,-4.0083,-3.9601,-3.9292,-3.8966,-3.8724,-3.8557,-3.8285,-3.8057,-3.79,-3.79,-3.7749,-3.7505,-3.7248,-3.7015,-3.6722,-3.6546,-3.6417,-3.6417,-3.6417,-3.6417,-3.637,-3.6275,-3.6038,-3.5668,-3.5476,-3.5271,-3.4823,-3.4775,-3.4775,-3.4775,-3.4775,-3.4823,-3.4823,-3.4823,-3.4643,-3.4451,-3.4102,-3.3725,-3.3252,-3.2847,-3.2665,-3.2758,-3.3136,-3.399,-3.5128,-3.5646,-3.5965,-3.5952,-3.5542,-3.5391,-3.5219,-3.5127,-3.5215,-3.537,-3.5608,-3.5931,-3.6144,-3.6342,-3.6329,-3.6094,-3.5994,-3.5981,-3.5968,-3.5931,-3.5918,-3.6006,-3.6081,-3.6254,-3.638,-3.6254,-3.6103,-3.6056,-3.6069,-3.6107,-3.6144,-3.6267,-3.6367,-3.6417,-3.6417,-3.6405,-3.6392,-3.6342,-3.6329,-3.6056,-3.6132,-3.6119,-3.6044,-3.5906,-3.5567,-3.5416,-3.5366,-3.5069,-3.4806,-3.4756,-3.4756,-3.4675,-3.4424,-3.4135,-3.4048,-3.4267,-3.4405,-3.4422,-3.4292,-3.4351,-3.4355,-3.4099,-3.423,-4.2092,-4.2092,-4.2092,-4.2092,-4.2009,-4.162,-4.1142,-4.0645,-4.0227,-3.9747,-3.9292,-3.9011,-3.8787,-3.8589,-3.8317,-3.8103,-3.7946,-3.79,-3.7841,-3.7644,-3.7248,-3.7062,-3.6828,-3.6546,-3.6452,-3.6417,-3.6417,-3.6417,-3.6417,-3.6358,-3.6133,-3.5716,-3.5572,-3.5368,-3.4872,-3.4823,-3.4823,-3.4775,-3.4775,-3.4872,-3.492,-3.4872,-3.4872,-3.4764,-3.4522,-3.4181,-3.392,-3.3488,-3.3285,-3.3516,-3.4098,-3.4832,-3.5708,-3.6107,-3.6342,-3.6292,-3.6056,-3.5893,-3.578,-3.5655,-3.5529,-3.5755,-3.5893,-3.6267,-3.6292,-3.6417,-3.6405,-3.6241,-3.6254,-3.6254,-3.6182,-3.6144,-3.6157,-3.6254,-3.6267,-3.6329,-3.6392,-3.6342,-3.6279,-3.6279,-3.6292,-3.6304,-3.6329,-3.6329,-3.6417,-3.6417,-3.6417,-3.6417,-3.6417,-3.6417,-3.6417,-3.6417,-3.6417,-3.6417,-3.6304,-3.6241,-3.6107,-3.5994,-3.5855,-3.578,-3.5579,-3.5278,-3.5044,-3.5019,-3.4939,-3.4593,-3.4618,-3.474,-3.4695,-3.4594,-3.4459,-3.4406,-3.4397,-3.447,-3.4482,-4.2092,-4.2092,-4.2092,-4.2092,-4.2051,-4.1662,-4.1227,-4.0787,-4.0357,-3.9922,-3.9482,-3.9189,-3.889,-3.8621,-3.8362,-3.8161,-3.7992,-3.7946,-3.79,-3.7657,-3.7307,-3.7062,-3.6815,-3.6593,-3.6452,-3.6417,-3.6417,-3.6417,-3.6417,-3.6358,-3.6181,-3.5716,-3.5524,-3.5368,-3.4981,-3.4823,-3.4872,-3.4823,-3.4823,-3.4981,-3.4981,-3.4969,-3.5066,-3.4993,-3.4857,-3.4672,-3.448,-3.4262,-3.3971,-3.4276,-3.4928,-3.5524,-3.6019,-3.6367,-3.638,-3.6367,-3.6355,-3.6292,-3.6304,-3.6254,-3.6267,-3.6367,-3.6417,-3.6417,-3.6417,-3.6405,-3.6392,-3.6392,-3.6405,-3.6405,-3.638,-3.6367,-3.638,-3.6392,-3.638,-3.6367,-3.6392,-3.6417,-3.6417,-3.6417,-3.6417,-3.6417,-3.6417,-3.6417,-3.6417,-3.6417,-3.6417,-3.6417,-3.6417,-3.6417,-3.6417,-3.6417,-3.6417,-3.6417,-3.6417,-3.6392,-3.6355,-3.6317,-3.6144,-3.6317,-3.6317,-3.5881,-3.5629,-3.5545,-3.537,-3.5194,-3.4936,-3.4956,-3.486,-3.4775,-3.4672,-3.4543,-3.4522,-3.457,-3.4546,-4.2092,-4.2092,-4.2092,-4.2092,-4.2051,-4.1968,-4.1704,-4.1311,-4.1142,-4.0659,-3.9966,-3.9777,-3.9455,-3.8819,-3.8634,-3.8376,-3.8089,-3.7992,-3.7749,-3.7505,-3.7261,-3.7015,-3.6769,-3.6593,-3.6452,-3.6417,-3.6417,-3.6417,-3.6417,-3.6358,-3.6121,-3.5668,-3.5812,-3.5512,-3.492,-3.4872,-3.4981,-3.4872,-3.4823,-3.4932,-3.5138,-3.5223,-3.532,-3.5355,-3.5414,-3.5285,-3.5105,-3.4941,-3.479,-3.4878,-3.5194,-3.5793,-3.6157,-3.6417,-3.6417,-3.6417,-3.6417,-3.6417,-3.6417,-3.6417,-3.6417,-3.6417,-3.6417,-3.6417,-3.6417,-3.6417,-3.6405,-3.6405,-3.6417,-3.6417,-3.6392,-3.6392,-3.6405,-3.6405,-3.6392,-3.6392,-3.6405,-3.6417,-3.6417,-3.6417,-3.6417,-3.6417,-3.6417,-3.6417,-3.6417,-3.6417,-3.6417,-3.6417,-3.6417,-3.6417,-3.6417,-3.6417,-3.6417,-3.6417,-3.6417,-3.6417,-3.6392,-3.6405,-3.637,-3.6323,-3.631,-3.6392,-3.6169,-3.5712,-3.5856,-3.5853,-3.5603,-3.4957,-3.5034,-3.4955,-3.4824,-3.4739,-3.4689,-3.4494,-3.4298]},{"header":{"parameterUnit":"m.s-1","parameterCategory":1,"la1":31.0,"la2":29.5877,"lo1":-88.7671,"lo2":-86.6584,"dy":0.0162,"dx":0.0185,"nx":115,"ny":88,"refTime":"2023-04-17T06:00:00:Z","depth":0,"parameterNumber":3,"parameterNumberName":"V-component_of_WINDS"},"data":[0.0,0.0,0.0,0.0,0.0,0.0,0.0,0.0,0.0,0.0,0.0,0.0,0.0,0.0,0.0,0.0,0.0,0.0,0.0,0.0,0.0,0.0,0.0,0.0,0.0,0.0,0.0,0.0,0.0,0.0,0.0,0.0,0.0,0.0,0.0,0.0,0.0,0.0,0.0,0.0,0.0,0.0,0.0,0.0,0.0,0.0,0.0,0.0,0.0,0.0,0.0,0.0,0.0,0.0,0.0,0.0,0.0,0.0,0.0,0.0,0.0,0.0,0.0,0.0,0.0,0.0,0.0,0.0,0.0,0.0,0.0,0.0,0.0,0.0,0.0,0.0,0.0,0.0,0.0,0.0,0.0,0.0,0.0,0.0,0.0,0.0,0.0,0.0,0.0,0.0,0.0,0.0,0.0,0.0,0.0,0.0,0.0,0.0,0.0,0.0,0.0,0.0,0.0,0.0,0.0,0.0,0.0,0.0,0.0,0.0,0.0,0.0,0.0,0.0,0.0,0.0,0.0,0.0,0.0,0.0,0.0,0.0,0.0,0.0,0.0,0.0,0.0,0.0,0.0,0.0,0.0,0.0,0.0,0.0,0.0,0.0,0.0,0.0,0.0,0.0,0.0,0.0,0.0,0.0,0.0,0.0,0.0,0.0,0.0,0.0,0.0,0.0,0.0,0.0,0.0,0.0,0.0,0.0,0.0,0.0,0.0,0.0,0.0,0.0,0.0,0.0,0.0,0.0,0.0,0.0,0.0,0.0,0.0,0.0,0.0,0.0,0.0,0.0,0.0,0.0,0.0,0.0,0.0,0.0,0.0,0.0,0.0,0.0,0.0,0.0,0.0,0.0,0.0,0.0,0.0,0.0,0.0,0.0,0.0,0.0,0.0,0.0,0.0,0.0,0.0,0.0,0.0,0.0,0.0,0.0,0.0,0.0,0.0,0.0,0.0,0.0,0.0,0.0,0.0,0.0,0.0,0.0,0.0,0.0,0.0,0.0,0.0,0.0,0.0,0.0,0.0,0.0,0.0,0.0,0.0,0.0,0.0,0.0,0.0,0.0,0.0,0.0,0.0,0.0,0.0,0.0,0.0,0.0,0.0,0.0,0.0,0.0,0.0,0.0,0.0,0.0,0.0,0.0,0.0,0.0,0.0,0.0,0.0,0.0,0.0,0.0,0.0,0.0,0.0,0.0,0.0,0.0,0.0,0.0,0.0,0.0,0.0,0.0,0.0,0.0,0.0,0.0,0.0,0.0,0.0,0.0,0.0,0.0,0.0,0.0,0.0,0.0,0.0,0.0,0.0,0.0,0.0,0.0,0.0,0.0,0.0,0.0,0.0,0.0,0.0,0.0,0.0,0.0,0.0,0.0,0.0,0.0,0.0,0.0,0.0,0.0,0.0,0.0,0.0,0.0,0.0,0.0,0.0,0.0,0.0,0.0,0.0,0.0,0.0,0.0,0.0,0.0,0.0,0.0,0.0,0.0,0.0,0.0,0.0,0.0,0.0,0.0,0.0,0.0,0.0,0.0,0.0,0.0,0.0,0.0,0.0,0.0,0.0,0.0,0.0,0.0,0.0,0.0,0.0,0.0,0.0,0.0,0.0,0.0,0.0,0.0,0.0,0.0,0.0,0.0,0.0,0.0,0.0,0.0,0.0,0.0,0.0,0.0,0.0,0.0,0.0,0.0,0.0,0.0,0.0,0.0,0.0,0.0,0.0,0.0,0.0,0.0,0.0,0.0,0.0,0.0,0.0,0.0,0.0,0.0,0.0,0.0,0.0,0.0,0.0,0.0,0.0,0.0,0.0,0.0,0.0,0.0,0.0,0.0,0.0,0.0,0.0,0.0,0.0,0.0,0.0,0.0,0.0,0.0,0.0,0.0,0.0,0.0,0.0,0.0,0.0,0.0,0.0,0.0,0.0,0.0,0.0,0.0,0.0,0.0,0.0,0.0,0.0,0.0,0.0,0.0,0.0,0.0,0.0,0.0,0.0,0.0,0.0,0.0,0.0,0.0,0.0,0.0,0.0,0.0,0.0,0.0,0.0,0.0,0.0,0.0,0.0,0.0,0.0,0.0,0.0,0.0,0.0,0.0,0.0,0.0,0.0,0.0,0.0,0.0,0.0,0.0,0.0,0.0,0.0,0.0,0.0,0.0,0.0,0.0,0.0,0.0,0.0,0.0,0.0,0.0,0.0,0.0,0.0,0.0,0.0,0.0,0.0,0.0,0.0,0.0,0.0,0.0,0.0,0.0,0.0,0.0,0.0,0.0,0.0,0.0,0.0,0.0,0.0,0.0,0.0,0.0,0.0,0.0,0.0,0.0,0.0,0.0,0.0,0.0,0.0,0.0,0.0,0.0,0.0,0.0,0.0,0.0,0.0,0.0,0.0,0.0,0.0,0.0,0.0,0.0,0.0,0.0,0.0,0.0,0.0,0.0,0.0,0.0,0.0,0.0,0.0,0.0,0.0,0.0,0.0,0.0,0.0,0.0,0.0,0.0,0.0,0.0,0.0,0.0,0.0,0.0,0.0,0.0,0.0,0.0,0.0,0.0,0.0,0.0,0.0,0.0,0.0,0.0,0.0,0.0,0.0,0.0,0.0,0.0,0.0,0.0,0.0,0.0,0.0,0.0,0.0,0.0,0.0,0.0,0.0,0.0,0.0,0.0,0.0,0.0,0.0,0.0,0.0,0.0,0.0,0.0,0.0,0.0,0.0,0.0,0.0,0.0,0.0,0.0,0.0,0.0,0.0,0.0,0.0,0.0,0.0,0.0,0.0,0.0,0.0,0.0,0.0,0.0,0.0,0.0,0.0,0.0,0.0,0.0,0.0,0.0,0.0,0.0,0.0,0.0,0.0,0.0,0.0,0.0,0.0,0.0,0.0,0.0,0.0,0.0,0.0,0.0,0.0,0.0,0.0,0.0,0.0,0.0,0.0,0.0,0.0,0.0,0.0,0.0,0.0,0.0,0.0,0.0,0.0,0.0,0.0,0.0,0.0,0.0,0.0,0.0,0.0,0.0,0.0,0.0,0.0,0.0,0.0,0.0,0.0,0.0,0.0,0.0,0.0,0.0,0.0,0.0,0.0,0.0,0.0,0.0,0.0,0.0,0.0,0.0,0.0,0.0,0.0,0.0,0.0,0.0,0.0,0.0,0.0,0.0,0.0,0.0,0.0,0.0,0.0,0.0,0.0,0.0,0.0,0.0,0.0,0.0,0.0,0.0,0.0,0.0,0.0,0.0,0.0,0.0,0.0,0.0,0.0,0.0,0.0,0.0,0.0,0.0,0.0,0.0,0.0,0.0,0.0,0.0,0.0,0.0,0.0,0.0,0.0,0.0,0.0,0.0,0.0,0.0,0.0,0.0,0.0,0.0,0.0,0.0,0.0,0.0,0.0,0.0,0.0,0.0,0.0,0.0,0.0,0.0,0.0,0.0,0.0,0.0,0.0,0.0,0.0,0.0,0.0,0.0,0.0,0.0,0.0,0.0,0.0,0.0,0.0,0.0,0.0,0.0,0.0,0.0,0.0,0.0,0.0,0.0,0.0,0.0,0.0,0.0,0.0,0.0,0.0,0.0,0.0,0.0,0.0,0.0,0.0,0.0,0.0,0.0,0.0,0.0,0.0,0.0,0.0,0.0,0.0,0.0,0.0,0.0,0.0,0.0,0.0,0.0,0.0,0.0,0.0,0.0,0.0,0.0,0.0,0.0,0.0,0.0,0.0,0.0,0.0,0.0,0.0,0.0,0.0,0.0,0.0,0.0,0.0,0.0,0.0,0.0,0.0,0.0,0.0,0.0,0.0,0.0,0.0,0.0,0.0,0.0,0.0,0.0,0.0,0.0,0.0,0.0,0.0,0.0,0.0,0.0,0.0,0.0,0.0,0.0,0.0,0.0,0.0,0.0,0.0,0.0,0.0,0.0,0.0,0.0,0.0,0.0,0.0,0.0,0.0,0.0,0.0,0.0,0.0,0.0,0.0,0.0,0.0,0.0,0.0,0.0,0.0,0.0,0.0,0.0,0.0,0.0,0.0,0.0,0.0,0.0,0.0,0.0,0.0,0.0,0.0,0.0,0.0,0.0,0.0,0.0,0.0,0.0,0.0,0.0,0.0,0.0,0.0,0.0,0.0,0.0,0.0,0.0,0.0,0.0,0.0,0.0,0.0,0.0,0.0,0.0,0.0,0.0,0.0,0.0,0.0,0.0,0.0,0.0,0.0,0.0,0.0,0.0,0.0,0.0,0.0,0.0,0.0,0.0,0.0,0.0,0.9864,0.0,0.0,0.0,0.0,0.0,0.0,0.0,0.0,0.0,0.0,0.0,0.0,0.0,0.0,0.0,0.0,0.0,0.0,0.0,0.0,0.0,0.0,0.0,0.0,0.0,0.0,0.0,0.0,0.0,0.0,0.0,0.0,0.0,0.0,0.0,0.0,0.0,0.0,0.0,0.0,0.0,0.0,0.0,0.0,0.0,0.0,0.0,0.0,0.0,0.0,0.0,0.0,0.0,0.0,0.0,0.0,0.0,0.0,0.0,0.0,0.0,0.0,0.0,0.0,0.0,0.0,0.0,0.0,0.0,0.0,0.0,0.0,0.0,0.0,0.0,0.0,0.0,0.0,0.0,0.0,0.0,0.0,0.0,0.0,0.0,0.0,0.0,0.0,0.0,0.0,0.0,0.0,0.0,0.0,0.0,0.0,0.0,0.0,0.0,0.0,0.0,0.0,0.0,0.0,0.0,0.0,0.0,0.0,0.0,0.0,1.1905,1.1336,1.1078,1.0699,1.0167,0.0,0.0,0.0,0.0,0.0,0.0,0.0,0.0,0.0,0.0,0.0,0.0,0.0,0.0,0.0,0.0,0.0,0.0,0.0,0.0,0.0,0.0,0.0,0.0,0.0,0.0,0.0,0.0,0.0,0.0,0.0,0.0,0.0,0.0,0.0,0.0,0.0,0.0,0.0,0.0,0.0,0.0,0.0,0.0,0.0,0.0,0.0,0.0,0.0,0.0,0.0,0.0,0.0,0.0,0.0,0.0,0.0,0.0,0.0,0.0,0.0,0.0,0.0,0.0,0.0,0.0,0.0,0.0,0.0,0.0,0.0,0.0,0.0,0.0,0.0,0.0,0.0,0.0,0.0,0.0,0.0,0.0,0.0,0.0,0.0,0.0,0.0,0.0,0.0,0.0,0.0,0.0,0.0,0.0,0.0,0.0,0.0,0.0,0.0,0.0,0.0,0.0,0.0,0.0,0.0,0.0,0.0,0.0,0.0,0.0,0.0,0.0,1.1833,1.1478,1.0804,0.0,0.0,0.0,0.0,0.0,0.0,0.0,0.0,0.0,0.0,0.0,0.0,0.0,0.0,0.0,0.0,0.0,0.0,0.0,0.0,0.0,0.0,0.0,0.0,0.0,0.0,0.0,0.0,0.0,0.0,0.0,0.0,0.0,0.0,0.0,0.0,0.0,0.0,0.0,0.0,0.0,0.0,0.0,0.0,0.0,0.0,0.0,0.0,0.0,0.0,0.0,0.0,0.0,0.0,0.0,0.0,0.0,0.0,0.0,0.0,0.0,0.0,0.0,0.0,0.0,0.0,0.0,0.0,0.0,0.0,0.0,0.0,0.0,0.0,0.0,0.0,0.0,0.0,0.0,0.0,0.0,0.0,0.0,0.0,0.0,0.0,0.0,0.0,0.0,0.0,0.0,0.0,0.0,0.0,0.0,0.0,0.0,0.0,0.0,0.0,0.0,0.0,0.0,0.0,0.0,0.0,0.0,0.0,0.0,0.0,1.3307,1.3462,1.28,0.0,1.2132,0.0,0.0,0.0,0.0,0.0,0.0,0.0,0.0,0.0,0.0,0.0,0.0,0.0,0.0,0.0,0.0,0.0,0.0,0.0,0.0,0.0,0.0,0.0,0.0,0.0,0.0,0.0,0.0,0.0,0.0,0.0,0.0,0.0,0.0,0.0,0.0,0.0,0.0,0.0,0.0,0.0,0.0,0.0,0.0,0.0,0.0,0.0,0.0,0.0,0.0,0.0,0.0,0.0,0.0,0.0,0.0,0.0,0.0,0.0,0.0,0.0,0.0,0.0,0.0,0.0,0.0,0.0,0.0,0.0,0.0,0.0,0.0,0.0,0.0,0.0,0.0,0.0,0.0,0.0,0.0,0.0,0.0,0.0,0.0,0.0,0.0,0.0,0.0,0.0,0.0,0.0,0.0,0.0,0.0,0.0,0.0,0.0,0.0,0.0,0.0,0.0,0.0,0.0,0.0,0.0,0.0,0.0,0.0,0.0,0.0,1.4016,1.3971,1.3192,1.2585,0.0,0.0,0.0,0.0,0.0,0.0,0.0,0.0,0.0,0.0,0.0,0.0,0.0,0.0,0.0,0.0,0.0,0.0,0.0,0.0,0.0,0.0,0.0,0.0,0.0,0.0,0.0,0.0,0.0,0.0,0.0,0.0,0.0,0.0,0.0,0.0,0.0,0.0,0.0,0.0,0.0,0.0,0.0,0.0,0.0,0.0,0.0,0.0,0.0,0.0,0.0,0.0,0.0,0.0,0.0,0.0,0.0,0.0,0.0,0.0,0.0,0.0,0.0,0.0,0.0,0.0,0.0,0.0,0.0,0.0,0.0,0.0,0.0,0.0,0.0,0.0,0.0,0.0,0.0,0.0,0.0,0.0,0.0,0.0,0.0,0.0,0.0,0.0,0.0,0.0,0.0,0.0,0.0,0.0,0.0,0.0,0.0,0.0,0.0,0.0,0.0,0.0,0.0,0.0,0.0,0.0,0.0,0.0,0.0,0.0,1.4847,1.4713,1.4534,1.3777,1.3132,1.2598,0.0,0.0,0.0,0.0,0.0,0.0,0.0,0.0,0.0,0.0,0.0,0.0,0.0,0.0,0.0,0.0,0.0,0.0,0.0,0.0,0.0,0.0,0.0,0.0,0.0,0.0,0.0,0.0,0.0,0.0,0.0,0.0,0.0,0.0,0.0,0.0,0.0,0.0,0.0,0.0,0.0,0.0,0.0,0.0,0.0,0.0,0.0,0.0,0.0,0.0,0.0,0.0,0.0,0.0,0.0,0.0,0.0,0.0,0.0,0.0,0.0,0.0,0.0,0.0,0.0,0.0,0.0,0.0,0.0,0.0,0.0,0.0,0.0,0.0,0.0,0.0,0.0,0.0,0.0,0.0,0.0,0.0,0.0,0.0,0.0,0.0,0.0,0.0,0.0,0.0,0.0,0.0,0.0,0.0,0.0,0.0,0.0,0.0,0.0,0.0,0.0,0.0,0.0,0.0,0.0,0.0,0.0,0.0,1.5698,1.5492,1.5504,1.5665,1.4784,1.424,0.0,0.0,0.0,0.0,0.0,0.0,0.0,0.0,0.0,0.0,0.0,0.0,0.0,0.0,0.0,0.0,0.0,0.0,0.0,0.0,0.0,0.0,0.0,0.0,0.0,0.0,0.0,0.0,0.0,0.0,0.0,0.0,0.0,0.0,0.0,0.0,0.0,0.0,0.0,0.0,0.0,0.0,0.0,0.0,0.0,0.0,0.0,0.0,0.0,0.0,0.0,0.0,0.0,0.0,0.0,0.0,0.0,0.0,0.0,0.0,0.0,0.0,0.0,0.0,0.0,0.0,0.0,0.0,0.0,0.0,0.0,0.0,0.0,0.0,0.0,0.0,0.0,0.0,0.0,0.0,0.0,0.0,0.0,0.0,0.0,0.0,0.0,0.0,0.0,0.0,0.0,0.0,0.0,0.0,0.0,0.0,0.0,0.0,0.0,0.0,0.0,0.0,0.0,0.0,0.0,0.0,0.0,0.0,0.0,1.5364,1.5258,1.5261,1.5275,1.4785,1.4556,0.0,0.0,0.0,0.0,0.0,0.0,0.0,0.0,0.0,0.0,0.0,0.0,0.0,0.0,0.0,0.0,0.0,0.0,0.0,0.0,0.0,0.0,0.0,0.0,0.0,0.0,0.0,0.0,0.0,0.0,0.0,0.0,0.0,0.0,0.0,0.0,0.0,0.0,0.0,0.0,0.0,0.0,0.0,0.0,0.0,0.0,0.0,0.0,0.0,0.0,0.0,0.0,0.0,0.0,0.0,0.0,0.0,0.0,0.0,0.0,0.0,0.0,0.0,0.0,0.0,0.0,0.0,0.0,0.0,0.0,0.0,0.0,0.0,0.0,0.0,0.0,0.0,0.0,0.0,0.0,0.0,0.0,0.0,0.0,0.0,0.0,0.0,0.0,0.0,0.0,0.0,0.0,0.0,0.0,0.0,0.0,0.0,0.0,0.0,0.0,0.0,0.0,0.0,0.0,0.0,0.0,0.0,0.0,0.0,1.563,0.0,1.5636,1.5393,1.5017,1.4742,0.0,0.0,0.0,0.0,0.0,0.0,0.0,0.0,0.0,0.0,0.0,0.0,0.0,0.0,0.0,0.0,0.0,0.0,0.0,0.0,0.0,0.0,0.0,0.0,0.0,0.0,0.0,0.0,0.0,0.0,0.0,0.0,0.0,0.0,0.0,0.0,0.0,0.0,0.0,0.0,0.0,0.0,0.0,0.0,0.0,0.0,0.0,0.0,0.0,0.0,0.0,0.0,0.0,0.0,0.0,0.0,0.0,0.0,0.0,0.0,0.0,0.0,0.0,0.0,0.0,0.0,0.0,0.0,0.0,0.0,0.0,0.0,0.0,0.0,0.0,0.0,0.0,0.0,0.0,0.0,0.0,0.0,0.0,0.0,0.0,0.0,0.0,0.0,0.0,0.0,0.0,0.0,0.0,0.0,0.0,0.0,0.0,0.0,0.0,0.0,0.0,0.0,0.0,0.0,0.0,0.0,0.0,0.0,1.6164,1.6632,1.6918,1.6744,1.6318,1.5521,1.4885,0.0,0.0,0.0,0.0,0.0,0.0,0.0,0.0,0.0,0.0,0.0,0.0,0.0,0.0,0.0,0.0,0.0,0.0,0.0,0.0,0.0,0.0,0.0,0.0,0.0,0.0,0.0,0.0,0.0,0.0,0.0,0.0,0.0,0.0,0.0,0.0,0.0,0.0,0.0,0.0,0.0,0.0,0.0,0.0,0.0,0.0,0.0,0.0,0.0,0.0,0.0,0.0,0.0,0.0,0.0,0.0,0.0,0.0,0.0,0.0,0.0,0.0,0.0,0.0,0.0,0.0,0.0,0.0,0.0,0.0,0.0,0.0,0.0,0.0,0.0,0.0,0.0,0.0,0.0,0.0,0.0,0.0,0.0,0.0,0.0,0.0,0.0,0.0,0.0,0.0,0.0,0.0,0.0,0.0,0.0,0.0,0.0,0.0,0.0,0.0,0.0,0.0,0.0,0.0,0.0,0.0,0.0,0.0,0.0,1.5884,1.6158,1.6355,1.6275,1.5714,1.5463,0.0,0.0,0.0,0.0,0.0,0.0,0.0,0.0,0.0,0.0,0.0,0.0,0.0,0.0,0.0,0.0,0.0,0.0,0.0,0.0,0.0,0.0,0.0,0.0,0.0,0.0,0.0,0.0,0.0,0.0,0.0,0.0,0.0,0.0,0.0,0.0,0.0,0.0,0.0,0.0,0.0,0.0,0.0,0.0,0.0,0.0,0.0,0.0,0.0,0.0,0.0,0.0,0.0,0.0,0.0,0.0,0.0,0.0,0.0,0.0,0.0,0.0,0.0,0.0,0.0,0.0,0.0,0.0,0.0,0.0,0.0,0.0,0.0,0.0,0.0,0.0,0.0,0.0,0.0,0.0,0.0,0.0,0.0,0.0,0.0,0.0,0.0,0.0,0.0,0.0,0.0,0.0,0.0,0.0,0.0,0.0,0.0,0.0,0.0,0.0,0.0,0.0,0.0,0.0,0.0,0.0,0.0,0.0,0.0,1.5985,1.6593,1.6885,1.6792,1.6407,1.6081,1.5999,0.0,0.0,0.0,0.0,0.0,0.0,0.0,0.0,0.0,0.0,0.0,0.0,0.0,0.0,0.0,0.0,0.0,0.0,0.0,0.0,0.0,0.0,0.0,0.0,0.0,0.0,0.0,0.0,0.0,0.0,0.0,0.0,0.0,0.0,0.0,0.0,0.0,0.0,0.0,0.0,0.0,0.0,0.0,0.0,0.0,0.0,0.0,0.0,0.0,0.0,0.0,0.0,0.0,0.0,0.0,0.0,0.0,0.0,0.0,0.0,0.0,0.0,0.0,0.0,0.0,0.0,0.0,0.0,0.0,0.0,0.0,0.0,0.0,0.0,0.0,0.0,0.0,0.0,0.0,0.0,0.0,0.0,0.0,0.0,0.0,0.0,0.0,0.0,0.0,0.0,0.0,0.0,0.0,0.0,0.0,0.0,0.0,0.0,0.0,0.0,0.0,0.0,0.0,0.0,0.0,0.0,0.0,0.0,1.682,1.7956,1.8287,1.7744,1.7376,1.6743,0.0,0.0,0.0,0.0,0.0,0.0,0.0,0.0,0.0,0.0,0.0,0.0,0.0,0.0,0.0,0.0,0.0,0.0,0.0,0.0,0.0,0.0,0.0,0.0,0.0,0.0,0.0,0.0,0.0,0.0,0.0,0.0,0.0,0.0,0.0,0.0,0.0,0.0,0.0,0.0,0.0,0.0,0.0,0.0,0.0,0.0,0.0,0.0,0.0,0.0,0.0,0.0,0.0,0.0,0.0,0.0,0.0,0.0,0.0,0.0,0.0,0.0,0.0,0.0,0.0,0.0,0.0,0.0,0.0,0.0,0.0,0.0,0.0,0.0,0.0,0.0,0.0,0.0,0.0,0.0,0.0,0.0,0.0,0.0,0.0,0.0,0.0,0.0,0.0,0.0,0.0,0.0,0.0,0.0,0.0,0.0,0.0,0.0,0.0,0.0,0.0,0.0,0.0,0.0,0.0,0.0,0.0,0.0,0.0,1.8353,1.9072,1.9118,1.8287,1.7755,1.737,0.0,0.0,0.0,0.0,0.0,0.0,0.0,0.0,0.0,0.0,0.0,0.0,0.0,0.0,0.0,0.0,0.0,0.0,0.0,0.0,0.0,0.0,0.0,0.0,0.0,0.0,0.0,0.0,0.0,0.0,0.0,0.0,0.0,0.0,0.0,0.0,0.0,0.0,0.0,0.0,0.0,0.0,0.0,0.0,0.0,0.0,0.0,0.0,0.0,0.0,0.0,0.0,0.0,0.0,0.0,0.0,0.0,0.0,0.0,0.0,0.0,0.0,0.0,0.0,0.0,0.0,0.0,0.0,0.0,0.0,0.0,0.0,0.0,0.0,0.0,0.0,0.0,0.0,0.0,0.0,0.0,0.0,0.0,0.0,0.0,0.0,0.0,0.0,0.0,0.0,0.0,0.0,0.0,0.0,0.0,0.0,0.0,0.0,0.0,0.0,0.0,0.0,0.0,0.0,0.0,0.0,0.0,0.0,1.8625,1.8748,1.9695,1.9806,1.9058,1.8343,1.7836,0.0,0.0,0.0,0.0,0.0,0.0,0.0,0.0,0.0,0.0,0.0,0.0,0.0,0.0,0.0,0.0,0.0,0.0,0.0,0.0,0.0,0.0,0.0,0.0,0.0,0.0,0.0,0.0,0.0,0.0,0.0,0.0,0.0,0.0,0.0,0.0,0.0,0.0,0.0,0.0,0.0,0.0,0.0,0.0,0.0,0.0,0.0,0.0,0.0,0.0,0.0,0.0,0.0,0.0,0.0,0.0,0.0,0.0,0.0,0.0,0.0,0.0,0.0,0.0,0.0,0.0,0.0,0.0,0.0,0.0,0.0,0.0,0.0,0.0,0.0,0.0,0.0,0.0,0.0,0.0,0.0,0.0,0.0,0.0,0.0,0.0,0.0,0.0,0.0,0.0,0.0,0.0,0.0,0.0,0.0,0.0,0.0,0.0,0.0,0.0,0.0,0.0,0.0,0.0,0.0,0.0,0.0,0.0,1.9292,1.8921,2.0126,2.051,1.9978,1.9058,1.8271,0.0,0.0,0.0,0.0,0.0,0.0,0.0,0.0,0.0,0.0,0.0,0.0,0.0,0.0,0.0,0.0,0.0,0.0,0.0,0.0,0.0,0.0,0.0,0.0,0.0,0.0,0.0,0.0,0.0,0.0,0.0,0.0,0.0,0.0,0.0,0.0,0.0,0.0,0.0,0.0,0.0,0.0,0.0,0.0,0.0,0.0,0.0,0.0,0.0,0.0,0.0,0.0,0.0,0.0,0.0,0.0,0.0,0.0,0.0,0.0,0.0,0.0,0.0,0.0,0.0,0.0,0.0,0.0,0.0,0.0,0.0,0.0,0.0,0.0,0.0,0.0,0.0,0.0,0.0,0.0,0.0,0.0,0.0,0.0,0.0,0.0,0.0,0.0,0.0,0.0,0.0,0.0,0.0,0.0,0.0,0.0,0.0,0.0,0.0,0.0,0.0,0.0,0.0,0.0,0.0,0.0,0.0,0.0,2.1109,2.1463,2.1419,2.1383,2.1247,1.966,1.8639,0.0,0.0,0.0,0.0,0.0,0.0,0.0,0.0,0.0,0.0,0.0,0.0,0.0,0.0,0.0,0.0,0.0,0.0,0.0,0.0,0.0,0.0,0.0,0.0,0.0,0.0,0.0,0.0,0.0,0.0,0.0,0.0,0.0,0.0,0.0,0.0,0.0,0.0,0.0,0.0,0.0,0.0,0.0,0.0,0.0,0.0,0.0,0.0,2.2665,0.0,0.0,0.0,0.0,0.0,0.0,0.0,0.0,0.0,0.0,0.0,0.0,0.0,0.0,0.0,0.0,0.0,0.0,0.0,0.0,0.0,0.0,0.0,0.0,0.0,0.0,0.0,0.0,0.0,0.0,0.0,0.0,0.0,0.0,0.0,0.0,0.0,0.0,0.0,0.0,0.0,0.0,0.0,0.0,0.0,0.0,0.0,0.0,0.0,0.0,0.0,0.0,0.0,0.0,0.0,0.0,0.0,0.0,0.0,2.1851,2.2551,2.2472,2.2382,2.2207,2.1275,2.0044,0.0,0.0,0.0,0.0,0.0,0.0,0.0,0.0,0.0,0.0,0.0,0.0,0.0,0.0,0.0,0.0,0.0,0.0,0.0,0.0,0.0,0.0,0.0,0.0,0.0,0.0,0.0,0.0,0.0,0.0,0.0,0.0,0.0,0.0,0.0,0.0,0.0,0.0,0.0,0.0,0.0,0.0,0.0,0.0,0.0,0.0,0.0,0.0,0.0,0.0,0.0,0.0,0.0,0.0,0.0,0.0,0.0,0.0,0.0,0.0,0.0,0.0,0.0,0.0,0.0,0.0,0.0,0.0,0.0,0.0,0.0,0.0,0.0,0.0,0.0,0.0,0.0,0.0,0.0,0.0,0.0,0.0,0.0,0.0,0.0,0.0,0.0,0.0,0.0,0.0,0.0,0.0,0.0,0.0,0.0,0.0,0.0,0.0,0.0,0.0,0.0,0.0,0.0,0.0,0.0,0.0,0.0,2.2138,2.257,2.3465,2.3633,2.361,2.3424,2.3116,2.1729,1.9059,0.0,0.0,0.0,0.0,0.0,0.0,0.0,0.0,0.0,0.0,0.0,0.0,0.0,0.0,0.0,0.0,0.0,0.0,0.0,0.0,0.0,0.0,0.0,0.0,0.0,0.0,0.0,0.0,0.0,0.0,0.0,0.0,0.0,0.0,0.0,0.0,0.0,0.0,2.4293,2.4702,0.0,0.0,0.0,0.0,0.0,0.0,0.0,0.0,2.3406,0.0,0.0,0.0,0.0,0.0,0.0,0.0,0.0,0.0,0.0,0.0,0.0,0.0,0.0,0.0,0.0,0.0,0.0,0.0,0.0,0.0,0.0,0.0,0.0,0.0,0.0,0.0,0.0,0.0,0.0,0.0,0.0,0.0,0.0,0.0,0.0,0.0,0.0,0.0,0.0,0.0,0.0,0.0,0.0,0.0,0.0,0.0,0.0,0.0,0.0,0.0,0.0,0.0,0.0,0.0,0.0,2.431,2.422,2.4794,2.6072,2.5556,2.5247,2.5131,2.3947,2.266,2.1373,0.0,0.0,0.0,0.0,0.0,0.0,0.0,0.0,0.0,0.0,0.0,0.0,0.0,0.0,0.0,0.0,0.0,0.0,0.0,0.0,0.0,0.0,0.0,0.0,0.0,0.0,0.0,0.0,0.0,0.0,0.0,0.0,0.0,0.0,0.0,0.0,0.0,0.0,0.0,2.5424,2.5657,0.0,0.0,0.0,0.0,0.0,0.0,0.0,0.0,2.3395,0.0,0.0,0.0,0.0,0.0,0.0,0.0,0.0,0.0,0.0,0.0,0.0,0.0,0.0,0.0,0.0,0.0,0.0,0.0,0.0,0.0,0.0,0.0,0.0,0.0,0.0,0.0,0.0,0.0,0.0,0.0,0.0,0.0,0.0,0.0,0.0,0.0,0.0,0.0,0.0,0.0,0.0,0.0,0.0,0.0,0.0,0.0,0.0,0.0,0.0,0.0,0.0,0.0,0.0,0.0,2.4788,2.4784,2.55,2.7028,2.6715,2.6527,2.6518,2.5406,2.4236,0.0,0.0,0.0,0.0,0.0,0.0,0.0,0.0,0.0,0.0,0.0,0.0,0.0,0.0,0.0,0.0,0.0,0.0,0.0,0.0,0.0,0.0,0.0,0.0,0.0,0.0,0.0,0.0,0.0,0.0,0.0,0.0,0.0,0.0,0.0,0.0,0.0,0.0,0.0,0.0,2.5802,2.6078,2.5857,0.0,0.0,0.0,0.0,0.0,0.0,2.3852,2.3505,0.0,0.0,0.0,0.0,0.0,0.0,0.0,0.0,0.0,0.0,0.0,0.0,0.0,0.0,0.0,0.0,0.0,0.0,0.0,0.0,0.0,0.0,0.0,0.0,0.0,0.0,0.0,0.0,0.0,0.0,0.0,0.0,0.0,0.0,0.0,0.0,0.0,0.0,0.0,0.0,0.0,0.0,0.0,0.0,0.0,0.0,0.0,0.0,0.0,0.0,0.0,0.0,0.0,0.0,0.0,2.4898,2.5126,2.5945,2.7393,2.7546,2.7593,2.7584,2.6755,2.5699,0.0,0.0,0.0,0.0,0.0,0.0,0.0,0.0,0.0,0.0,0.0,0.0,0.0,0.0,0.0,0.0,0.0,0.0,0.0,0.0,0.0,0.0,0.0,0.0,0.0,0.0,0.0,0.0,0.0,0.0,0.0,0.0,0.0,0.0,0.0,0.0,0.0,0.0,0.0,0.0,0.0,2.6607,2.675,2.6054,0.0,0.0,0.0,0.0,2.4479,2.4168,0.0,0.0,0.0,0.0,0.0,0.0,0.0,0.0,0.0,0.0,0.0,0.0,0.0,0.0,0.0,0.0,0.0,0.0,0.0,0.0,0.0,0.0,0.0,0.0,0.0,0.0,0.0,0.0,0.0,0.0,0.0,0.0,0.0,0.0,0.0,0.0,0.0,0.0,0.0,0.0,0.0,0.0,0.0,0.0,0.0,0.0,0.0,0.0,0.0,0.0,0.0,0.0,0.0,0.0,0.0,0.0,2.5089,2.581,2.6676,2.7591,2.7989,2.8184,2.8184,2.7444,2.6559,0.0,0.0,0.0,0.0,0.0,0.0,0.0,0.0,0.0,0.0,0.0,0.0,0.0,0.0,0.0,0.0,0.0,0.0,0.0,0.0,0.0,0.0,0.0,0.0,0.0,0.0,0.0,0.0,0.0,0.0,0.0,0.0,0.0,0.0,0.0,0.0,0.0,0.0,0.0,0.0,0.0,2.7535,2.6769,2.6717,2.6546,0.0,0.0,2.5847,2.5428,2.5451,0.0,0.0,0.0,0.0,0.0,0.0,0.0,0.0,0.0,0.0,0.0,0.0,0.0,0.0,0.0,0.0,0.0,0.0,0.0,0.0,0.0,0.0,0.0,0.0,0.0,0.0,0.0,0.0,0.0,0.0,0.0,0.0,0.0,0.0,0.0,0.0,0.0,0.0,0.0,0.0,0.0,0.0,0.0,0.0,0.0,0.0,0.0,0.0,0.0,0.0,0.0,0.0,0.0,0.0,0.0,2.3955,2.5077,2.5439,2.6221,2.7246,2.748,2.7685,2.793,2.6939,2.6193,0.0,0.0,0.0,0.0,0.0,0.0,0.0,0.0,0.0,0.0,0.0,0.0,0.0,0.0,0.0,0.0,0.0,0.0,0.0,0.0,0.0,0.0,0.0,0.0,0.0,0.0,0.0,0.0,0.0,0.0,0.0,0.0,0.0,0.0,0.0,0.0,0.0,0.0,0.0,0.0,0.0,0.0,2.793,2.7343,0.0,0.0,0.0,2.6388,2.6266,0.0,0.0,0.0,0.0,0.0,0.0,0.0,0.0,0.0,0.0,0.0,0.0,0.0,0.0,0.0,0.0,0.0,0.0,0.0,0.0,0.0,0.0,0.0,0.0,0.0,0.0,0.0,0.0,0.0,0.0,0.0,0.0,0.0,0.0,0.0,0.0,0.0,0.0,0.0,0.0,0.0,0.0,0.0,0.0,0.0,0.0,0.0,0.0,0.0,0.0,0.0,0.0,0.0,0.0,0.0,0.0,0.0,2.482,2.5163,2.58,2.666,2.6904,2.7178,2.7471,2.6348,0.0,0.0,0.0,0.0,0.0,0.0,0.0,0.0,0.0,0.0,0.0,0.0,0.0,0.0,0.0,0.0,0.0,0.0,0.0,0.0,0.0,0.0,0.0,0.0,0.0,0.0,0.0,2.5935,0.0,0.0,0.0,0.0,0.0,0.0,0.0,0.0,0.0,0.0,0.0,0.0,0.0,0.0,2.8747,2.8859,2.8198,2.7774,0.0,0.0,2.7048,2.6923,2.6833,2.6458,0.0,0.0,0.0,0.0,0.0,0.0,0.0,0.0,0.0,0.0,0.0,0.0,0.0,0.0,0.0,0.0,0.0,0.0,0.0,0.0,0.0,0.0,0.0,0.0,0.0,0.0,0.0,0.0,0.0,0.0,0.0,0.0,0.0,0.0,0.0,0.0,0.0,0.0,0.0,0.0,0.0,0.0,0.0,0.0,0.0,0.0,0.0,0.0,0.0,0.0,0.0,0.0,0.0,0.0,0.0,2.4222,2.5379,2.5936,2.5791,2.6611,2.7031,2.7041,2.6201,2.5595,0.0,0.0,0.0,0.0,0.0,0.0,0.0,0.0,0.0,0.0,0.0,0.0,0.0,0.0,0.0,0.0,0.0,0.0,0.0,0.0,0.0,0.0,0.0,0.0,0.0,0.0,0.0,0.0,0.0,0.0,0.0,0.0,0.0,0.0,0.0,0.0,0.0,0.0,0.0,0.0,0.0,2.8978,2.8964,2.9353,2.9452,0.0,0.0,2.8164,2.729,2.7571,2.7301,2.5524,0.0,0.0,0.0,0.0,0.0,0.0,0.0,0.0,0.0,0.0,0.0,0.0,0.0,0.0,0.0,0.0,0.0,0.0,0.0,0.0,0.0,0.0,0.0,0.0,0.0,0.0,0.0,0.0,0.0,0.0,0.0,0.0,0.0,0.0,0.0,0.0,0.0,0.0,0.0,0.0,0.0,0.0,0.0,0.0,0.0,0.0,0.0,0.0,0.0,0.0,0.0,0.0,0.0,2.4409,2.4549,2.4917,2.5298,2.5742,2.6089,2.6338,2.6448,2.5886,2.5401,0.0,0.0,0.0,0.0,0.0,0.0,0.0,0.0,0.0,0.0,0.0,0.0,0.0,0.0,0.0,0.0,0.0,0.0,0.0,0.0,0.0,0.0,0.0,0.0,0.0,0.0,0.0,0.0,2.8482,2.833,2.8229,0.0,0.0,0.0,0.0,0.0,0.0,0.0,0.0,0.0,0.0,3.0239,3.0381,3.0591,0.0,0.0,3.0435,2.9955,2.9591,2.9168,2.8469,2.732,2.6475,0.0,0.0,0.0,0.0,0.0,0.0,0.0,0.0,0.0,0.0,0.0,0.0,0.0,0.0,0.0,0.0,0.0,0.0,0.0,0.0,0.0,0.0,0.0,0.0,0.0,0.0,0.0,0.0,0.0,0.0,0.0,0.0,0.0,0.0,0.0,0.0,0.0,0.0,0.0,0.0,0.0,0.0,0.0,0.0,0.0,0.0,0.0,0.0,0.0,0.0,0.0,0.0,2.5083,2.5312,2.5328,2.5615,2.6148,2.6304,2.6419,2.6578,2.6177,2.5842,0.0,0.0,0.0,0.0,0.0,0.0,0.0,0.0,0.0,0.0,0.0,0.0,0.0,0.0,0.0,0.0,0.0,0.0,0.0,0.0,0.0,0.0,0.0,0.0,0.0,0.0,0.0,0.0,2.9164,2.8895,2.871,0.0,0.0,0.0,0.0,0.0,0.0,0.0,0.0,0.0,0.0,3.0985,3.1162,3.1335,3.1521,3.1702,3.1296,3.0871,3.0558,3.0016,2.9308,2.8454,0.0,0.0,0.0,0.0,0.0,0.0,0.0,0.0,0.0,0.0,0.0,0.0,0.0,0.0,0.0,0.0,0.0,0.0,0.0,0.0,0.0,0.0,0.0,0.0,0.0,0.0,0.0,0.0,0.0,0.0,2.8634,0.0,0.0,0.0,0.0,0.0,0.0,0.0,0.0,0.0,0.0,0.0,0.0,0.0,0.0,0.0,0.0,0.0,0.0,0.0,0.0,0.0,0.0,2.6618,2.6464,2.6954,2.72,2.7086,2.7466,2.7623,2.7634,2.7266,2.7138,2.7307,0.0,0.0,0.0,0.0,0.0,0.0,0.0,0.0,0.0,0.0,0.0,0.0,0.0,0.0,0.0,0.0,0.0,0.0,0.0,0.0,0.0,0.0,0.0,0.0,0.0,0.0,2.8699,2.8772,2.8905,0.0,0.0,0.0,0.0,0.0,0.0,0.0,0.0,0.0,0.0,3.0326,3.0991,3.0928,3.1379,3.1553,3.1004,3.0927,3.058,2.9653,2.9818,2.9652,0.0,0.0,0.0,0.0,0.0,0.0,0.0,0.0,0.0,0.0,0.0,0.0,0.0,0.0,0.0,0.0,0.0,0.0,0.0,0.0,0.0,0.0,0.0,0.0,0.0,0.0,0.0,3.0572,3.025,0.0,0.0,0.0,0.0,0.0,0.0,0.0,0.0,0.0,0.0,0.0,3.1511,3.107,0.0,0.0,0.0,0.0,0.0,0.0,0.0,0.0,0.0,0.0,0.0,0.0,2.7221,2.7191,2.7188,2.7304,2.7549,2.7666,2.7714,2.7543,2.7428,2.7234,2.7032,0.0,0.0,0.0,0.0,0.0,0.0,0.0,0.0,0.0,0.0,0.0,0.0,0.0,0.0,0.0,0.0,0.0,0.0,0.0,0.0,0.0,0.0,0.0,0.0,0.0,2.9934,0.0,0.0,0.0,0.0,0.0,0.0,0.0,0.0,0.0,0.0,0.0,3.0264,3.081,3.1501,3.2055,3.2382,3.2904,3.309,0.0,0.0,0.0,0.0,0.0,0.0,0.0,0.0,0.0,0.0,0.0,0.0,0.0,0.0,2.9908,2.7756,2.7458,2.748,2.7294,0.0,0.0,0.0,0.0,0.0,0.0,0.0,0.0,0.0,0.0,0.0,0.0,0.0,0.0,3.227,0.0,3.1697,0.0,0.0,0.0,0.0,0.0,0.0,0.0,0.0,3.2424,3.2479,3.2834,3.2322,3.2059,0.0,3.1297,3.0279,0.0,0.0,0.0,0.0,0.0,0.0,0.0,0.0,2.8159,2.8159,2.8091,2.8177,2.8468,2.8491,2.845,2.8316,2.8275,2.8163,2.7851,2.7799,2.7879,0.0,0.0,0.0,0.0,0.0,0.0,0.0,0.0,0.0,0.0,0.0,0.0,0.0,0.0,0.0,0.0,0.0,0.0,0.0,0.0,0.0,0.0,0.0,3.0146,0.0,0.0,0.0,0.0,0.0,0.0,0.0,0.0,0.0,2.9821,3.054,3.1213,3.154,3.2056,3.2567,3.2956,0.0,0.0,0.0,0.0,0.0,0.0,0.0,3.1425,3.0834,3.0731,3.0802,3.0856,3.1658,3.219,3.1875,0.0,0.0,2.9556,2.9161,2.9172,2.8773,2.8316,2.7952,2.7952,2.7766,2.7602,0.0,0.0,0.0,0.0,0.0,0.0,0.0,0.0,3.4771,3.4469,0.0,3.335,0.0,0.0,0.0,0.0,0.0,3.2133,0.0,0.0,3.356,3.37,3.3632,3.3136,3.288,3.2803,3.1738,3.1188,3.111,3.0396,0.0,0.0,0.0,0.0,0.0,0.0,2.9419,2.938,2.9611,2.9792,2.9753,2.9753,2.9804,2.9753,2.9753,2.9753,2.9753,2.9339,2.9209,2.938,2.904,0.0,0.0,0.0,0.0,0.0,0.0,0.0,0.0,0.0,0.0,0.0,0.0,0.0,0.0,0.0,0.0,0.0,0.0,0.0,0.0,3.0019,0.0,0.0,0.0,0.0,0.0,0.0,0.0,0.0,0.0,0.0,3.0258,3.105,3.1662,3.1637,0.0,0.0,0.0,0.0,3.2556,3.2729,3.2611,3.2234,3.1436,3.2171,3.258,3.187,0.0,0.0,3.2255,3.2809,3.3013,3.2051,3.3041,3.3504,3.1958,3.112,3.0598,3.0018,2.9169,2.8521,2.8498,2.8426,2.8251,3.5053,0.0,0.0,0.0,0.0,3.4282,3.4833,3.5598,3.5611,3.5307,3.4806,3.4379,0.0,0.0,0.0,0.0,0.0,0.0,3.2708,3.359,3.3303,3.3328,3.3687,3.3162,3.2918,3.288,3.2122,3.1559,3.1214,3.0966,3.0542,2.9921,0.0,0.0,0.0,0.0,2.9844,2.9689,2.974,2.9779,2.9779,2.9779,2.9779,2.9779,2.9779,2.9779,2.9779,2.9675,2.9624,2.965,2.9573,0.0,0.0,0.0,0.0,0.0,0.0,0.0,0.0,0.0,0.0,0.0,0.0,0.0,0.0,0.0,0.0,0.0,0.0,0.0,3.0647,3.0854,3.0801,0.0,0.0,0.0,0.0,0.0,0.0,0.0,0.0,0.0,3.1988,3.2525,3.2739,0.0,0.0,3.3627,3.3117,3.3585,3.392,3.3777,0.0,0.0,0.0,3.3621,3.3601,3.2658,3.2638,3.2865,3.3348,3.3623,3.3683,3.3409,3.3683,3.3623,3.256,3.2305,3.193,3.1095,3.0575,3.0248,3.0204,2.9925,2.9612,3.7127,3.598,3.5366,3.5244,3.5538,3.5551,3.6005,3.67,3.67,3.6251,3.555,3.5278,3.4401,3.2988,3.2866,0.0,0.0,0.0,3.3051,3.3643,3.3361,3.3245,3.3282,3.2972,3.283,3.2791,3.2196,3.1784,3.1448,3.1216,3.0868,3.0369,0.0,0.0,3.0037,3.0152,3.0152,3.0049,3.0037,3.0049,3.0049,2.9972,2.9934,2.9908,2.983,2.9779,2.9779,2.9779,2.9779,2.9779,2.9779,2.9856,0.0,0.0,0.0,0.0,0.0,0.0,0.0,0.0,0.0,0.0,0.0,3.0607,3.0139,0.0,0.0,0.0,3.132,3.188,3.204,3.2323,0.0,0.0,0.0,0.0,0.0,0.0,0.0,3.2549,3.3138,3.3559,3.3572,3.4122,3.4206,3.3244,3.3871,3.4238,3.3858,0.0,3.4508,3.441,3.465,3.465,3.4123,3.4344,3.4388,3.3874,3.3617,3.3658,3.4213,3.4232,3.4066,3.3942,3.3835,3.3448,3.2535,3.2451,3.2381,3.1624,3.1273,3.1095,3.1107,3.0769,3.0499,3.8397,3.7763,3.6238,3.6064,3.6761,3.6774,3.7183,3.7821,3.7821,3.7181,3.6123,3.6057,3.5155,3.3626,3.3077,0.0,3.3652,3.3652,3.3652,3.3639,3.3613,3.3287,3.2698,3.2646,3.2594,3.2542,3.2019,3.1732,3.1706,3.1248,3.0911,3.0773,3.0558,3.0482,3.0406,3.0444,3.0444,3.0406,3.0406,3.0406,3.0406,3.0228,3.0113,3.0113,2.9946,2.9856,2.9856,2.983,2.983,2.9869,2.9869,2.9856,2.9869,0.0,0.0,0.0,0.0,0.0,0.0,0.0,0.0,0.0,0.0,0.0,0.0,0.0,0.0,0.0,3.2749,0.0,3.3899,3.4126,0.0,0.0,0.0,3.384,3.4042,3.4248,3.4403,3.44,0.0,0.0,3.491,3.5498,3.5598,3.4587,3.4513,3.4583,3.4667,3.4543,3.454,3.4812,3.4686,3.4502,3.451,3.4667,3.4825,3.4971,3.4997,3.4679,3.4711,3.4372,3.4005,3.3683,3.3463,3.3077,3.2234,3.2109,3.1978,3.1799,3.1476,3.1323,3.1327,3.1139,3.0984,3.8397,3.7848,3.6968,3.702,3.7612,3.7599,3.7462,3.722,3.722,3.6802,3.6083,3.5665,3.5012,3.4188,3.4058,3.4071,3.4214,3.4214,3.4201,3.4175,3.3783,3.3273,3.2672,3.2241,3.1823,3.1392,3.1261,3.1182,3.1182,3.1052,3.1061,3.1161,3.1123,3.0949,3.0647,3.0798,3.0798,3.0622,3.0622,3.0571,3.0406,3.0368,3.033,3.033,3.0292,3.0267,3.0267,3.0267,3.0267,3.0254,3.0254,3.0343,3.047,3.0546,0.0,0.0,0.0,0.0,0.0,0.0,0.0,0.0,0.0,3.1968,3.1636,0.0,3.2206,0.0,3.3487,3.4352,3.4748,3.4866,0.0,0.0,3.4469,3.4461,3.4687,3.5155,3.5318,3.4994,3.505,3.5022,3.5059,3.482,3.4752,3.4886,3.533,3.5441,3.4871,3.4915,3.5193,3.5694,3.5832,3.5997,3.5926,3.5374,3.4844,3.465,3.3917,3.3428,3.3806,3.33,3.2827,3.2743,3.2574,3.2364,3.2173,3.1805,3.1689,3.194,3.1736,3.1496,3.1565,3.1395,3.1205,3.8397,3.7874,3.7547,3.7429,3.7482,3.722,3.6907,3.6619,3.6606,3.6279,3.5704,3.5142,3.4724,3.441,3.4397,3.4254,3.4045,3.4031,3.3757,3.326,3.2947,3.2502,3.1927,3.1614,3.13,3.0986,3.1024,3.1024,3.1024,3.1024,3.1061,3.1161,3.1161,3.1099,3.0986,3.1187,3.1224,3.1112,3.0986,3.0861,3.0685,3.0558,3.0571,3.0672,3.0558,3.0558,3.0672,3.0672,3.0672,3.0672,3.0672,3.0748,3.0936,3.111,3.1296,0.0,0.0,0.0,0.0,0.0,0.0,0.0,0.0,0.0,0.0,0.0,3.3341,3.3643,3.4553,3.5281,3.5655,3.5969,3.6151,3.6094,3.6052,3.6165,3.6338,3.6665,3.6689,3.6216,3.6117,3.5951,3.5666,3.5353,3.5267,3.5609,3.5709,3.5555,3.5069,3.5044,3.5301,3.5634,3.5811,3.5905,3.5967,3.5683,3.5344,3.5072,3.4404,3.3925,3.412,3.3346,3.2662,3.2644,3.2285,3.1994,3.199,3.1627,3.1444,3.1663,3.1637,3.1481,3.1527,3.1253,3.1038,3.8331,3.79,3.7821,3.7442,3.6841,3.6253,3.6005,3.5992,3.5992,3.5691,3.5142,3.4541,3.4332,3.4384,3.4319,3.4031,3.36,3.3587,3.2999,3.1941,3.1836,3.1549,3.1104,3.1026,3.1024,3.1099,3.1024,3.1024,3.1123,3.1136,3.1136,3.1161,3.1161,3.1235,3.1421,3.1582,3.1646,3.1609,3.1397,3.1235,3.1061,3.0887,3.0887,3.1061,3.0924,3.0887,3.1075,3.1136,3.1123,3.1161,3.1198,3.1296,3.1418,3.1759,3.2028,0.0,3.2795,0.0,0.0,0.0,0.0,0.0,0.0,0.0,0.0,3.4369,3.4491,3.5022,3.5625,3.617,3.6594,3.7258,3.7739,3.7929,3.7929,3.7962,3.8063,3.8086,3.7854,3.7244,3.7114,3.6823,3.6222,3.6141,3.604,3.5896,3.5505,3.5193,3.505,3.4967,3.5009,3.5108,3.5184,3.5316,3.5255,3.5549,3.5749,3.5679,3.5173,3.4956,3.4753,3.3783,3.3005,3.2914,3.2431,3.1995,3.1988,3.1699,3.1497,3.1707,3.1643,3.146,3.1379,3.1117,3.0782,3.7991,3.7861,3.7377,3.6828,3.624,3.5678,3.5456,3.5456,3.5456,3.5116,3.4528,3.3992,3.3992,3.4345,3.394,3.3692,3.3587,3.3587,3.3208,3.2515,3.2019,3.1745,3.1615,3.1196,3.1161,3.1445,3.1161,3.1296,3.1873,3.1629,3.1703,3.2128,3.2128,3.2105,3.2023,0.0,0.0,0.0,3.1397,3.1272,3.1272,3.1373,3.1447,3.1485,3.1461,0.0,3.1498,3.1753,3.1873,3.1923,3.22,0.0,0.0,0.0,0.0,0.0,0.0,0.0,0.0,0.0,0.0,0.0,3.6411,3.5734,3.5294,3.4915,3.5024,3.5726,3.592,3.6531,3.774,3.7979,3.8104,3.8142,3.8142,3.7976,3.7564,3.7476,3.7215,3.6577,3.6089,3.5741,3.5595,3.5111,3.4806,3.4835,3.4675,3.4578,3.4537,3.456,3.4753,3.5235,3.5397,3.5427,3.5152,3.5185,3.5203,3.4671,3.4467,3.424,3.3834,3.3395,3.3004,3.3004,3.2726,3.2636,3.2909,3.2577,3.2268,3.264,3.2198,3.1761,3.1603,3.1373,3.1194,3.8148,0.0,3.7586,3.6933,0.0,3.5809,3.5378,3.4855,3.4842,3.4541,3.3979,3.3718,3.3587,3.3535,3.3273,3.2999,3.2738,3.2685,3.2411,3.1874,3.1764,3.1746,3.1808,3.1615,3.1703,3.1946,3.1703,3.174,3.2055,3.1909,3.1982,3.2237,3.2237,3.22,3.2155,3.2155,3.2023,3.1743,3.1827,3.1776,3.1703,3.179,3.1913,3.2023,0.0,0.0,0.0,0.0,0.0,0.0,0.0,0.0,0.0,0.0,0.0,3.3928,3.4724,3.523,3.5378,3.6015,3.6645,3.7145,3.6887,3.6535,3.6223,3.5685,3.577,3.6757,3.6525,3.6859,3.8154,3.824,3.8202,3.8188,3.7926,3.7622,3.7331,3.7012,3.6562,3.5952,3.561,3.529,3.4936,3.4646,3.4395,3.438,3.438,3.438,3.438,3.438,3.4559,3.4864,3.4972,3.4994,3.4839,3.5075,3.516,3.4832,3.4605,3.437,3.4108,3.3551,3.3199,3.3339,3.3129,3.3006,3.3286,3.304,3.2764,3.2904,3.265,3.2231,3.1998,3.1539,3.1136,3.8305,3.79,3.79,3.7207,3.6109,3.6109,3.5456,3.4384,0.0,0.0,0.0,3.347,3.3156,3.2685,3.2672,3.2372,3.1823,3.1836,3.156,3.1099,3.1421,3.1703,3.185,3.2019,3.2259,3.2561,3.2309,3.2286,3.2417,3.2345,3.2309,3.2359,3.2395,3.2395,3.2273,3.2237,3.2178,3.2169,3.2286,3.2345,3.2164,3.2273,3.2381,3.2561,3.2618,3.2725,3.2903,3.2952,3.2988,3.3023,3.336,3.3652,3.3874,3.4298,3.4616,3.4861,3.5737,3.6179,3.6024,3.6719,3.7075,3.6936,3.6817,3.6738,3.6733,3.6217,3.6335,3.7361,3.6872,3.6942,3.8084,3.8017,3.7906,3.7906,3.7418,3.7099,3.6939,3.6504,3.5909,3.5363,3.5218,3.5009,3.4516,3.4395,3.438,3.438,3.438,3.438,3.438,3.438,3.4428,3.4438,3.4491,3.4438,3.4467,3.4815,3.5203,3.5071,3.4877,3.4751,3.4609,3.4043,3.3675,3.3839,3.3514,3.3423,3.3597,3.3437,3.3199,3.3164,3.2952,3.2753,3.2538,3.1886,3.1325,3.7978,3.79,3.79,3.7207,3.6109,3.6109,3.5456,3.4371,3.3901,3.3666,3.3561,3.3038,3.2777,3.2672,3.2672,3.2372,3.181,3.199,3.1789,0.0,3.1471,3.1753,3.2055,3.2092,3.2489,3.3094,3.2775,3.2966,3.3521,3.3283,3.3213,3.3382,3.357,3.3368,3.2931,3.2704,3.2775,3.3072,3.2632,3.2381,3.2381,3.2881,3.3129,3.3185,3.3465,3.3624,3.3659,3.3962,3.4162,3.4162,3.4486,3.4769,3.4968,3.5049,3.5195,3.5404,3.6052,3.6458,3.641,3.6992,3.7351,3.7272,3.6858,3.6395,3.6074,3.5937,3.5981,3.6158,3.6114,3.6266,3.6937,3.6942,3.6879,3.6835,3.6626,3.6243,3.5813,3.5625,3.5305,3.469,3.4545,3.4559,3.4457,3.438,3.438,3.438,3.438,3.438,3.438,3.438,3.438,3.438,3.438,3.438,3.4428,3.4457,3.4603,3.453,3.452,3.4481,3.4481,3.4297,3.4162,3.4278,3.4162,3.4128,3.4059,3.4025,3.3854,3.3764,3.3486,3.3206,3.3136,3.2682,3.2214,3.79,3.79,3.79,3.7207,3.6057,3.5443,3.4881,3.4358,3.3822,3.3587,3.3561,3.33,3.2986,3.2738,3.2922,3.2817,3.2488,3.3041,3.2909,3.231,3.2763,3.2949,3.2931,3.3037,3.3403,3.3991,3.377,3.3805,3.4151,3.4307,3.4479,3.4597,3.4824,3.4616,3.3928,3.3782,3.3762,3.3874,3.3409,3.3269,3.3479,3.377,3.3908,3.3908,3.4045,3.4113,3.4133,3.4298,3.438,3.438,3.4702,3.4935,3.5049,3.5261,3.5392,3.5519,3.6118,3.6327,3.5968,3.6207,3.6372,3.6372,3.6118,3.5872,3.5692,3.5692,3.5856,3.6183,3.6145,3.631,3.6896,3.6796,3.669,3.669,3.6362,3.5921,3.5545,3.5195,3.4869,3.4472,3.438,3.438,3.438,3.438,3.438,3.438,3.438,3.438,3.438,3.438,3.438,3.438,3.438,3.438,3.438,3.438,3.438,3.438,3.438,3.438,3.438,3.438,3.438,3.438,3.438,3.438,3.4264,3.423,3.4244,3.4176,3.3922,3.3716,3.3486,3.2966,3.2453,3.79,3.79,3.79,3.722,3.6018,3.4881,3.4397,3.4358,3.3953,3.377,3.3757,3.368,3.3341,3.2843,3.3277,3.3395,3.3353,3.3982,3.3988,3.354,3.4116,3.4284,3.4136,3.4262,3.4589,3.4986,3.4918,3.4884,3.503,3.5438,3.574,3.5878,3.6036,3.5804,3.5217,3.5135,3.5009,3.4854,3.4535,3.4374,3.438,3.4467,3.4501,3.4501,3.4616,3.465,3.465,3.465,3.465,3.465,3.4868,3.5034,3.5049,3.5326,3.5489,3.5549,3.5983,3.6043,3.5564,3.5489,3.5489,3.5489,3.5489,3.5489,3.5489,3.5489,3.5699,3.6178,3.6089,3.6197,3.6565,3.6497,3.6423,3.6359,3.5947,3.5551,3.5307,3.4942,3.4631,3.4448,3.438,3.438,3.438,3.438,3.438,3.438,3.438,3.438,3.438,3.438,3.438,3.438,3.438,3.438,3.438,3.438,3.438,3.438,3.438,3.438,3.438,3.438,3.438,3.438,3.438,3.438,3.438,3.438,3.438,3.4346,3.4147,3.3971,3.364,3.3122,3.2561,3.79,3.79,3.79,3.7207,3.6018,3.4894,3.441,3.4397,3.4332,3.4319,3.4241,3.4014,3.3555,3.312,3.3807,3.4097,3.3975,3.4175,3.4489,3.4729,3.498,3.5297,3.5561,3.5575,3.5834,3.6133,3.6139,3.6277,3.6571,3.6718,3.6936,3.7212,3.6991,3.6847,3.6906,3.6739,3.6526,3.6212,3.6079,3.5461,3.4477,3.4702,3.4868,3.4868,3.5228,3.5407,3.5341,3.5407,3.5392,3.5407,3.5392,3.5439,3.5439,3.5472,3.5489,3.5504,3.5579,3.5564,3.5504,3.5489,3.5489,3.5489,3.5489,3.5489,3.5489,3.5489,3.5534,3.5624,3.5591,3.5651,3.5618,3.5532,3.5426,3.5337,3.5171,3.4857,3.4665,3.4626,3.4631,3.4448,3.4414,3.438,3.4414,3.438,3.438,3.438,3.438,3.438,3.438,3.438,3.438,3.438,3.438,3.438,3.438,3.438,3.438,3.438,3.438,3.438,3.438,3.438,3.438,3.438,3.438,3.438,3.438,3.438,3.438,3.438,3.423,3.3991,3.3675,3.3396,3.3016,3.79,3.79,3.79,3.7207,3.6057,3.526,3.4724,3.441,3.4397,3.4397,3.4426,3.4423,3.443,3.45,3.5288,3.5643,3.5656,3.6171,3.6264,3.6037,3.6296,3.6439,3.6437,3.6443,3.6761,3.7267,3.7302,3.737,3.7582,3.7946,3.8196,3.8333,3.8387,3.8239,3.7906,3.776,3.7412,3.6778,3.6682,3.6235,3.5436,3.5279,3.5261,3.5261,3.5392,3.5489,3.5489,3.5489,3.5489,3.5489,3.5489,3.5489,3.5489,3.5489,3.5489,3.5489,3.5489,3.5489,3.5489,3.5489,3.5489,3.5489,3.5489,3.5489,3.5489,3.5489,3.5489,3.5489,3.5489,3.5489,3.5504,3.5424,3.5326,3.5261,3.5246,3.5148,3.4902,3.4931,3.4898,3.4631,3.4597,3.4515,3.4414,3.438,3.438,3.438,3.438,3.438,3.438,3.438,3.438,3.438,3.438,3.438,3.438,3.438,3.438,3.438,3.438,3.438,3.438,3.438,3.438,3.438,3.438,3.438,3.438,3.438,3.438,3.438,3.423,3.4025,3.3888,3.366,3.3347,3.79,3.7874,3.773,3.7155,3.6305,3.5587,3.5093,3.473,3.4559,3.4535,3.4605,3.4908,3.5236,3.5642,3.623,3.6547,3.6822,3.7572,3.776,3.7327,3.7682,3.776,3.7588,3.7594,3.7839,3.8288,3.8368,3.8421,3.8603,3.9116,3.936,3.9394,3.9615,3.9502,3.8971,3.891,3.8506,3.7748,3.7501,3.7027,3.6354,3.587,3.5619,3.5619,3.5587,3.5554,3.5539,3.5522,3.5489,3.5554,3.5539,3.5587,3.5619,3.5634,3.5619,3.5554,3.5554,3.5522,3.5489,3.5489,3.5489,3.5489,3.5489,3.5489,3.5489,3.5489,3.5489,3.5489,3.5489,3.5489,3.5489,3.5489,3.5457,3.5439,3.5472,3.5392,3.5148,3.5133,3.5082,3.4831,3.475,3.4698,3.4515,3.4448,3.438,3.438,3.438,3.438,3.438,3.438,3.438,3.438,3.438,3.438,3.438,3.438,3.438,3.438,3.438,3.438,3.438,3.438,3.438,3.438,3.438,3.438,3.438,3.438,3.438,3.438,3.4278,3.4162,3.4059,3.3868,3.3626,3.79,3.7808,3.7286,3.7011,3.6867,3.577,3.5388,3.5331,3.4939,3.488,3.5072,3.544,3.5764,3.5911,3.6071,3.631,3.6822,3.7749,3.8323,3.8569,3.9,3.9254,3.929,3.9275,3.9281,3.9324,3.9309,3.9476,3.9849,4.0239,4.0409,4.0393,4.0382,4.0413,4.029,4.0178,4.0013,3.9164,3.8433,3.78,3.7096,3.6342,3.5988,3.5973,3.5799,3.5688,3.5703,3.5587,3.5554,3.5688,3.5688,3.5767,3.5941,3.5988,3.5878,3.5735,3.5688,3.5638,3.5522,3.5489,3.5489,3.5489,3.5489,3.5489,3.5489,3.5489,3.5489,3.5489,3.5489,3.5489,3.5489,3.5489,3.5424,3.5294,3.5407,3.5326,3.5016,3.5115,3.51,3.4935,3.4835,3.475,3.4664,3.4515,3.4414,3.438,3.438,3.438,3.438,3.438,3.438,3.438,3.438,3.438,3.438,3.438,3.438,3.438,3.438,3.438,3.438,3.438,3.438,3.438,3.438,3.438,3.438,3.438,3.438,3.438,3.438,3.4312,3.4196,3.4128,3.3922,3.79,3.7848,3.7246,3.6789,3.6345,3.5613,3.5133,3.4837,3.4627,3.466,3.4921,3.5072,3.5318,3.5669,3.6413,3.6936,3.7303,3.7953,3.8277,3.8449,3.8819,3.9147,3.94,3.9646,3.9895,4.0091,4.0091,4.0161,4.0296,4.047,4.0489,4.0489,4.0489,4.0489,4.0428,4.0059,3.9554,3.8844,3.815,3.7442,3.6843,3.6474,3.6336,3.6304,3.6022,3.5894,3.5894,3.5846,3.5861,3.5863,3.5894,3.5926,3.6005,3.602,3.5973,3.5894,3.5752,3.5688,3.5621,3.5554,3.5489,3.5489,3.5489,3.5489,3.5489,3.5489,3.5489,3.5489,3.5489,3.5489,3.5489,3.5489,3.5457,3.5439,3.5424,3.5439,3.5326,3.5228,3.5115,3.4935,3.4735,3.4549,3.4549,3.4448,3.438,3.438,3.438,3.438,3.438,3.438,3.438,3.438,3.438,3.438,3.438,3.438,3.438,3.438,3.438,3.438,3.438,3.438,3.438,3.438,3.438,3.438,3.438,3.438,3.438,3.438,3.438,3.438,3.4312,3.4264,3.4094,3.79,3.7835,3.7456,3.6946,3.6358,3.5796,3.5276,3.4769,3.4614,3.4714,3.4962,3.5031,3.5277,3.5764,3.6702,3.7362,3.7749,3.8427,3.876,3.8797,3.9184,3.9508,3.9773,4.0051,4.0261,4.047,4.0489,4.0489,4.0489,4.0489,4.0489,4.0489,4.0489,4.0489,4.0413,4.0028,3.949,3.8846,3.8169,3.7507,3.6892,3.6599,3.6492,3.646,3.6273,3.6116,3.6053,3.6037,3.6037,3.6053,3.6068,3.61,3.6132,3.6163,3.6132,3.6053,3.5958,3.5847,3.5799,3.5653,3.5572,3.5572,3.5537,3.5489,3.5489,3.5489,3.5489,3.5489,3.5489,3.5489,3.5489,3.5489,3.5489,3.5489,3.5489,3.5489,3.5489,3.5374,3.5228,3.5016,3.4783,3.4582,3.4467,3.4448,3.4414,3.438,3.438,3.438,3.438,3.438,3.438,3.438,3.438,3.438,3.438,3.438,3.438,3.438,3.438,3.438,3.438,3.438,3.438,3.438,3.438,3.438,3.438,3.438,3.438,3.438,3.438,3.438,3.438,3.438,3.4244,3.79,3.7887,3.7887,3.7456,3.6881,3.6279,3.5899,3.5545,3.5046,3.5096,3.5438,3.5616,3.5844,3.6218,3.69,3.7429,3.8136,3.9286,3.9818,3.9803,4.0141,4.0316,4.0366,4.0385,4.0455,4.0489,4.0489,4.0489,4.0489,4.0489,4.0489,4.0489,4.0489,4.0489,4.0489,4.0336,4.0043,3.9321,3.8646,3.8031,3.7492,3.6799,3.6492,3.6492,3.646,3.6383,3.6211,3.6085,3.6085,3.6179,3.6211,3.6305,3.6429,3.646,3.6383,3.6242,3.6164,3.6116,3.6005,3.5831,3.5688,3.5703,3.5572,3.5522,3.5522,3.5489,3.5489,3.5489,3.5489,3.5489,3.5489,3.5489,3.5489,3.5489,3.5489,3.5489,3.5504,3.5472,3.5407,3.5195,3.4983,3.4835,3.4683,3.4549,3.4481,3.4448,3.4448,3.4414,3.4414,3.438,3.438,3.438,3.438,3.438,3.438,3.438,3.438,3.438,3.438,3.438,3.438,3.438,3.438,3.438,3.438,3.438,3.438,3.438,3.438,3.438,3.438,3.438,3.438,3.438,3.4312,3.79,3.7848,3.7456,3.7181,3.6933,3.6358,3.6136,3.6168,3.5756,3.5727,3.6006,3.6061,3.6336,3.69,3.7772,3.8486,3.8987,3.9895,4.0071,3.9753,3.998,4.0172,4.0191,4.0385,4.0489,4.0489,4.0489,4.0489,4.0489,4.0489,4.0489,4.0489,4.0489,4.0489,4.0459,4.0028,3.9474,3.8831,3.8154,3.7492,3.6861,3.6615,3.6492,3.6492,3.6492,3.646,3.6383,3.6352,3.6352,3.6383,3.6414,3.6429,3.6492,3.6492,3.646,3.6414,3.6274,3.6211,3.6163,3.599,3.5894,3.5863,3.5735,3.5653,3.5621,3.5554,3.5489,3.5489,3.5489,3.5489,3.5489,3.5489,3.5489,3.5489,3.5489,3.5489,3.5489,3.5407,3.5213,3.5049,3.4935,3.4868,3.4835,3.4735,3.4668,3.4597,3.4597,3.4563,3.4448,3.4414,3.438,3.438,3.438,3.4414,3.438,3.438,3.438,3.438,3.438,3.438,3.438,3.438,3.438,3.438,3.438,3.438,3.438,3.438,3.438,3.438,3.438,3.438,3.438,3.438,3.4312,3.79,3.7861,3.7495,3.7194,3.6985,3.658,3.6406,3.6358,3.6188,3.6207,3.6316,3.6524,3.6781,3.7162,3.8037,3.8745,3.9307,3.9879,3.9985,3.9859,4.0036,4.0191,4.0191,4.0401,4.0489,4.0489,4.0489,4.0489,4.0489,4.0489,4.0489,4.0489,4.0489,4.0489,4.0474,4.0074,3.9554,3.8893,3.8214,3.7538,3.6953,3.6615,3.6492,3.6492,3.6492,3.6492,3.6492,3.6492,3.6492,3.6492,3.6492,3.6492,3.6492,3.6492,3.6492,3.6492,3.6367,3.6305,3.6289,3.6148,3.6068,3.6068,3.5926,3.5752,3.5688,3.5636,3.5572,3.5504,3.5489,3.5489,3.5489,3.5489,3.5489,3.5489,3.5489,3.5489,3.5457,3.5392,3.5261,3.5082,3.4968,3.4935,3.4902,3.4835,3.4802,3.4698,3.4731,3.4731,3.4549,3.4515,3.4481,3.4481,3.4414,3.4414,3.4414,3.438,3.438,3.438,3.438,3.438,3.438,3.438,3.438,3.438,3.438,3.438,3.438,3.438,3.438,3.438,3.438,3.438,3.438,3.438,3.438,3.79,3.79,3.7887,3.756,3.7129,3.7063,3.6834,3.6393,3.6581,3.6663,3.6642,3.7193,3.7356,3.7367,3.8121,3.8796,3.92,3.9622,3.9991,4.0296,4.042,4.0436,4.0455,4.0489,4.0489,4.0489,4.0489,4.0489,4.0489,4.0489,4.0489,4.0489,4.0489,4.0489,4.0489,4.0474,4.0074,3.9416,3.8785,3.8108,3.743,3.6815,3.6492,3.6492,3.6492,3.6492,3.6492,3.6492,3.6492,3.6492,3.6492,3.6492,3.6492,3.6492,3.6492,3.6492,3.6492,3.6492,3.646,3.6305,3.6211,3.6211,3.6068,3.5894,3.5752,3.5671,3.5589,3.5504,3.5489,3.5489,3.5489,3.5489,3.5489,3.5489,3.5489,3.5489,3.5489,3.5504,3.5392,3.5213,3.5067,3.4968,3.5016,3.4883,3.4831,3.4765,3.4817,3.4783,3.4698,3.4631,3.4664,3.4631,3.4515,3.4448,3.4448,3.438,3.438,3.438,3.438,3.438,3.438,3.438,3.438,3.438,3.438,3.438,3.438,3.438,3.438,3.438,3.438,3.438,3.438,3.4428,3.4424,3.79,3.79,3.79,3.7808,3.7678,3.7665,3.7651,3.7685,3.7954,3.7855,3.7813,3.8382,3.8706,3.889,3.9444,4.0017,4.0383,4.0607,4.0517,4.0377,4.047,4.0505,4.0489,4.0489,4.0489,4.0489,4.0489,4.0489,4.0489,4.0489,4.0489,4.0489,4.0489,4.0489,4.0489,4.0489,4.0151,3.9524,3.8862,3.8231,3.7569,3.6907,3.6507,3.6492,3.6522,3.6507,3.6492,3.6492,3.6492,3.6492,3.6492,3.6492,3.6492,3.6492,3.6492,3.6492,3.6492,3.6492,3.6492,3.6445,3.6414,3.6383,3.6163,3.5973,3.5894,3.5701,3.5554,3.5489,3.5489,3.5489,3.5489,3.5489,3.5489,3.5489,3.5489,3.5489,3.5489,3.5489,3.5457,3.5439,3.5359,3.5294,3.5294,3.5228,3.5129,3.4949,3.4902,3.4902,3.4831,3.4731,3.4731,3.4698,3.4631,3.4515,3.4448,3.4414,3.438,3.438,3.438,3.438,3.438,3.438,3.438,3.438,3.438,3.438,3.438,3.438,3.438,3.438,3.4516,3.4559,3.4472,3.4457,3.4516,3.79,3.79,3.79,3.79,3.79,3.79,3.7979,3.816,3.8705,3.8755,3.8713,3.9456,3.9852,3.9982,4.044,4.0853,4.115,4.1413,4.1172,4.0614,4.0484,4.0451,4.0489,4.0489,4.0489,4.0489,4.0489,4.0489,4.0489,4.0489,4.0489,4.0489,4.0489,4.0489,4.0489,4.0489,4.032,3.9859,3.9277,3.8708,3.8323,3.7692,3.74,3.7261,3.7092,3.683,3.6569,3.6492,3.6492,3.6492,3.6492,3.6492,3.6492,3.6492,3.6492,3.6492,3.6492,3.6492,3.6492,3.6492,3.6492,3.646,3.6211,3.6085,3.5973,3.5733,3.5572,3.5504,3.5504,3.5489,3.5489,3.5489,3.5489,3.5489,3.5489,3.5489,3.5489,3.5489,3.5489,3.5457,3.5424,3.5439,3.5472,3.5439,3.5294,3.5115,3.5148,3.5049,3.4964,3.4865,3.4783,3.475,3.4664,3.4563,3.4481,3.4448,3.4448,3.4448,3.438,3.438,3.4486,3.4472,3.438,3.438,3.438,3.438,3.438,3.438,3.438,3.4457,3.4603,3.4733,3.4719,3.4646,3.469,3.79,3.79,3.79,3.79,3.79,3.79,3.79,3.807,3.8908,3.9204,3.9297,4.0215,4.0691,4.069,4.113,4.1375,4.155,4.1889,4.1665,4.1197,4.0756,4.053,4.072,4.0536,4.0505,4.0489,4.0489,4.0489,4.0489,4.0489,4.0489,4.0489,4.0489,4.0489,4.0489,4.0489,4.0489,4.0305,3.9739,3.9351,3.9121,3.8631,3.8262,3.8185,3.7846,3.74,3.6984,3.6738,3.6661,3.6615,3.6569,3.6492,3.6492,3.6492,3.6492,3.6492,3.6492,3.6492,3.6492,3.6492,3.6492,3.646,3.6289,3.6148,3.6005,3.5782,3.5589,3.5504,3.5489,3.5489,3.5489,3.5489,3.5489,3.5489,3.5489,3.5489,3.5489,3.5489,3.5489,3.5489,3.5326,3.5359,3.5392,3.5374,3.5243,3.5507,3.5451,3.5314,3.52,3.5134,3.5008,3.4868,3.475,3.4563,3.4515,3.4515,3.4515,3.4515,3.4414,3.4443,3.4632,3.4617,3.4472,3.438,3.438,3.438,3.438,3.438,3.4438,3.4472,3.4588,3.4893,3.516,3.5009,3.4994,3.79,3.79,3.79,3.79,3.79,3.79,3.79,3.7979,3.9056,3.9463,3.9592,4.067,4.1379,4.169,4.1954,4.2224,4.2271,4.2379,4.2266,4.1961,4.1197,4.1102,4.1162,4.0812,4.052,4.0505,4.0489,4.0489,4.0489,4.0489,4.0489,4.0489,4.0489,4.0489,4.0489,4.0489,4.0489,4.0382,3.9844,3.9601,3.9444,3.9,3.8631,3.8569,3.8385,3.8246,3.8,3.7554,3.7292,3.7169,3.6815,3.6569,3.6507,3.6492,3.6492,3.6492,3.6492,3.6492,3.6492,3.6492,3.6492,3.646,3.6226,3.6037,3.6005,3.5733,3.5554,3.5489,3.5489,3.5489,3.5489,3.5489,3.5489,3.5489,3.5489,3.5489,3.5489,3.5489,3.5489,3.5489,3.5457,3.5454,3.5534,3.5547,3.5598,3.5811,3.5781,3.5588,3.5495,3.5433,3.5185,3.4983,3.4993,3.4883,3.4893,3.4947,3.501,3.4996,3.4869,3.482,3.4994,3.4951,3.4893,3.4661,3.438,3.4453,3.4806,3.4632,3.4733,3.4661,3.4704,3.5096,3.5386,3.5314,3.5517,3.79,3.79,3.79,3.79,3.79,3.79,3.79,3.8161,3.9247,3.9788,4.0083,4.1239,4.2107,4.2476,4.2648,4.2766,4.2833,4.2617,4.2599,4.2482,4.1882,4.1534,4.15,4.1217,4.0893,4.0597,4.0489,4.0489,4.0489,4.052,4.0489,4.0489,4.0505,4.0489,4.0489,4.0489,4.0489,4.0459,4.0166,3.9967,3.9908,3.9644,3.9231,3.9046,3.8921,3.8829,3.8462,3.8185,3.8,3.7815,3.7338,3.6799,3.6538,3.6492,3.6492,3.6492,3.6492,3.6492,3.6492,3.6492,3.6492,3.6507,3.621,3.6052,3.5925,3.5683,3.5537,3.5489,3.5489,3.5489,3.5489,3.5489,3.5489,3.5489,3.5489,3.5489,3.5489,3.5489,3.5489,3.5489,3.5489,3.5714,3.5804,3.5893,3.6204,3.6552,3.6287,3.6078,3.5833,3.5725,3.5314,3.5123,3.5221,3.5248,3.5302,3.5424,3.5656,3.5645,3.5619,3.5633,3.5735,3.559,3.5401,3.5227,3.5111,3.5328,3.5546,3.5299,3.5212,3.5503,3.5662,3.5677,3.5909,3.6402,3.6533,3.79,3.79,3.79,3.79,3.79,3.79,3.79,3.8116,3.9247,3.9867,4.0474,4.1702,4.2316,4.2845,4.2951,4.3101,4.3125,4.289,4.2885,4.3122,4.2439,4.2101,4.1914,4.1607,4.132,4.0812,4.0782,4.0766,4.0889,4.0689,4.0797,4.0674,4.0505,4.0505,4.0489,4.0489,4.0489,4.0474,4.0428,4.0397,4.0413,4.0351,4.0059,3.9785,3.9628,3.9428,3.9044,3.88,3.8662,3.8631,3.8015,3.7353,3.6815,3.6507,3.6584,3.6615,3.6599,3.6599,3.6692,3.6568,3.6445,3.6506,3.6147,3.5973,3.5878,3.5668,3.5522,3.5489,3.5489,3.5489,3.5489,3.5489,3.5489,3.5489,3.5489,3.5489,3.5489,3.5504,3.5534,3.5729,3.5818,3.6013,3.6297,3.6477,3.6911,3.7195,3.6866,3.6641,3.6458,3.6197,3.5904,3.5789,3.5995,3.5991,3.5996,3.6001,3.6234,3.6239,3.6285,3.6365,3.6438,3.6359,3.6214,3.6083,3.6054,3.617,3.6127,3.5923,3.6011,3.6402,3.6388,3.617,3.6707,3.752,3.7389,3.79,3.79,3.79,3.79,3.79,3.79,3.79,3.8024,3.88,3.9455,4.0156,4.1114,4.209,4.2607,4.2955,4.3115,4.319,4.3105,4.3262,4.3445,4.2916,4.2599,4.2683,4.197,4.1735,4.1981,4.1801,4.1724,4.1832,4.1755,4.1186,4.1217,4.0766,4.0505,4.0489,4.0489,4.0489,4.0489,4.0489,4.0489,4.0489,4.0489,4.0459,4.0228,4.0197,4.0136,3.9997,3.9582,3.9321,3.9277,3.8692,3.8046,3.7507,3.6984,3.6892,3.7046,3.6907,3.6907,3.72,3.6704,3.6672,3.6714,3.6383,3.592,3.5825,3.5679,3.5699,3.5564,3.5534,3.5489,3.5489,3.5489,3.5519,3.5504,3.5564,3.5594,3.5609,3.5684,3.5938,3.6372,3.6402,3.6357,3.6671,3.7045,3.7494,3.7689,3.7494,3.7494,3.7554,3.7266,3.6899,3.689,3.6951,3.6842,3.6753,3.6777,3.6834,3.6825,3.685,3.6961,3.7026,3.7099,3.7056,3.6867,3.6649,3.6533,3.6489,3.6504,3.6562,3.6809,3.6707,3.6591,3.7056,3.7535,3.7433,3.79,3.79,3.79,3.79,3.79,3.79,3.79,3.807,3.898,3.9675,4.0257,4.1227,4.2022,4.25,4.2769,4.301,4.325,4.3305,4.3478,4.353,4.3344,4.3182,4.3311,4.2524,4.2591,4.2809,4.2735,4.2309,4.2032,4.134,4.1186,4.0955,4.0628,4.0505,4.0489,4.0489,4.0489,4.0489,4.0489,4.0489,4.0489,4.0489,4.0489,4.0489,4.0489,4.0489,4.0428,4.0243,4.0013,3.9874,3.9351,3.9075,3.8706,3.8169,3.7523,3.7538,3.7492,3.7615,3.7906,3.75,3.7464,3.7584,3.7046,3.6791,3.6709,3.664,3.6282,3.6013,3.5609,3.5489,3.5489,3.5549,3.5669,3.5938,3.6013,3.6148,3.6357,3.6432,3.6761,3.709,3.6806,3.6776,3.7075,3.7509,3.8033,3.8138,3.8048,3.8212,3.8452,3.8108,3.7669,3.7615,3.765,3.7747,3.7656,3.7665,3.7615,3.7531,3.7461,3.7609,3.766,3.7754,3.7673,3.7549,3.7317,3.7106,3.7302,3.7462,3.7346,3.723,3.7346,3.7404,3.736,3.7404,3.7418,3.79,3.79,3.79,3.79,3.79,3.79,3.7946,3.8298,3.9247,3.9908,4.0314,4.1297,4.2036,4.2392,4.2688,4.2955,4.3305,4.3305,4.3423,4.3542,4.3551,4.3499,4.3434,4.3236,4.3175,4.3357,4.3039,4.295,4.2452,4.1597,4.1058,4.0997,4.0828,4.0489,4.0489,4.0489,4.0489,4.0489,4.0489,4.0489,4.0489,4.0489,4.0489,4.0489,4.0489,4.0489,4.0474,4.0443,4.0413,4.029,4.0028,3.9828,4.0028,3.9382,3.8631,3.8123,3.829,3.8492,3.8596,3.8297,3.8088,3.8281,3.7921,3.7692,3.7455,3.7083,3.6881,3.6507,3.6103,3.5878,3.6028,3.5953,3.6193,3.6477,3.6686,3.6806,3.7075,3.724,3.7315,3.7375,3.712,3.727,3.7629,3.8078,3.8616,3.8527,3.8437,3.8661,3.8811,3.8542,3.8207,3.8142,3.8236,3.8546,3.8608,3.8652,3.8536,3.8404,3.8325,3.8355,3.8341,3.8361,3.8229,3.8053,3.8044,3.7922,3.8204,3.8202,3.7912,3.7825,3.8086,3.8101,3.7854,3.7825,3.7883,3.79,3.79,3.79,3.79,3.79,3.79,3.8129,3.8512,3.8922,3.9675,4.0516,4.1001,4.1702,4.2336,4.2795,4.3076,4.325,4.3305,4.3329,4.3384,4.3423,4.3497,4.3512,4.293,4.3319,4.3555,4.3006,4.3188,4.3179,4.26,4.2263,4.2048,4.1089,4.0536,4.0643,4.0536,4.0489,4.0489,4.0489,4.0489,4.0489,4.0489,4.0489,4.0489,4.0489,4.0489,4.0489,4.0489,4.0489,4.0474,4.0428,4.0105,3.9797,4.0105,3.9828,3.9305,3.8923,3.8754,3.9167,3.8864,3.862,3.8762,3.8311,3.7729,3.7627,3.7214,3.6866,3.6552,3.6387,3.6552,3.6851,3.7075,3.721,3.7255,3.7315,3.736,3.7554,3.7973,3.8063,3.8063,3.7913,3.8048,3.8317,3.8751,3.914,3.8975,3.8901,3.9095,3.9155,3.8886,3.873,3.8715,3.8665,3.8967,3.9028,3.9147,3.9141,3.9053,3.898,3.8907,3.8797,3.8686,3.8627,3.8494,3.8478,3.8404,3.8329,3.824,3.824,3.8202,3.8202,3.8202,3.8173,3.8202,3.8202,3.79,3.79,3.79,3.79,3.79,3.79,3.7992,3.833,3.8997,3.9662,4.0386,4.1142,4.1854,4.25,4.2754,4.301,4.3265,4.3305,4.3305,4.3305,4.3344,4.3478,4.3576,4.3404,4.3557,4.3559,4.354,4.3594,4.3731,4.3216,4.2617,4.2479,4.1694,4.117,4.1047,4.0674,4.0536,4.0489,4.0489,4.0489,4.0489,4.0489,4.0489,4.0489,4.0489,4.0489,4.0489,4.0489,4.0489,4.0489,4.0489,4.0382,4.0182,4.0305,4.0305,4.0105,3.9813,3.9797,3.9982,3.96,3.949,3.9423,3.9078,3.8843,3.8442,3.7913,3.7509,3.7584,3.721,3.7225,3.7375,3.7389,3.7659,3.7808,3.7958,3.8212,3.8332,3.8527,3.8751,3.8736,3.8721,3.8766,3.8826,3.905,3.9305,3.923,3.914,3.9245,3.9298,3.9224,3.9179,3.9239,3.9239,3.9292,3.9307,3.9337,3.9301,3.9228,3.9104,3.9031,3.898,3.887,3.8811,3.8701,3.859,3.8478,3.8404,3.8277,3.8202,3.8202,3.8202,3.8202,3.8202,3.8202,3.8202,3.79,3.79,3.79,3.79,3.79,3.79,3.7992,3.8207,3.91,3.9763,4.0386,4.1283,4.2117,4.2526,4.2688,4.289,4.321,4.3305,4.3305,4.3305,4.3344,4.3423,4.3503,4.3566,4.3551,4.3611,4.3726,4.3858,4.3739,4.341,4.3082,4.2833,4.2217,4.1894,4.1663,4.1232,4.0782,4.0489,4.0489,4.0489,4.0489,4.0489,4.0489,4.0489,4.0489,4.0489,4.0489,4.0489,4.0489,4.0489,4.0489,4.0459,4.0428,4.0443,4.0489,4.0382,4.0255,4.0267,4.0293,4.0178,4.0191,3.9996,3.9737,3.9283,3.8966,3.8631,3.8362,3.8227,3.7928,3.7778,3.7883,3.7988,3.8242,3.8527,3.8661,3.902,3.9245,3.9119,3.9074,3.9059,3.9074,3.9179,3.9239,3.9298,3.9373,3.9388,3.9388,3.9388,3.9388,3.9388,3.9388,3.9388,3.9388,3.9388,3.9388,3.9388,3.9388,3.9388,3.9228,3.9192,3.9141,3.9104,3.9031,3.8885,3.8738,3.8649,3.8612,3.8389,3.8202,3.8202,3.8202,3.8202,3.8202,3.8202,3.8202,3.79,3.79,3.79,3.79,3.79,3.79,3.8129,3.8466,3.9083,3.9865,4.0744,4.1564,4.2146,4.2433,4.2662,4.2809,4.3036,4.3195,4.329,4.3305,4.3305,4.3344,4.3384,4.3384,4.3369,4.3423,4.3596,4.3793,4.3957,4.3929,4.3722,4.3494,4.2848,4.2617,4.2279,4.1755,4.1124,4.0735,4.0566,4.0489,4.0489,4.0489,4.0489,4.0489,4.0489,4.0489,4.0489,4.0489,4.0489,4.0489,4.0489,4.0489,4.0489,4.0489,4.0489,4.0489,4.0401,4.0381,4.0347,4.0312,4.0172,3.996,3.9666,3.9266,3.8886,3.8586,3.8422,3.8497,3.8392,3.8601,3.8931,3.9239,3.905,3.905,3.908,3.9185,3.9328,3.9328,3.9298,3.9358,3.9388,3.9388,3.9388,3.9388,3.9388,3.9388,3.9388,3.9388,3.9388,3.9388,3.9388,3.9388,3.9388,3.9388,3.9388,3.9388,3.9388,3.9388,3.9352,3.9316,3.9352,3.9265,3.9192,3.9119,3.8958,3.8907,3.8797,3.8575,3.8389,3.8277,3.8202,3.824,3.824,3.824,3.824,3.79,3.79,3.79,3.79,3.79,3.79,3.7992,3.8298,3.8993,4.0009,4.1142,4.1633,4.2049,4.2377,4.2622,4.2795,4.2996,4.321,4.3305,4.3305,4.3305,4.3305,4.3305,4.3305,4.3305,4.3344,4.3423,4.366,4.3988,4.3988,4.4151,4.392,4.3494,4.3316,4.2961,4.2263,4.1555,4.1155,4.077,4.0505,4.0489,4.0489,4.0489,4.0489,4.0489,4.0489,4.0489,4.0489,4.0489,4.0489,4.0489,4.0489,4.0489,4.0489,4.0489,4.0455,4.0366,4.0312,4.0242,4.0172,4.0031,3.9839,3.9553,3.9254,3.896,3.9005,3.902,3.9,3.8975,3.9155,3.9254,3.9358,3.9313,3.9373,3.9388,3.9388,3.9388,3.9388,3.9388,3.9388,3.9388,3.9388,3.9388,3.9388,3.9388,3.9388,3.9388,3.9388,3.9388,3.9388,3.9388,3.9388,3.9388,3.9388,3.9388,3.9388,3.9388,3.9388,3.9388,3.9388,3.9388,3.9388,3.9316,3.9265,3.9192,3.9068,3.8922,3.8723,3.8612,3.8501,3.8389,3.8329,3.8329,3.8315,3.8315,3.79,3.79,3.79,3.79,3.79,3.79,3.79,3.807,3.8917,4.0083,4.1396,4.1619,4.1924,4.231,4.2566,4.2769,4.297,4.3185,4.3265,4.3305,4.3305,4.3305,4.3305,4.3305,4.3305,4.3305,4.3344,4.3542,4.3871,4.3754,4.402,4.4174,4.4081,4.3888,4.3655,4.2869,4.2017,4.154,4.1186,4.0643,4.0582,4.0489,4.0489,4.0489,4.0489,4.0489,4.0489,4.0489,4.0489,4.0489,4.0489,4.0489,4.0489,4.0489,4.0489,4.042,4.0331,4.0242,4.0172,4.0031,3.9818,3.9625,3.9517,3.9409,3.9388,3.9388,3.9284,3.9313,3.9343,3.9418,3.9433,3.9388,3.9388,3.9388,3.9388,3.9388,3.9388,3.9388,3.9388,3.9388,3.9388,3.9388,3.9403,3.9418,3.9478,3.9448,3.9388,3.9388,3.9388,3.9388,3.9388,3.9388,3.9388,3.9388,3.9388,3.9388,3.9388,3.9388,3.9388,3.9388,3.9388,3.9388,3.9388,3.9352,3.9265,3.9228,3.9119,3.9031,3.8922,3.8797,3.8649,3.8538,3.8538,3.8575,3.8538,3.79,3.79,3.79,3.79,3.79,3.79,3.79,3.8024,3.8904,4.0083,4.1297,4.1577,4.1841,4.216,4.2459,4.2688,4.2809,4.309,4.329,4.329,4.3305,4.3305,4.3305,4.3305,4.3305,4.3305,4.3344,4.3463,4.3729,4.3636,4.391,4.422,4.422,4.4266,4.4449,4.3886,4.2915,4.1832,4.1694,4.1232,4.0766,4.0659,4.0659,4.0489,4.0489,4.0489,4.0489,4.0489,4.0489,4.0489,4.0489,4.0489,4.0489,4.0489,4.0489,4.0455,4.0207,4.0046,3.9975,3.9818,3.964,3.9496,3.9424,3.9388,3.9388,3.9418,3.9523,3.9679,3.9679,3.9582,3.9508,3.9508,3.9612,3.9568,3.9597,3.9538,3.9553,3.9612,3.9657,3.9448,3.9388,3.9388,3.9418,3.9499,3.9574,3.9559,3.9418,3.9418,3.9493,3.9388,3.9403,3.9388,3.9388,3.9388,3.9388,3.9388,3.9388,3.9388,3.9388,3.9388,3.9388,3.9388,3.9388,3.9388,3.9352,3.9301,3.9352,3.9352,3.9192,3.9031,3.887,3.8797,3.8797,3.876,3.8723,3.79,3.79,3.79,3.79,3.79,3.79,3.79,3.8083,3.8917,3.9982,4.1029,4.1381,4.1633,4.1924,4.231,4.2581,4.2729,4.2915,4.3115,4.329,4.3305,4.3305,4.3305,4.3305,4.3305,4.3305,4.3329,4.3423,4.369,4.3557,4.3699,4.4011,4.4281,4.4435,4.4349,4.3978,4.327,4.2931,4.2494,4.194,4.134,4.1217,4.1032,4.0597,4.0551,4.0551,4.0505,4.0489,4.0489,4.0489,4.0489,4.0489,4.0489,4.0489,4.0436,4.0366,4.0117,3.9869,3.9727,3.9532,3.9496,3.9454,3.9448,3.9463,3.9439,3.9858,3.9993,4.0172,4.0382,4.0502,4.0756,4.0756,4.0726,4.0352,4.0232,4.0023,3.9978,4.0068,4.0068,3.9597,3.9388,3.9738,3.9873,4.0098,4.0187,4.0157,4.0127,3.9963,3.9978,3.9582,3.9418,3.9403,3.9388,3.9388,3.9388,3.9433,3.9403,3.9388,3.9388,3.9388,3.9388,3.9388,3.9388,3.9388,3.9388,3.9388,3.9388,3.9388,3.9352,3.9228,3.9104,3.8958,3.8907,3.8907,3.8907,3.79,3.79,3.79,3.79,3.79,3.79,3.8037,3.848,3.9216,4.0112,4.0916,4.1297,4.1507,4.18,4.2187,4.2433,4.2607,4.2809,4.2996,4.3155,4.321,4.325,4.3305,4.3305,4.3305,4.3305,4.3305,4.3423,4.3518,4.3369,4.3566,4.3972,4.4258,4.4473,4.4433,4.4194,4.3824,4.3501,4.3002,4.2617,4.214,4.1863,4.1566,4.1155,4.0909,4.0816,4.0582,4.0505,4.0489,4.0489,4.0489,4.047,4.047,4.0401,4.0331,4.0207,3.9996,3.9747,3.9532,3.9424,3.9529,3.9813,3.9753,3.9768,3.9873,4.0382,4.0636,4.0891,4.1242,4.1347,4.1422,4.1467,4.1317,4.0891,4.0816,4.0606,4.0502,4.0606,4.0367,3.9918,3.9634,3.9963,4.0382,4.0696,4.0935,4.0891,4.0831,4.0651,4.0487,4.0157,3.9807,3.9747,3.9783,3.9858,3.9753,3.9544,3.9514,3.9403,3.9433,3.9478,3.9388,3.9388,3.9388,3.9388,3.9388,3.9388,3.9388,3.9388,3.9388,3.9352,3.9301,3.9156,3.9031,3.9031,3.9104,3.79,3.79,3.79,3.79,3.79,3.7992,3.8512,3.9292,3.9791,4.0329,4.1001,4.1255,4.1465,4.1758,4.2187,4.2392,4.2474,4.2622,4.285,4.2955,4.3036,4.317,4.325,4.3305,4.3305,4.3305,4.3305,4.3305,4.3344,4.3305,4.3527,4.3972,4.4281,4.4473,4.4503,4.4433,4.4178,4.387,4.3701,4.3233,4.2771,4.2602,4.2232,4.1801,4.1494,4.117,4.0843,4.0582,4.052,4.0455,4.0455,4.0431,4.0377,4.0307,4.0217,4.0117,3.9985,3.9724,3.958,3.9589,3.9717,4.0113,4.0367,4.0397,4.0606,4.098,4.1235,4.1384,4.1579,4.1572,4.1557,4.1572,4.1572,4.1467,4.1467,4.1332,4.116,4.101,4.0711,4.0352,3.9993,4.0187,4.0786,4.1227,4.1624,4.1893,4.1788,4.1399,4.122,4.1025,4.0711,4.0427,4.0442,4.0442,4.0277,4.0098,3.9858,3.9888,3.9709,3.9694,3.9538,3.9418,3.9388,3.9388,3.9388,3.9388,3.9388,3.9388,3.9388,3.9388,3.9367,3.9352,3.9192,3.9265,3.9331,3.79,3.79,3.79,3.79,3.7979,3.8602,3.9083,3.9336,3.9791,4.03,4.0816,4.1213,4.1438,4.1522,4.1995,4.2242,4.2351,4.2514,4.2729,4.2835,4.2955,4.3115,4.3235,4.329,4.3305,4.3305,4.3305,4.3305,4.3305,4.3305,4.3542,4.3972,4.4166,4.4358,4.4534,4.461,4.444,4.4317,4.424,4.387,4.3464,4.3294,4.2879,4.2463,4.1878,4.1524,4.1247,4.0689,4.0532,4.0412,4.0381,4.0414,4.0817,4.0811,4.0815,4.1096,4.0708,4.0164,4.0038,3.9694,3.9798,4.0502,4.0846,4.107,4.1265,4.1609,4.1916,4.1938,4.2177,4.2282,4.2162,4.2073,4.2073,4.2073,4.2043,4.1938,4.1818,4.1677,4.1324,4.092,4.0561,4.0928,4.1482,4.1818,4.2282,4.2731,4.2761,4.2297,4.1968,4.1788,4.1489,4.119,4.11,4.11,4.107,4.092,4.0576,4.0307,4.0187,3.9993,3.9783,3.9664,3.9463,3.9418,3.9463,3.9433,3.9388,3.9388,3.9403,3.9418,3.9418,3.9403,3.9388,3.9448,3.9508,3.79,3.79,3.79,3.79,3.807,3.8917,3.9305,3.9438,3.9996,4.0487,4.0744,4.117,4.141,4.148,4.187,4.216,4.2228,4.2284,4.2433,4.2648,4.2875,4.2996,4.3115,4.325,4.3305,4.3305,4.3305,4.3305,4.3344,4.3463,4.366,4.3972,4.4065,4.432,4.4496,4.461,4.461,4.4564,4.4517,4.4348,4.4148,4.3947,4.3556,4.3002,4.234,4.1955,4.1555,4.0905,4.0604,4.0602,4.0644,4.0837,4.1167,4.1224,4.1195,4.1408,4.1153,4.0838,4.0726,4.0502,4.0651,4.104,4.1542,4.1863,4.2192,4.2536,4.2506,4.2491,4.2871,4.3125,4.2925,4.2731,4.2746,4.2746,4.2656,4.2566,4.2447,4.2366,4.2006,4.1572,4.1602,4.1901,4.2261,4.2575,4.2806,4.306,4.3125,4.297,4.2716,4.2581,4.2222,4.1886,4.1826,4.1811,4.1743,4.1624,4.122,4.092,4.0846,4.0606,4.0217,4.0157,4.0247,3.9963,3.9604,3.9604,3.9597,3.9448,3.9418,3.9553,3.9873,4.0038,3.9963,3.9657,3.9768,3.79,3.79,3.79,3.79,3.8024,3.8827,3.9274,3.9394,4.017,4.0645,4.0773,4.117,4.1354,4.148,4.1829,4.2051,4.2119,4.2175,4.2284,4.2433,4.2648,4.285,4.3036,4.321,4.3305,4.3305,4.3305,4.3305,4.3384,4.3463,4.366,4.3988,4.4127,4.4358,4.4534,4.4572,4.461,4.461,4.461,4.4517,4.4548,4.4433,4.4279,4.3701,4.3017,4.2417,4.1689,4.1146,4.0708,4.0934,4.1147,4.121,4.1595,4.1776,4.173,4.1602,4.1617,4.1527,4.1384,4.119,4.1587,4.1961,4.2396,4.2566,4.2806,4.2976,4.2901,4.2746,4.3015,4.306,4.2865,4.2761,4.2761,4.2836,4.2836,4.2865,4.291,4.2761,4.2506,4.2207,4.2282,4.2551,4.2626,4.291,4.3015,4.3245,4.329,4.3245,4.3225,4.312,4.2865,4.2462,4.2462,4.2417,4.2372,4.2192,4.1773,4.1534,4.1512,4.1272,4.0861,4.092,4.11,4.0711,4.0277,3.9978,3.9873,3.9933,4.0113,4.0307,4.0576,4.0786,4.0621,4.0351,4.0269,3.79,3.79,3.79,3.79,3.7992,3.8512,3.8993,3.9336,3.9908,4.0386,4.0688,4.0972,4.1255,4.1438,4.1689,4.1897,4.2092,4.2092,4.2201,4.2392,4.2566,4.2769,4.2996,4.317,4.3305,4.3305,4.3305,4.3305,4.3344,4.3423,4.3621,4.3949,4.4104,4.4243,4.4572,4.461,4.461,4.461,4.461,4.4572,4.4572,4.4572,4.444,4.4095,4.3648,4.2876,4.218,4.148,4.07,4.0273,4.0646,4.1234,4.2143,4.2575,4.2766,4.2751,4.2357,4.2177,4.2066,4.1863,4.1968,4.2246,4.253,4.2821,4.3075,4.3215,4.32,4.3015,4.2895,4.288,4.2865,4.2821,4.2806,4.291,4.3,4.311,4.326,4.311,4.2931,4.297,4.2985,4.303,4.3075,4.3125,4.3245,4.3305,4.3305,4.329,4.3275,4.3215,4.32,4.297,4.306,4.3045,4.2955,4.2791,4.2387,4.2207,4.2147,4.1886,4.1572,4.1512,4.1512,4.1324,4.1025,4.0681,4.0576,4.0928,4.1093,4.1205,4.1415,4.1671,4.1768,4.1549,4.134,3.79,3.79,3.79,3.79,3.7992,3.8389,3.8872,3.9336,3.9791,4.027,4.0688,4.093,4.1142,4.1381,4.1633,4.1856,4.2051,4.2092,4.2119,4.2269,4.2566,4.2729,4.293,4.317,4.325,4.3305,4.3305,4.3305,4.3305,4.3329,4.3542,4.391,4.4026,4.4166,4.4534,4.4572,4.4572,4.461,4.461,4.4534,4.4496,4.4534,4.4534,4.4296,4.3791,4.3164,4.2548,4.1818,4.1104,4.084,4.1272,4.1881,4.265,4.303,4.3215,4.3155,4.297,4.2776,4.2641,4.2491,4.2342,4.2611,4.2776,4.3125,4.3155,4.3305,4.329,4.3095,4.311,4.311,4.312,4.3075,4.309,4.311,4.3125,4.32,4.3275,4.3215,4.314,4.314,4.3155,4.317,4.32,4.32,4.3305,4.3305,4.3305,4.3305,4.3305,4.3305,4.3305,4.3305,4.3305,4.3305,4.317,4.3095,4.303,4.2895,4.2731,4.2641,4.2402,4.2043,4.1856,4.1826,4.1639,4.1317,4.1347,4.1678,4.1995,4.2153,4.2364,4.2583,4.2666,4.2758,4.2773,3.79,3.79,3.79,3.79,3.7946,3.8344,3.8782,3.9216,3.9659,4.0097,4.053,4.0759,4.1071,4.1325,4.1591,4.1829,4.2009,4.2051,4.2092,4.2284,4.2541,4.2729,4.2915,4.313,4.325,4.3305,4.3305,4.3305,4.3305,4.3329,4.3503,4.391,4.4065,4.4166,4.4473,4.4572,4.4534,4.4572,4.4572,4.4473,4.4473,4.4458,4.4381,4.409,4.3724,4.3297,4.2674,4.2122,4.1578,4.158,4.1903,4.2524,4.2925,4.3245,4.326,4.3245,4.323,4.3155,4.317,4.311,4.3125,4.3245,4.3305,4.3305,4.3305,4.329,4.3275,4.3275,4.329,4.329,4.326,4.3245,4.326,4.3275,4.326,4.3245,4.3275,4.3305,4.3305,4.3305,4.3305,4.3305,4.3305,4.3305,4.3305,4.3305,4.3305,4.3305,4.3305,4.3305,4.3305,4.3305,4.3305,4.3305,4.3305,4.3275,4.323,4.3185,4.3075,4.3185,4.3185,4.2761,4.2462,4.2455,4.2246,4.2036,4.2099,4.2311,4.2667,4.3039,4.3297,4.3524,4.3791,4.3951,4.4317,3.79,3.79,3.79,3.79,3.7946,3.8037,3.8298,3.8692,3.8872,3.9349,4.0053,4.0213,4.0502,4.1085,4.1339,4.1606,4.1841,4.2009,4.2201,4.2392,4.2581,4.2769,4.2955,4.313,4.325,4.3305,4.3305,4.3305,4.3305,4.3329,4.3527,4.3949,4.3832,4.405,4.4496,4.4534,4.4473,4.4534,4.4572,4.4511,4.4374,4.4281,4.4205,4.4051,4.3928,4.3379,4.2871,4.2576,4.2017,4.1843,4.2036,4.2656,4.309,4.3305,4.3305,4.3305,4.3305,4.3305,4.3305,4.3305,4.3305,4.3305,4.3305,4.3305,4.3305,4.3305,4.329,4.329,4.3305,4.3305,4.3275,4.3275,4.329,4.329,4.3275,4.3275,4.329,4.3305,4.3305,4.3305,4.3305,4.3305,4.3305,4.3305,4.3305,4.3305,4.3305,4.3305,4.3305,4.3305,4.3305,4.3305,4.3305,4.3305,4.3305,4.3305,4.3275,4.329,4.3344,4.3384,4.3369,4.3275,4.3105,4.313,4.3112,4.3013,4.3094,4.3168,4.3457,4.3846,4.4174,4.4464,4.4701,4.4852,4.5002]}]]